Time,TemperatureF,DewpointF,PressureIn,WindDirection,WindDirectionDegrees,WindSpeedMPH,WindSpeedGustMPH,Humidity,HourlyPrecipIn,Conditions,Clouds,dailyrainin,SoftwareType,DateUTC
2013-05-17 00:00:00,61.8,51.1,29.80,NNE,24,0.0,1.0,68,0.00,,---,0.00,VWS V14.01,2013-05-17 04:00:00,
2013-05-17 00:01:00,61.8,51.1,29.80,NNE,24,0.0,0.0,68,0.00,,---,0.00,VWS V14.01,2013-05-17 04:01:00,
2013-05-17 00:02:00,61.8,51.1,29.80,NNE,24,0.0,0.0,68,0.00,,---,0.00,VWS V14.01,2013-05-17 04:02:00,
2013-05-17 00:03:00,61.8,51.1,29.80,NNE,24,0.0,0.0,68,0.00,,---,0.00,VWS V14.01,2013-05-17 04:03:00,
2013-05-17 00:04:00,61.8,51.1,29.80,NNE,24,0.0,0.0,68,0.00,,---,0.00,VWS V14.01,2013-05-17 04:04:00,
2013-05-17 00:05:00,61.8,51.1,29.80,NNE,24,2.0,2.0,68,0.00,,---,0.00,VWS V14.01,2013-05-17 04:05:00,
2013-05-17 00:06:00,61.8,51.1,29.80,NNE,24,2.0,2.0,68,0.00,,---,0.00,VWS V14.01,2013-05-17 04:06:00,
2013-05-17 00:07:00,61.6,51.0,29.80,NNE,24,0.0,2.0,68,0.00,,---,0.00,VWS V14.01,2013-05-17 04:07:00,
2013-05-17 00:08:00,61.6,51.0,29.80,NNE,24,0.0,2.0,68,0.00,,---,0.00,VWS V14.01,2013-05-17 04:08:00,
2013-05-17 00:09:00,61.6,51.0,29.80,NNE,24,0.0,2.0,68,0.00,,---,0.00,VWS V14.01,2013-05-17 04:09:00,
2013-05-17 00:10:00,61.5,50.8,29.80,NNE,24,0.0,2.0,68,0.00,,---,0.00,VWS V14.01,2013-05-17 04:10:00,
2013-05-17 00:11:00,61.5,50.8,29.80,NNE,24,0.0,0.0,68,0.00,,---,0.00,VWS V14.01,2013-05-17 04:11:00,
2013-05-17 00:12:00,61.5,50.5,29.80,NNE,24,0.0,0.0,67,0.00,,---,0.00,VWS V14.01,2013-05-17 04:12:00,
2013-05-17 00:13:00,61.5,50.5,29.80,NNE,24,0.0,1.0,67,0.00,,---,0.00,VWS V14.01,2013-05-17 04:13:00,
2013-05-17 00:14:00,61.3,50.3,29.80,NNE,24,0.0,1.0,67,0.00,,---,0.00,VWS V14.01,2013-05-17 04:14:00,
2013-05-17 00:15:00,61.3,50.7,29.80,NNE,24,0.0,1.0,68,0.00,,---,0.00,VWS V14.01,2013-05-17 04:15:00,
2013-05-17 00:16:00,61.3,50.7,29.80,NNE,24,0.0,0.0,68,0.00,,---,0.00,VWS V14.01,2013-05-17 04:16:00,
2013-05-17 00:17:00,61.3,50.3,29.80,NNE,24,0.0,0.0,67,0.00,,---,0.00,VWS V14.01,2013-05-17 04:17:00,
2013-05-17 00:18:00,61.2,50.2,29.80,NNE,24,0.0,0.0,67,0.00,,---,0.00,VWS V14.01,2013-05-17 04:18:00,
2013-05-17 00:19:00,61.2,49.8,29.80,NNE,24,0.0,0.0,66,0.00,,---,0.00,VWS V14.01,2013-05-17 04:19:00,
2013-05-17 00:20:00,61.2,49.8,29.80,NNE,24,1.0,1.0,66,0.00,,---,0.00,VWS V14.01,2013-05-17 04:20:00,
2013-05-17 00:21:00,61.2,49.8,29.80,NNE,22,3.0,3.0,66,0.00,,---,0.00,VWS V14.01,2013-05-17 04:21:00,
2013-05-17 00:22:00,61.0,50.4,29.80,NNE,22,1.0,3.0,68,0.00,,---,0.00,VWS V14.01,2013-05-17 04:22:00,
2013-05-17 00:23:00,61.0,50.0,29.80,NNE,22,0.0,3.0,67,0.00,,---,0.00,VWS V14.01,2013-05-17 04:23:00,
2013-05-17 00:24:00,60.9,49.9,29.80,NNE,22,0.0,3.0,67,0.00,,---,0.00,VWS V14.01,2013-05-17 04:24:00,
2013-05-17 00:25:00,60.9,49.9,29.80,NNE,22,0.0,3.0,67,0.00,,---,0.00,VWS V14.01,2013-05-17 04:25:00,
2013-05-17 00:26:00,60.9,49.9,29.80,NNE,22,0.0,0.0,67,0.00,,---,0.00,VWS V14.01,2013-05-17 04:26:00,
2013-05-17 00:27:00,60.7,49.3,29.80,NNE,22,0.0,0.0,66,0.00,,---,0.00,VWS V14.01,2013-05-17 04:27:00,
2013-05-17 00:28:00,60.7,49.3,29.80,NNE,22,0.0,0.0,66,0.00,,---,0.00,VWS V14.01,2013-05-17 04:28:00,
2013-05-17 00:29:00,60.7,49.3,29.80,NNE,22,0.0,0.0,66,0.00,,---,0.00,VWS V14.01,2013-05-17 04:29:00,
2013-05-17 00:30:00,60.7,49.3,29.80,NNE,22,0.0,0.0,66,0.00,,---,0.00,VWS V14.01,2013-05-17 04:30:00,
2013-05-17 00:31:00,60.5,49.1,29.80,NNE,22,0.0,0.0,66,0.00,,---,0.00,VWS V14.01,2013-05-17 04:31:00,
2013-05-17 00:32:00,60.5,49.1,29.80,NNE,22,0.0,0.0,66,0.00,,---,0.00,VWS V14.01,2013-05-17 04:32:00,
2013-05-17 00:33:00,60.5,49.1,29.80,NNE,22,0.0,0.0,66,0.00,,---,0.00,VWS V14.01,2013-05-17 04:33:00,
2013-05-17 00:34:00,60.5,49.5,29.80,NNE,22,0.0,0.0,67,0.00,,---,0.00,VWS V14.01,2013-05-17 04:34:00,
2013-05-17 00:35:00,60.5,49.5,29.80,NNE,22,0.0,0.0,67,0.00,,---,0.00,VWS V14.01,2013-05-17 04:35:00,
2013-05-17 00:36:00,60.5,49.1,29.80,NNE,22,0.0,0.0,66,0.00,,---,0.00,VWS V14.01,2013-05-17 04:36:00,
2013-05-17 00:37:00,60.4,49.0,29.80,NNE,22,0.0,0.0,66,0.00,,---,0.00,VWS V14.01,2013-05-17 04:37:00,
2013-05-17 00:38:00,60.4,49.0,29.80,NNE,22,0.0,0.0,66,0.00,,---,0.00,VWS V14.01,2013-05-17 04:38:00,
2013-05-17 00:39:00,60.4,49.4,29.80,NNE,22,0.0,0.0,67,0.00,,---,0.00,VWS V14.01,2013-05-17 04:39:00,
2013-05-17 00:40:00,60.4,49.4,29.80,NNE,22,0.0,0.0,67,0.00,,---,0.00,VWS V14.01,2013-05-17 04:40:00,
2013-05-17 00:41:00,60.4,49.0,29.80,NNE,22,0.0,0.0,66,0.00,,---,0.00,VWS V14.01,2013-05-17 04:41:00,
2013-05-17 00:42:00,60.2,48.8,29.80,NNE,22,0.0,0.0,66,0.00,,---,0.00,VWS V14.01,2013-05-17 04:42:00,
2013-05-17 00:43:00,60.2,48.8,29.80,NNE,22,0.0,1.0,66,0.00,,---,0.00,VWS V14.01,2013-05-17 04:43:00,
2013-05-17 00:44:00,60.2,48.0,29.80,NNE,22,0.0,1.0,64,0.00,,---,0.00,VWS V14.01,2013-05-17 04:44:00,
2013-05-17 00:45:00,60.2,48.4,29.80,NNE,22,0.0,1.0,65,0.00,,---,0.00,VWS V14.01,2013-05-17 04:45:00,
2013-05-17 00:46:00,60.2,48.4,29.80,NNE,22,0.0,0.0,65,0.00,,---,0.00,VWS V14.01,2013-05-17 04:46:00,
2013-05-17 00:47:00,60.1,48.3,29.80,NNE,22,0.0,0.0,65,0.00,,---,0.00,VWS V14.01,2013-05-17 04:47:00,
2013-05-17 00:48:00,60.1,48.7,29.80,NNE,22,0.0,0.0,66,0.00,,---,0.00,VWS V14.01,2013-05-17 04:48:00,
2013-05-17 00:49:00,60.1,48.7,29.80,NNE,22,0.0,0.0,66,0.00,,---,0.00,VWS V14.01,2013-05-17 04:49:00,
2013-05-17 00:50:00,60.1,48.7,29.80,NNE,22,0.0,0.0,66,0.00,,---,0.00,VWS V14.01,2013-05-17 04:50:00,
2013-05-17 00:51:00,60.1,48.7,29.80,NNE,22,0.0,0.0,66,0.00,,---,0.00,VWS V14.01,2013-05-17 04:51:00,
2013-05-17 00:52:00,60.1,49.1,29.80,NNE,22,0.0,0.0,67,0.00,,---,0.00,VWS V14.01,2013-05-17 04:52:00,
2013-05-17 00:53:00,60.1,49.1,29.80,NNE,22,0.0,0.0,67,0.00,,---,0.00,VWS V14.01,2013-05-17 04:53:00,
2013-05-17 00:54:00,60.1,49.1,29.80,NNE,22,0.0,0.0,67,0.00,,---,0.00,VWS V14.01,2013-05-17 04:54:00,
2013-05-17 00:55:00,60.1,49.1,29.80,NNE,22,0.0,0.0,67,0.00,,---,0.00,VWS V14.01,2013-05-17 04:55:00,
2013-05-17 00:56:00,60.1,49.1,29.80,NNE,22,0.0,0.0,67,0.00,,---,0.00,VWS V14.01,2013-05-17 04:56:00,
2013-05-17 00:57:00,59.9,48.9,29.80,NNE,22,0.0,0.0,67,0.00,,---,0.00,VWS V14.01,2013-05-17 04:57:00,
2013-05-17 00:58:00,59.9,48.9,29.80,NNE,22,0.0,0.0,67,0.00,,---,0.00,VWS V14.01,2013-05-17 04:58:00,
2013-05-17 00:59:00,59.9,48.9,29.80,NNE,22,0.0,0.0,67,0.00,,---,0.00,VWS V14.01,2013-05-17 04:59:00,
2013-05-17 01:00:00,59.9,48.9,29.81,NNE,22,0.0,0.0,67,0.00,,---,0.00,VWS V14.01,2013-05-17 05:00:00,
2013-05-17 01:01:00,59.9,48.9,29.81,NNE,22,0.0,0.0,67,0.00,,---,0.00,VWS V14.01,2013-05-17 05:01:00,
2013-05-17 01:02:00,59.9,49.3,29.81,NNE,22,0.0,0.0,68,0.00,,---,0.00,VWS V14.01,2013-05-17 05:02:00,
2013-05-17 01:03:00,59.8,49.2,29.81,NNE,22,0.0,0.0,68,0.00,,---,0.00,VWS V14.01,2013-05-17 05:03:00,
2013-05-17 01:04:00,59.8,49.2,29.81,NNE,22,0.0,0.0,68,0.00,,---,0.00,VWS V14.01,2013-05-17 05:04:00,
2013-05-17 01:05:00,59.8,48.8,29.81,NNE,22,0.0,0.0,67,0.00,,---,0.00,VWS V14.01,2013-05-17 05:05:00,
2013-05-17 01:06:00,59.6,48.6,29.81,NNE,22,0.0,0.0,67,0.00,,---,0.00,VWS V14.01,2013-05-17 05:06:00,
2013-05-17 01:07:00,59.6,48.2,29.81,NNE,22,0.0,0.0,66,0.00,,---,0.00,VWS V14.01,2013-05-17 05:07:00,
2013-05-17 01:08:00,59.5,48.5,29.81,NNE,22,0.0,0.0,67,0.00,,---,0.00,VWS V14.01,2013-05-17 05:08:00,
2013-05-17 01:09:00,59.5,48.5,29.81,NNE,22,0.0,0.0,67,0.00,,---,0.00,VWS V14.01,2013-05-17 05:09:00,
2013-05-17 01:10:00,59.3,48.4,29.81,NNE,22,0.0,0.0,67,0.00,,---,0.00,VWS V14.01,2013-05-17 05:10:00,
2013-05-17 01:11:00,59.3,48.4,29.81,NNE,22,0.0,0.0,67,0.00,,---,0.00,VWS V14.01,2013-05-17 05:11:00,
2013-05-17 01:12:00,59.3,48.4,29.81,NNE,22,0.0,0.0,67,0.00,,---,0.00,VWS V14.01,2013-05-17 05:12:00,
2013-05-17 01:13:00,59.3,48.4,29.81,NNE,22,0.0,0.0,67,0.00,,---,0.00,VWS V14.01,2013-05-17 05:13:00,
2013-05-17 01:14:00,59.3,48.4,29.81,NNE,22,0.0,0.0,67,0.00,,---,0.00,VWS V14.01,2013-05-17 05:14:00,
2013-05-17 01:15:00,59.2,48.3,29.80,NNE,22,0.0,0.0,67,0.00,,---,0.00,VWS V14.01,2013-05-17 05:15:00,
2013-05-17 01:16:00,59.2,48.3,29.80,NNE,22,0.0,0.0,67,0.00,,---,0.00,VWS V14.01,2013-05-17 05:16:00,
2013-05-17 01:17:00,59.2,48.3,29.80,NNE,22,0.0,0.0,67,0.00,,---,0.00,VWS V14.01,2013-05-17 05:17:00,
2013-05-17 01:18:00,59.2,48.3,29.80,NNE,22,0.0,0.0,67,0.00,,---,0.00,VWS V14.01,2013-05-17 05:18:00,
2013-05-17 01:19:00,59.2,48.3,29.80,NNE,22,0.0,0.0,67,0.00,,---,0.00,VWS V14.01,2013-05-17 05:19:00,
2013-05-17 01:20:00,59.0,48.1,29.80,NNE,22,0.0,0.0,67,0.00,,---,0.00,VWS V14.01,2013-05-17 05:20:00,
2013-05-17 01:21:00,59.0,48.1,29.80,NNE,22,0.0,0.0,67,0.00,,---,0.00,VWS V14.01,2013-05-17 05:21:00,
2013-05-17 01:22:00,59.0,48.5,29.80,NNE,22,0.0,0.0,68,0.00,,---,0.00,VWS V14.01,2013-05-17 05:22:00,
2013-05-17 01:23:00,59.0,48.5,29.80,NNE,22,0.0,0.0,68,0.00,,---,0.00,VWS V14.01,2013-05-17 05:23:00,
2013-05-17 01:24:00,58.9,48.4,29.80,NNE,22,0.0,0.0,68,0.00,,---,0.00,VWS V14.01,2013-05-17 05:24:00,
2013-05-17 01:25:00,58.9,48.4,29.80,NNE,22,0.0,0.0,68,0.00,,---,0.00,VWS V14.01,2013-05-17 05:25:00,
2013-05-17 01:26:00,58.9,48.4,29.80,NNE,22,0.0,0.0,68,0.00,,---,0.00,VWS V14.01,2013-05-17 05:26:00,
2013-05-17 01:27:00,58.9,48.4,29.80,NNE,22,0.0,0.0,68,0.00,,---,0.00,VWS V14.01,2013-05-17 05:27:00,
2013-05-17 01:28:00,58.9,48.4,29.80,NNE,22,0.0,0.0,68,0.00,,---,0.00,VWS V14.01,2013-05-17 05:28:00,
2013-05-17 01:29:00,58.7,48.2,29.80,NNE,22,0.0,0.0,68,0.00,,---,0.00,VWS V14.01,2013-05-17 05:29:00,
2013-05-17 01:30:00,58.7,48.2,29.81,NNE,22,0.0,0.0,68,0.00,,---,0.00,VWS V14.01,2013-05-17 05:30:00,
2013-05-17 01:31:00,58.7,48.6,29.81,NNE,22,4.0,4.0,69,0.00,,---,0.00,VWS V14.01,2013-05-17 05:31:00,
2013-05-17 01:32:00,58.6,48.1,29.81,NNE,22,0.0,4.0,68,0.00,,---,0.00,VWS V14.01,2013-05-17 05:32:00,
2013-05-17 01:33:00,58.4,47.9,29.81,NNE,22,0.0,4.0,68,0.00,,---,0.00,VWS V14.01,2013-05-17 05:33:00,
2013-05-17 01:34:00,58.3,47.0,29.81,NNE,22,0.0,4.0,66,0.00,,---,0.00,VWS V14.01,2013-05-17 05:34:00,
2013-05-17 01:35:00,58.1,46.4,29.81,NNE,22,0.0,4.0,65,0.00,,---,0.00,VWS V14.01,2013-05-17 05:35:00,
2013-05-17 01:36:00,58.1,46.4,29.81,NNE,22,0.0,0.0,65,0.00,,---,0.00,VWS V14.01,2013-05-17 05:36:00,
2013-05-17 01:37:00,58.0,45.9,29.81,NNE,22,0.0,0.0,64,0.00,,---,0.00,VWS V14.01,2013-05-17 05:37:00,
2013-05-17 01:38:00,58.0,45.9,29.81,NNE,22,0.0,0.0,64,0.00,,---,0.00,VWS V14.01,2013-05-17 05:38:00,
2013-05-17 01:39:00,58.0,45.9,29.81,NNE,22,0.0,0.0,64,0.00,,---,0.00,VWS V14.01,2013-05-17 05:39:00,
2013-05-17 01:40:00,58.0,45.9,29.81,NNE,22,0.0,0.0,64,0.00,,---,0.00,VWS V14.01,2013-05-17 05:40:00,
2013-05-17 01:41:00,57.8,45.7,29.81,NNE,22,0.0,0.0,64,0.00,,---,0.00,VWS V14.01,2013-05-17 05:41:00,
2013-05-17 01:42:00,57.8,45.7,29.81,NNE,22,0.0,0.0,64,0.00,,---,0.00,VWS V14.01,2013-05-17 05:42:00,
2013-05-17 01:43:00,57.8,45.3,29.81,NNE,22,0.0,1.0,63,0.00,,---,0.00,VWS V14.01,2013-05-17 05:43:00,
2013-05-17 01:44:00,57.8,45.3,29.81,NNE,22,0.0,1.0,63,0.00,,---,0.00,VWS V14.01,2013-05-17 05:44:00,
2013-05-17 01:45:00,57.8,44.9,29.82,NNE,22,0.0,1.0,62,0.00,,---,0.00,VWS V14.01,2013-05-17 05:45:00,
2013-05-17 01:46:00,57.8,44.9,29.82,NNE,22,1.0,2.0,62,0.00,,---,0.00,VWS V14.01,2013-05-17 05:46:00,
2013-05-17 01:47:00,57.8,44.5,29.82,NNE,22,0.0,2.0,61,0.00,,---,0.00,VWS V14.01,2013-05-17 05:47:00,
2013-05-17 01:48:00,57.8,44.0,29.82,NNE,22,0.0,2.0,60,0.00,,---,0.00,VWS V14.01,2013-05-17 05:48:00,
2013-05-17 01:49:00,57.8,44.0,29.82,NNE,22,0.0,2.0,60,0.00,,---,0.00,VWS V14.01,2013-05-17 05:49:00,
2013-05-17 01:50:00,58.0,44.2,29.82,NNE,22,0.0,2.0,60,0.00,,---,0.00,VWS V14.01,2013-05-17 05:50:00,
2013-05-17 01:51:00,58.0,44.2,29.82,NNE,22,0.0,1.0,60,0.00,,---,0.00,VWS V14.01,2013-05-17 05:51:00,
2013-05-17 01:52:00,58.0,43.8,29.82,NNE,22,0.0,1.0,59,0.00,,---,0.00,VWS V14.01,2013-05-17 05:52:00,
2013-05-17 01:53:00,58.1,43.9,29.82,NNE,22,0.0,1.0,59,0.00,,---,0.00,VWS V14.01,2013-05-17 05:53:00,
2013-05-17 01:54:00,58.1,43.9,29.82,NNE,22,0.0,1.0,59,0.00,,---,0.00,VWS V14.01,2013-05-17 05:54:00,
2013-05-17 01:55:00,58.1,43.9,29.82,NNE,22,0.0,1.0,59,0.00,,---,0.00,VWS V14.01,2013-05-17 05:55:00,
2013-05-17 01:56:00,58.3,44.0,29.82,NNE,22,0.0,0.0,59,0.00,,---,0.00,VWS V14.01,2013-05-17 05:56:00,
2013-05-17 01:57:00,58.3,44.0,29.82,NNE,22,2.0,3.0,59,0.00,,---,0.00,VWS V14.01,2013-05-17 05:57:00,
2013-05-17 01:58:00,58.4,43.7,29.82,NNE,22,0.0,3.0,58,0.00,,---,0.00,VWS V14.01,2013-05-17 05:58:00,
2013-05-17 01:59:00,58.4,43.7,29.82,NNE,22,1.0,3.0,58,0.00,,---,0.00,VWS V14.01,2013-05-17 05:59:00,
2013-05-17 02:00:00,58.4,43.7,29.83,NNE,22,0.0,3.0,58,0.00,,---,0.00,VWS V14.01,2013-05-17 06:00:00,
2013-05-17 02:01:00,58.6,43.9,29.83,NNE,22,1.0,1.0,58,0.00,,---,0.00,VWS V14.01,2013-05-17 06:01:00,
2013-05-17 02:02:00,58.6,43.9,29.83,NNE,22,0.0,1.0,58,0.00,,---,0.00,VWS V14.01,2013-05-17 06:02:00,
2013-05-17 02:03:00,58.7,44.0,29.83,NNE,22,2.0,2.0,58,0.00,,---,0.00,VWS V14.01,2013-05-17 06:03:00,
2013-05-17 02:04:00,58.7,44.0,29.83,NNE,22,2.0,2.0,58,0.00,,---,0.00,VWS V14.01,2013-05-17 06:04:00,
2013-05-17 02:05:00,58.7,44.0,29.83,NNE,22,0.0,3.0,58,0.00,,---,0.00,VWS V14.01,2013-05-17 06:05:00,
2013-05-17 02:06:00,58.7,44.0,29.83,NNE,22,0.0,1.0,58,0.00,,---,0.00,VWS V14.01,2013-05-17 06:06:00,
2013-05-17 02:07:00,58.9,44.2,29.83,NNE,22,0.0,1.0,58,0.00,,---,0.00,VWS V14.01,2013-05-17 06:07:00,
2013-05-17 02:08:00,58.9,44.2,29.83,NNE,22,0.0,1.0,58,0.00,,---,0.00,VWS V14.01,2013-05-17 06:08:00,
2013-05-17 02:09:00,58.9,44.2,29.83,NNE,22,0.0,1.0,58,0.00,,---,0.00,VWS V14.01,2013-05-17 06:09:00,
2013-05-17 02:10:00,58.9,44.2,29.83,NNE,22,0.0,1.0,58,0.00,,---,0.00,VWS V14.01,2013-05-17 06:10:00,
2013-05-17 02:11:00,58.9,44.2,29.83,NNE,22,0.0,1.0,58,0.00,,---,0.00,VWS V14.01,2013-05-17 06:11:00,
2013-05-17 02:12:00,58.9,44.2,29.83,NNE,22,0.0,1.0,58,0.00,,---,0.00,VWS V14.01,2013-05-17 06:12:00,
2013-05-17 02:13:00,58.9,44.2,29.83,NNE,22,1.0,3.0,58,0.00,,---,0.00,VWS V14.01,2013-05-17 06:13:00,
2013-05-17 02:14:00,58.9,44.2,29.83,NNE,22,2.0,3.0,58,0.00,,---,0.00,VWS V14.01,2013-05-17 06:14:00,
2013-05-17 02:15:00,58.9,44.2,29.84,NNE,22,1.0,3.0,58,0.00,,---,0.00,VWS V14.01,2013-05-17 06:15:00,
2013-05-17 02:16:00,58.9,44.2,29.84,NNE,22,3.0,3.0,58,0.00,,---,0.00,VWS V14.01,2013-05-17 06:16:00,
2013-05-17 02:17:00,58.9,44.6,29.84,NNE,22,0.0,3.0,59,0.00,,---,0.00,VWS V14.01,2013-05-17 06:17:00,
2013-05-17 02:18:00,58.9,44.6,29.84,NNE,22,0.0,3.0,59,0.00,,---,0.00,VWS V14.01,2013-05-17 06:18:00,
2013-05-17 02:19:00,58.9,44.6,29.84,NNE,22,0.0,3.0,59,0.00,,---,0.00,VWS V14.01,2013-05-17 06:19:00,
2013-05-17 02:20:00,58.9,44.6,29.84,NNE,22,0.0,3.0,59,0.00,,---,0.00,VWS V14.01,2013-05-17 06:20:00,
2013-05-17 02:21:00,58.9,44.6,29.84,NNE,22,0.0,0.0,59,0.00,,---,0.00,VWS V14.01,2013-05-17 06:21:00,
2013-05-17 02:22:00,58.9,44.6,29.84,NNE,22,0.0,1.0,59,0.00,,---,0.00,VWS V14.01,2013-05-17 06:22:00,
2013-05-17 02:23:00,58.7,44.4,29.84,NNE,22,2.0,2.0,59,0.00,,---,0.00,VWS V14.01,2013-05-17 06:23:00,
2013-05-17 02:24:00,58.7,44.4,29.84,NNE,22,0.0,3.0,59,0.00,,---,0.00,VWS V14.01,2013-05-17 06:24:00,
2013-05-17 02:25:00,58.7,44.4,29.84,NNE,22,0.0,3.0,59,0.00,,---,0.00,VWS V14.01,2013-05-17 06:25:00,
2013-05-17 02:26:00,58.7,44.4,29.84,NNE,22,0.0,1.0,59,0.00,,---,0.00,VWS V14.01,2013-05-17 06:26:00,
2013-05-17 02:27:00,58.7,44.9,29.84,NNE,22,0.0,1.0,60,0.00,,---,0.00,VWS V14.01,2013-05-17 06:27:00,
2013-05-17 02:28:00,58.6,44.8,29.84,NNE,22,0.0,1.0,60,0.00,,---,0.00,VWS V14.01,2013-05-17 06:28:00,
2013-05-17 02:29:00,58.6,44.8,29.84,NNE,22,0.0,1.0,60,0.00,,---,0.00,VWS V14.01,2013-05-17 06:29:00,
2013-05-17 02:30:00,58.6,44.8,29.84,NNE,22,0.0,1.0,60,0.00,,---,0.00,VWS V14.01,2013-05-17 06:30:00,
2013-05-17 02:31:00,58.6,44.8,29.84,NNE,22,1.0,2.0,60,0.00,,---,0.00,VWS V14.01,2013-05-17 06:31:00,
2013-05-17 02:32:00,58.4,44.6,29.84,NNE,22,0.0,2.0,60,0.00,,---,0.00,VWS V14.01,2013-05-17 06:32:00,
2013-05-17 02:33:00,58.4,44.6,29.84,NNE,22,0.0,2.0,60,0.00,,---,0.00,VWS V14.01,2013-05-17 06:33:00,
2013-05-17 02:34:00,58.4,44.6,29.84,NNE,22,0.0,2.0,60,0.00,,---,0.00,VWS V14.01,2013-05-17 06:34:00,
2013-05-17 02:35:00,58.3,44.5,29.84,NNE,22,0.0,2.0,60,0.00,,---,0.00,VWS V14.01,2013-05-17 06:35:00,
2013-05-17 02:36:00,58.3,44.5,29.84,NNE,22,0.0,1.0,60,0.00,,---,0.00,VWS V14.01,2013-05-17 06:36:00,
2013-05-17 02:37:00,58.3,44.5,29.84,NNE,22,0.0,1.0,60,0.00,,---,0.00,VWS V14.01,2013-05-17 06:37:00,
2013-05-17 02:38:00,58.1,44.3,29.84,NNE,22,0.0,1.0,60,0.00,,---,0.00,VWS V14.01,2013-05-17 06:38:00,
2013-05-17 02:39:00,58.1,44.3,29.84,NNE,22,1.0,1.0,60,0.00,,---,0.00,VWS V14.01,2013-05-17 06:39:00,
2013-05-17 02:40:00,58.1,44.3,29.84,NNE,22,0.0,2.0,60,0.00,,---,0.00,VWS V14.01,2013-05-17 06:40:00,
2013-05-17 02:41:00,58.1,44.7,29.84,NNE,22,0.0,0.0,61,0.00,,---,0.00,VWS V14.01,2013-05-17 06:41:00,
2013-05-17 02:42:00,58.0,44.6,29.84,NNE,22,0.0,3.0,61,0.00,,---,0.00,VWS V14.01,2013-05-17 06:42:00,
2013-05-17 02:43:00,58.0,44.6,29.84,NNE,22,0.0,3.0,61,0.00,,---,0.00,VWS V14.01,2013-05-17 06:43:00,
2013-05-17 02:44:00,58.0,44.6,29.84,NNE,22,0.0,3.0,61,0.00,,---,0.00,VWS V14.01,2013-05-17 06:44:00,
2013-05-17 02:45:00,58.0,44.6,29.85,NNE,22,0.0,3.0,61,0.00,,---,0.00,VWS V14.01,2013-05-17 06:45:00,
2013-05-17 02:46:00,58.0,44.6,29.85,NNE,22,0.0,0.0,61,0.00,,---,0.00,VWS V14.01,2013-05-17 06:46:00,
2013-05-17 02:47:00,57.8,44.5,29.85,NNE,22,0.0,1.0,61,0.00,,---,0.00,VWS V14.01,2013-05-17 06:47:00,
2013-05-17 02:48:00,57.8,44.5,29.85,NNE,22,0.0,1.0,61,0.00,,---,0.00,VWS V14.01,2013-05-17 06:48:00,
2013-05-17 02:49:00,57.8,44.5,29.85,NNE,22,0.0,1.0,61,0.00,,---,0.00,VWS V14.01,2013-05-17 06:49:00,
2013-05-17 02:50:00,57.8,44.5,29.85,NNE,22,0.0,1.0,61,0.00,,---,0.00,VWS V14.01,2013-05-17 06:50:00,
2013-05-17 02:51:00,57.6,44.3,29.85,NNE,22,0.0,0.0,61,0.00,,---,0.00,VWS V14.01,2013-05-17 06:51:00,
2013-05-17 02:52:00,57.6,44.3,29.85,NNE,22,3.0,3.0,61,0.00,,---,0.00,VWS V14.01,2013-05-17 06:52:00,
2013-05-17 02:53:00,57.6,44.3,29.85,NNE,22,0.0,3.0,61,0.00,,---,0.00,VWS V14.01,2013-05-17 06:53:00,
2013-05-17 02:54:00,57.6,44.3,29.85,NNE,22,0.0,3.0,61,0.00,,---,0.00,VWS V14.01,2013-05-17 06:54:00,
2013-05-17 02:55:00,57.6,44.3,29.85,NNE,22,0.0,3.0,61,0.00,,---,0.00,VWS V14.01,2013-05-17 06:55:00,
2013-05-17 02:56:00,57.6,44.7,29.85,NNE,22,0.0,0.0,62,0.00,,---,0.00,VWS V14.01,2013-05-17 06:56:00,
2013-05-17 02:57:00,57.5,44.6,29.85,NNE,22,0.0,2.0,62,0.00,,---,0.00,VWS V14.01,2013-05-17 06:57:00,
2013-05-17 02:58:00,57.5,44.6,29.85,NNE,22,0.0,2.0,62,0.00,,---,0.00,VWS V14.01,2013-05-17 06:58:00,
2013-05-17 02:59:00,57.5,44.6,29.85,NNE,22,0.0,2.0,62,0.00,,---,0.00,VWS V14.01,2013-05-17 06:59:00,
2013-05-17 03:00:00,57.5,44.6,29.85,NNE,22,0.0,2.0,62,0.00,,---,0.00,VWS V14.01,2013-05-17 07:00:00,
2013-05-17 03:01:00,57.5,44.6,29.85,NNE,22,0.0,1.0,62,0.00,,---,0.00,VWS V14.01,2013-05-17 07:01:00,
2013-05-17 03:02:00,57.5,44.6,29.85,NNE,22,0.0,1.0,62,0.00,,---,0.00,VWS V14.01,2013-05-17 07:02:00,
2013-05-17 03:03:00,57.5,44.6,29.85,NNE,22,0.0,1.0,62,0.00,,---,0.00,VWS V14.01,2013-05-17 07:03:00,
2013-05-17 03:04:00,57.3,44.4,29.85,NNE,22,0.0,1.0,62,0.00,,---,0.00,VWS V14.01,2013-05-17 07:04:00,
2013-05-17 03:05:00,57.3,44.4,29.85,NNE,22,0.0,1.0,62,0.00,,---,0.00,VWS V14.01,2013-05-17 07:05:00,
2013-05-17 03:06:00,57.3,44.4,29.85,NNE,22,0.0,0.0,62,0.00,,---,0.00,VWS V14.01,2013-05-17 07:06:00,
2013-05-17 03:07:00,57.3,44.8,29.85,NNE,22,0.0,2.0,63,0.00,,---,0.00,VWS V14.01,2013-05-17 07:07:00,
2013-05-17 03:08:00,57.2,44.7,29.85,NNE,22,2.0,2.0,63,0.00,,---,0.00,VWS V14.01,2013-05-17 07:08:00,
2013-05-17 03:09:00,57.2,44.7,29.85,NNE,22,1.0,2.0,63,0.00,,---,0.00,VWS V14.01,2013-05-17 07:09:00,
2013-05-17 03:10:00,57.2,44.7,29.85,NNE,22,0.0,4.0,63,0.00,,---,0.00,VWS V14.01,2013-05-17 07:10:00,
2013-05-17 03:11:00,57.2,44.7,29.85,NNE,22,0.0,0.0,63,0.00,,---,0.00,VWS V14.01,2013-05-17 07:11:00,
2013-05-17 03:12:00,57.0,44.5,29.85,NNE,22,0.0,0.0,63,0.00,,---,0.00,VWS V14.01,2013-05-17 07:12:00,
2013-05-17 03:13:00,57.0,44.5,29.85,NNE,22,0.0,0.0,63,0.00,,---,0.00,VWS V14.01,2013-05-17 07:13:00,
2013-05-17 03:14:00,57.0,44.5,29.85,NNE,22,1.0,4.0,63,0.00,,---,0.00,VWS V14.01,2013-05-17 07:14:00,
2013-05-17 03:15:00,57.0,45.0,29.86,NNE,22,0.0,4.0,64,0.00,,---,0.00,VWS V14.01,2013-05-17 07:15:00,
2013-05-17 03:16:00,56.9,44.9,29.86,NNE,22,0.0,1.0,64,0.00,,---,0.00,VWS V14.01,2013-05-17 07:16:00,
2013-05-17 03:17:00,56.9,44.9,29.86,NNE,22,0.0,1.0,64,0.00,,---,0.00,VWS V14.01,2013-05-17 07:17:00,
2013-05-17 03:18:00,56.9,44.9,29.86,NNE,22,0.0,1.0,64,0.00,,---,0.00,VWS V14.01,2013-05-17 07:18:00,
2013-05-17 03:19:00,56.9,44.9,29.86,NNE,22,0.0,1.0,64,0.00,,---,0.00,VWS V14.01,2013-05-17 07:19:00,
2013-05-17 03:20:00,56.7,44.7,29.86,NNE,22,0.0,1.0,64,0.00,,---,0.00,VWS V14.01,2013-05-17 07:20:00,
2013-05-17 03:21:00,56.7,44.7,29.86,NNE,22,0.0,0.0,64,0.00,,---,0.00,VWS V14.01,2013-05-17 07:21:00,
2013-05-17 03:22:00,56.7,44.7,29.86,NNE,22,0.0,0.0,64,0.00,,---,0.00,VWS V14.01,2013-05-17 07:22:00,
2013-05-17 03:23:00,56.7,44.7,29.86,NNE,22,0.0,0.0,64,0.00,,---,0.00,VWS V14.01,2013-05-17 07:23:00,
2013-05-17 03:24:00,56.6,44.6,29.86,NNE,22,0.0,0.0,64,0.00,,---,0.00,VWS V14.01,2013-05-17 07:24:00,
2013-05-17 03:25:00,56.6,44.6,29.86,NNE,22,0.0,1.0,64,0.00,,---,0.00,VWS V14.01,2013-05-17 07:25:00,
2013-05-17 03:26:00,56.6,44.6,29.86,NNE,22,0.0,0.0,64,0.00,,---,0.00,VWS V14.01,2013-05-17 07:26:00,
2013-05-17 03:27:00,56.6,44.6,29.86,NNE,22,0.0,0.0,64,0.00,,---,0.00,VWS V14.01,2013-05-17 07:27:00,
2013-05-17 03:28:00,56.5,44.9,29.86,NNE,22,0.0,1.0,65,0.00,,---,0.00,VWS V14.01,2013-05-17 07:28:00,
2013-05-17 03:29:00,56.5,44.9,29.86,NNE,22,0.0,1.0,65,0.00,,---,0.00,VWS V14.01,2013-05-17 07:29:00,
2013-05-17 03:30:00,56.5,44.9,29.87,NNE,22,0.0,1.0,65,0.00,,---,0.00,VWS V14.01,2013-05-17 07:30:00,
2013-05-17 03:31:00,56.5,44.9,29.87,NNE,22,0.0,0.0,65,0.00,,---,0.00,VWS V14.01,2013-05-17 07:31:00,
2013-05-17 03:32:00,56.3,44.7,29.87,NNE,22,0.0,0.0,65,0.00,,---,0.00,VWS V14.01,2013-05-17 07:32:00,
2013-05-17 03:33:00,56.3,44.7,29.87,NNE,22,0.0,0.0,65,0.00,,---,0.00,VWS V14.01,2013-05-17 07:33:00,
2013-05-17 03:34:00,56.3,44.7,29.87,NNE,22,0.0,1.0,65,0.00,,---,0.00,VWS V14.01,2013-05-17 07:34:00,
2013-05-17 03:35:00,56.2,44.6,29.87,NNE,22,0.0,1.0,65,0.00,,---,0.00,VWS V14.01,2013-05-17 07:35:00,
2013-05-17 03:36:00,56.2,45.0,29.87,NNE,22,0.0,0.0,66,0.00,,---,0.00,VWS V14.01,2013-05-17 07:36:00,
2013-05-17 03:37:00,56.2,45.0,29.87,NNE,22,0.0,0.0,66,0.00,,---,0.00,VWS V14.01,2013-05-17 07:37:00,
2013-05-17 03:38:00,56.2,45.0,29.87,NNE,22,0.0,0.0,66,0.00,,---,0.00,VWS V14.01,2013-05-17 07:38:00,
2013-05-17 03:39:00,56.0,44.8,29.87,NNE,22,0.0,0.0,66,0.00,,---,0.00,VWS V14.01,2013-05-17 07:39:00,
2013-05-17 03:40:00,56.0,44.8,29.87,NNE,22,0.0,0.0,66,0.00,,---,0.00,VWS V14.01,2013-05-17 07:40:00,
2013-05-17 03:41:00,56.0,44.8,29.87,NNE,22,0.0,0.0,66,0.00,,---,0.00,VWS V14.01,2013-05-17 07:41:00,
2013-05-17 03:42:00,55.9,44.7,29.87,NNE,22,0.0,0.0,66,0.00,,---,0.00,VWS V14.01,2013-05-17 07:42:00,
2013-05-17 03:43:00,55.9,44.7,29.87,NNE,22,0.0,1.0,66,0.00,,---,0.00,VWS V14.01,2013-05-17 07:43:00,
2013-05-17 03:44:00,55.9,44.7,29.87,NNE,22,0.0,1.0,66,0.00,,---,0.00,VWS V14.01,2013-05-17 07:44:00,
2013-05-17 03:45:00,55.7,44.5,29.88,NNE,22,0.0,1.0,66,0.00,,---,0.00,VWS V14.01,2013-05-17 07:45:00,
2013-05-17 03:46:00,55.7,44.5,29.88,NNE,22,0.0,1.0,66,0.00,,---,0.00,VWS V14.01,2013-05-17 07:46:00,
2013-05-17 03:47:00,55.7,44.9,29.88,NNE,22,0.0,1.0,67,0.00,,---,0.00,VWS V14.01,2013-05-17 07:47:00,
2013-05-17 03:48:00,55.7,44.9,29.88,NNE,22,0.0,1.0,67,0.00,,---,0.00,VWS V14.01,2013-05-17 07:48:00,
2013-05-17 03:49:00,55.6,44.8,29.88,NNE,22,0.0,1.0,67,0.00,,---,0.00,VWS V14.01,2013-05-17 07:49:00,
2013-05-17 03:50:00,55.6,44.8,29.88,NNE,22,0.0,1.0,67,0.00,,---,0.00,VWS V14.01,2013-05-17 07:50:00,
2013-05-17 03:51:00,55.6,44.8,29.88,NNE,22,0.0,0.0,67,0.00,,---,0.00,VWS V14.01,2013-05-17 07:51:00,
2013-05-17 03:52:00,55.4,44.6,29.88,NNE,22,0.0,0.0,67,0.00,,---,0.00,VWS V14.01,2013-05-17 07:52:00,
2013-05-17 03:53:00,55.4,44.6,29.88,NNE,22,0.0,0.0,67,0.00,,---,0.00,VWS V14.01,2013-05-17 07:53:00,
2013-05-17 03:54:00,55.4,44.6,29.88,NNE,22,0.0,0.0,67,0.00,,---,0.00,VWS V14.01,2013-05-17 07:54:00,
2013-05-17 03:55:00,55.4,44.6,29.88,NNE,22,0.0,0.0,67,0.00,,---,0.00,VWS V14.01,2013-05-17 07:55:00,
2013-05-17 03:56:00,55.4,44.6,29.88,NNE,22,0.0,0.0,67,0.00,,---,0.00,VWS V14.01,2013-05-17 07:56:00,
2013-05-17 03:57:00,55.3,44.5,29.88,NNE,22,0.0,0.0,67,0.00,,---,0.00,VWS V14.01,2013-05-17 07:57:00,
2013-05-17 03:58:00,55.3,44.5,29.88,NNE,22,0.0,0.0,67,0.00,,---,0.00,VWS V14.01,2013-05-17 07:58:00,
2013-05-17 03:59:00,55.3,44.5,29.88,NNE,22,0.0,0.0,67,0.00,,---,0.00,VWS V14.01,2013-05-17 07:59:00,
2013-05-17 04:00:00,55.3,44.9,29.89,NNE,22,0.0,0.0,68,0.00,,---,0.00,VWS V14.01,2013-05-17 08:00:00,
2013-05-17 04:01:00,55.3,44.9,29.89,NNE,22,0.0,0.0,68,0.00,,---,0.00,VWS V14.01,2013-05-17 08:01:00,
2013-05-17 04:02:00,55.3,44.9,29.89,NNE,22,0.0,0.0,68,0.00,,---,0.00,VWS V14.01,2013-05-17 08:02:00,
2013-05-17 04:03:00,55.1,44.7,29.89,NNE,22,0.0,0.0,68,0.00,,---,0.00,VWS V14.01,2013-05-17 08:03:00,
2013-05-17 04:04:00,55.1,44.7,29.89,NNE,22,0.0,0.0,68,0.00,,---,0.00,VWS V14.01,2013-05-17 08:04:00,
2013-05-17 04:05:00,55.1,44.7,29.89,NNE,22,0.0,0.0,68,0.00,,---,0.00,VWS V14.01,2013-05-17 08:05:00,
2013-05-17 04:06:00,55.1,44.7,29.89,NNE,22,0.0,0.0,68,0.00,,---,0.00,VWS V14.01,2013-05-17 08:06:00,
2013-05-17 04:07:00,55.1,44.7,29.89,NNE,22,0.0,0.0,68,0.00,,---,0.00,VWS V14.01,2013-05-17 08:07:00,
2013-05-17 04:08:00,55.0,44.7,29.89,NNE,22,0.0,0.0,68,0.00,,---,0.00,VWS V14.01,2013-05-17 08:08:00,
2013-05-17 04:09:00,55.0,44.7,29.89,NNE,22,0.0,0.0,68,0.00,,---,0.00,VWS V14.01,2013-05-17 08:09:00,
2013-05-17 04:10:00,55.0,44.7,29.89,NNE,22,0.0,0.0,68,0.00,,---,0.00,VWS V14.01,2013-05-17 08:10:00,
2013-05-17 04:11:00,55.0,44.7,29.89,NNE,22,0.0,0.0,68,0.00,,---,0.00,VWS V14.01,2013-05-17 08:11:00,
2013-05-17 04:12:00,55.0,44.7,29.89,NNE,22,0.0,0.0,68,0.00,,---,0.00,VWS V14.01,2013-05-17 08:12:00,
2013-05-17 04:13:00,55.0,44.7,29.89,NNE,22,0.0,0.0,68,0.00,,---,0.00,VWS V14.01,2013-05-17 08:13:00,
2013-05-17 04:14:00,54.8,44.5,29.89,NNE,22,0.0,0.0,68,0.00,,---,0.00,VWS V14.01,2013-05-17 08:14:00,
2013-05-17 04:15:00,54.8,44.5,29.88,NNE,22,0.0,0.0,68,0.00,,---,0.00,VWS V14.01,2013-05-17 08:15:00,
2013-05-17 04:16:00,54.8,44.5,29.88,NNE,22,0.0,0.0,68,0.00,,---,0.00,VWS V14.01,2013-05-17 08:16:00,
2013-05-17 04:17:00,54.8,44.5,29.88,NNE,22,0.0,0.0,68,0.00,,---,0.00,VWS V14.01,2013-05-17 08:17:00,
2013-05-17 04:18:00,54.8,44.5,29.88,NNE,22,0.0,0.0,68,0.00,,---,0.00,VWS V14.01,2013-05-17 08:18:00,
2013-05-17 04:19:00,54.7,44.4,29.88,NNE,22,0.0,0.0,68,0.00,,---,0.00,VWS V14.01,2013-05-17 08:19:00,
2013-05-17 04:20:00,54.7,44.4,29.88,NNE,22,0.0,0.0,68,0.00,,---,0.00,VWS V14.01,2013-05-17 08:20:00,
2013-05-17 04:21:00,54.7,44.7,29.88,NNE,22,0.0,0.0,69,0.00,,---,0.00,VWS V14.01,2013-05-17 08:21:00,
2013-05-17 04:22:00,54.7,44.7,29.88,NNE,22,0.0,0.0,69,0.00,,---,0.00,VWS V14.01,2013-05-17 08:22:00,
2013-05-17 04:23:00,54.5,44.5,29.88,NNE,22,0.0,0.0,69,0.00,,---,0.00,VWS V14.01,2013-05-17 08:23:00,
2013-05-17 04:24:00,54.5,44.5,29.88,NNE,22,0.0,0.0,69,0.00,,---,0.00,VWS V14.01,2013-05-17 08:24:00,
2013-05-17 04:25:00,54.5,44.5,29.88,NNE,22,0.0,0.0,69,0.00,,---,0.00,VWS V14.01,2013-05-17 08:25:00,
2013-05-17 04:26:00,54.4,44.8,29.88,NNE,22,0.0,0.0,70,0.00,,---,0.00,VWS V14.01,2013-05-17 08:26:00,
2013-05-17 04:27:00,54.4,44.8,29.88,NNE,22,0.0,0.0,70,0.00,,---,0.00,VWS V14.01,2013-05-17 08:27:00,
2013-05-17 04:28:00,54.4,44.8,29.88,NNE,22,0.0,0.0,70,0.00,,---,0.00,VWS V14.01,2013-05-17 08:28:00,
2013-05-17 04:29:00,54.2,44.6,29.88,NNE,22,0.0,0.0,70,0.00,,---,0.00,VWS V14.01,2013-05-17 08:29:00,
2013-05-17 04:30:00,54.2,45.0,29.89,NNE,22,0.0,0.0,71,0.00,,---,0.00,VWS V14.01,2013-05-17 08:30:00,
2013-05-17 04:31:00,54.1,44.9,29.89,NNE,22,0.0,0.0,71,0.00,,---,0.00,VWS V14.01,2013-05-17 08:31:00,
2013-05-17 04:32:00,54.1,44.9,29.89,NNE,22,0.0,0.0,71,0.00,,---,0.00,VWS V14.01,2013-05-17 08:32:00,
2013-05-17 04:33:00,54.1,44.9,29.89,NNE,22,0.0,0.0,71,0.00,,---,0.00,VWS V14.01,2013-05-17 08:33:00,
2013-05-17 04:34:00,53.9,44.7,29.89,NNE,22,0.0,0.0,71,0.00,,---,0.00,VWS V14.01,2013-05-17 08:34:00,
2013-05-17 04:35:00,53.9,44.7,29.89,NNE,22,0.0,0.0,71,0.00,,---,0.00,VWS V14.01,2013-05-17 08:35:00,
2013-05-17 04:36:00,53.9,45.1,29.89,NNE,22,0.0,0.0,72,0.00,,---,0.00,VWS V14.01,2013-05-17 08:36:00,
2013-05-17 04:37:00,53.8,45.0,29.89,NNE,22,0.0,0.0,72,0.00,,---,0.00,VWS V14.01,2013-05-17 08:37:00,
2013-05-17 04:38:00,53.8,45.0,29.89,NNE,22,0.0,0.0,72,0.00,,---,0.00,VWS V14.01,2013-05-17 08:38:00,
2013-05-17 04:39:00,53.6,44.8,29.89,NNE,22,0.0,0.0,72,0.00,,---,0.00,VWS V14.01,2013-05-17 08:39:00,
2013-05-17 04:40:00,53.6,44.8,29.89,NNE,22,0.0,0.0,72,0.00,,---,0.00,VWS V14.01,2013-05-17 08:40:00,
2013-05-17 04:41:00,53.6,44.8,29.89,NNE,22,0.0,0.0,72,0.00,,---,0.00,VWS V14.01,2013-05-17 08:41:00,
2013-05-17 04:42:00,53.5,44.7,29.89,NNE,22,0.0,0.0,72,0.00,,---,0.00,VWS V14.01,2013-05-17 08:42:00,
2013-05-17 04:43:00,53.5,44.7,29.89,NNE,22,0.0,0.0,72,0.00,,---,0.00,VWS V14.01,2013-05-17 08:43:00,
2013-05-17 04:44:00,53.5,45.1,29.89,NNE,22,0.0,0.0,73,0.00,,---,0.00,VWS V14.01,2013-05-17 08:44:00,
2013-05-17 04:45:00,53.5,45.1,29.90,NNE,22,0.0,0.0,73,0.00,,---,0.00,VWS V14.01,2013-05-17 08:45:00,
2013-05-17 04:46:00,53.3,44.9,29.90,NNE,22,0.0,0.0,73,0.00,,---,0.00,VWS V14.01,2013-05-17 08:46:00,
2013-05-17 04:47:00,53.3,44.9,29.90,NNE,22,0.0,0.0,73,0.00,,---,0.00,VWS V14.01,2013-05-17 08:47:00,
2013-05-17 04:48:00,53.2,44.8,29.90,NNE,22,0.0,0.0,73,0.00,,---,0.00,VWS V14.01,2013-05-17 08:48:00,
2013-05-17 04:49:00,53.2,44.8,29.90,NNE,22,0.0,1.0,73,0.00,,---,0.00,VWS V14.01,2013-05-17 08:49:00,
2013-05-17 04:50:00,53.2,44.8,29.90,NNE,22,0.0,1.0,73,0.00,,---,0.00,VWS V14.01,2013-05-17 08:50:00,
2013-05-17 04:51:00,53.1,44.7,29.90,NNE,22,0.0,0.0,73,0.00,,---,0.00,VWS V14.01,2013-05-17 08:51:00,
2013-05-17 04:52:00,53.1,45.0,29.90,NNE,22,0.0,0.0,74,0.00,,---,0.00,VWS V14.01,2013-05-17 08:52:00,
2013-05-17 04:53:00,52.9,44.8,29.90,NNE,22,0.0,0.0,74,0.00,,---,0.00,VWS V14.01,2013-05-17 08:53:00,
2013-05-17 04:54:00,52.9,44.8,29.90,NNE,22,0.0,0.0,74,0.00,,---,0.00,VWS V14.01,2013-05-17 08:54:00,
2013-05-17 04:55:00,52.9,44.8,29.90,NNE,22,0.0,0.0,74,0.00,,---,0.00,VWS V14.01,2013-05-17 08:55:00,
2013-05-17 04:56:00,52.8,44.8,29.90,NNE,22,0.0,0.0,74,0.00,,---,0.00,VWS V14.01,2013-05-17 08:56:00,
2013-05-17 04:57:00,52.8,44.8,29.90,NNE,22,0.0,0.0,74,0.00,,---,0.00,VWS V14.01,2013-05-17 08:57:00,
2013-05-17 04:58:00,52.8,44.8,29.90,NNE,22,0.0,0.0,74,0.00,,---,0.00,VWS V14.01,2013-05-17 08:58:00,
2013-05-17 04:59:00,52.6,44.9,29.90,NNE,22,0.0,0.0,75,0.00,,---,0.00,VWS V14.01,2013-05-17 08:59:00,
2013-05-17 05:00:00,52.6,44.9,29.90,NNE,22,0.0,0.0,75,0.00,,---,0.00,VWS V14.01,2013-05-17 09:00:00,
2013-05-17 05:01:00,52.6,44.9,29.90,NNE,22,0.0,0.0,75,0.00,,---,0.00,VWS V14.01,2013-05-17 09:01:00,
2013-05-17 05:02:00,52.6,44.9,29.90,NNE,22,0.0,0.0,75,0.00,,---,0.00,VWS V14.01,2013-05-17 09:02:00,
2013-05-17 05:03:00,52.5,44.8,29.90,NNE,22,0.0,0.0,75,0.00,,---,0.00,VWS V14.01,2013-05-17 09:03:00,
2013-05-17 05:04:00,52.5,44.8,29.90,NNE,22,0.0,0.0,75,0.00,,---,0.00,VWS V14.01,2013-05-17 09:04:00,
2013-05-17 05:05:00,52.5,45.2,29.90,NNE,22,0.0,0.0,76,0.00,,---,0.00,VWS V14.01,2013-05-17 09:05:00,
2013-05-17 05:06:00,52.5,45.2,29.90,NNE,22,0.0,0.0,76,0.00,,---,0.00,VWS V14.01,2013-05-17 09:06:00,
2013-05-17 05:07:00,52.3,45.0,29.90,NNE,22,0.0,0.0,76,0.00,,---,0.00,VWS V14.01,2013-05-17 09:07:00,
2013-05-17 05:08:00,52.3,45.0,29.90,NNE,22,0.0,0.0,76,0.00,,---,0.00,VWS V14.01,2013-05-17 09:08:00,
2013-05-17 05:09:00,52.3,45.0,29.90,NNE,22,0.0,0.0,76,0.00,,---,0.00,VWS V14.01,2013-05-17 09:09:00,
2013-05-17 05:10:00,52.2,44.9,29.90,NNE,22,0.0,0.0,76,0.00,,---,0.00,VWS V14.01,2013-05-17 09:10:00,
2013-05-17 05:11:00,52.2,44.9,29.90,NNE,22,0.0,0.0,76,0.00,,---,0.00,VWS V14.01,2013-05-17 09:11:00,
2013-05-17 05:12:00,52.2,45.2,29.90,NNE,22,0.0,0.0,77,0.00,,---,0.00,VWS V14.01,2013-05-17 09:12:00,
2013-05-17 05:13:00,52.2,45.2,29.90,NNE,22,0.0,0.0,77,0.00,,---,0.00,VWS V14.01,2013-05-17 09:13:00,
2013-05-17 05:14:00,52.2,45.2,29.90,NNE,22,0.0,0.0,77,0.00,,---,0.00,VWS V14.01,2013-05-17 09:14:00,
2013-05-17 05:15:00,52.2,45.2,29.91,NNE,22,0.0,0.0,77,0.00,,---,0.00,VWS V14.01,2013-05-17 09:15:00,
2013-05-17 05:16:00,52.2,45.2,29.91,NNE,22,0.0,0.0,77,0.00,,---,0.00,VWS V14.01,2013-05-17 09:16:00,
2013-05-17 05:17:00,52.0,45.0,29.91,NNE,22,0.0,0.0,77,0.00,,---,0.00,VWS V14.01,2013-05-17 09:17:00,
2013-05-17 05:18:00,52.0,45.0,29.91,NNE,22,0.0,0.0,77,0.00,,---,0.00,VWS V14.01,2013-05-17 09:18:00,
2013-05-17 05:19:00,52.0,45.4,29.91,NNE,22,0.0,0.0,78,0.00,,---,0.00,VWS V14.01,2013-05-17 09:19:00,
2013-05-17 05:20:00,52.0,45.4,29.91,NNE,22,0.0,0.0,78,0.00,,---,0.00,VWS V14.01,2013-05-17 09:20:00,
2013-05-17 05:21:00,52.0,45.4,29.91,NNE,22,0.0,0.0,78,0.00,,---,0.00,VWS V14.01,2013-05-17 09:21:00,
2013-05-17 05:22:00,52.0,45.4,29.91,NNE,22,0.0,0.0,78,0.00,,---,0.00,VWS V14.01,2013-05-17 09:22:00,
2013-05-17 05:23:00,51.9,45.3,29.91,NNE,22,0.0,0.0,78,0.00,,---,0.00,VWS V14.01,2013-05-17 09:23:00,
2013-05-17 05:24:00,51.9,45.3,29.91,NNE,22,0.0,0.0,78,0.00,,---,0.00,VWS V14.01,2013-05-17 09:24:00,
2013-05-17 05:25:00,51.9,45.3,29.91,NNE,22,0.0,0.0,78,0.00,,---,0.00,VWS V14.01,2013-05-17 09:25:00,
2013-05-17 05:26:00,51.9,45.3,29.91,NNE,22,0.0,0.0,78,0.00,,---,0.00,VWS V14.01,2013-05-17 09:26:00,
2013-05-17 05:27:00,51.9,45.3,29.91,NNE,22,0.0,0.0,78,0.00,,---,0.00,VWS V14.01,2013-05-17 09:27:00,
2013-05-17 05:28:00,51.9,44.9,29.91,NNE,22,0.0,0.0,77,0.00,,---,0.00,VWS V14.01,2013-05-17 09:28:00,
2013-05-17 05:29:00,51.9,45.3,29.91,NNE,22,0.0,0.0,78,0.00,,---,0.00,VWS V14.01,2013-05-17 09:29:00,
2013-05-17 05:30:00,52.0,45.4,29.93,NNE,22,0.0,0.0,78,0.00,,---,0.00,VWS V14.01,2013-05-17 09:30:00,
2013-05-17 05:31:00,52.0,45.4,29.93,NNE,22,0.0,0.0,78,0.00,,---,0.00,VWS V14.01,2013-05-17 09:31:00,
2013-05-17 05:32:00,52.0,45.4,29.93,NNE,22,0.0,0.0,78,0.00,,---,0.00,VWS V14.01,2013-05-17 09:32:00,
2013-05-17 05:33:00,52.0,45.0,29.93,NNE,22,0.0,0.0,77,0.00,,---,0.00,VWS V14.01,2013-05-17 09:33:00,
2013-05-17 05:34:00,52.2,45.6,29.93,NNE,22,0.0,0.0,78,0.00,,---,0.00,VWS V14.01,2013-05-17 09:34:00,
2013-05-17 05:35:00,52.2,45.2,29.93,NNE,22,0.0,0.0,77,0.00,,---,0.00,VWS V14.01,2013-05-17 09:35:00,
2013-05-17 05:36:00,52.2,45.2,29.93,NNE,22,0.0,2.0,77,0.00,,---,0.00,VWS V14.01,2013-05-17 09:36:00,
2013-05-17 05:37:00,52.2,45.2,29.93,NNE,22,0.0,2.0,77,0.00,,---,0.00,VWS V14.01,2013-05-17 09:37:00,
2013-05-17 05:38:00,52.3,45.3,29.93,NNE,22,0.0,2.0,77,0.00,,---,0.00,VWS V14.01,2013-05-17 09:38:00,
2013-05-17 05:39:00,52.3,45.3,29.93,NNE,22,0.0,2.0,77,0.00,,---,0.00,VWS V14.01,2013-05-17 09:39:00,
2013-05-17 05:40:00,52.5,45.5,29.93,NNE,22,0.0,2.0,77,0.00,,---,0.00,VWS V14.01,2013-05-17 09:40:00,
2013-05-17 05:41:00,52.5,45.5,29.93,NNE,22,0.0,0.0,77,0.00,,---,0.00,VWS V14.01,2013-05-17 09:41:00,
2013-05-17 05:42:00,52.5,45.5,29.93,NNE,22,0.0,0.0,77,0.00,,---,0.00,VWS V14.01,2013-05-17 09:42:00,
2013-05-17 05:43:00,52.6,45.3,29.93,NNE,22,0.0,0.0,76,0.00,,---,0.00,VWS V14.01,2013-05-17 09:43:00,
2013-05-17 05:44:00,52.6,45.3,29.93,NNE,22,0.0,0.0,76,0.00,,---,0.00,VWS V14.01,2013-05-17 09:44:00,
2013-05-17 05:45:00,52.8,45.5,29.93,NNE,22,0.0,0.0,76,0.00,,---,0.00,VWS V14.01,2013-05-17 09:45:00,
2013-05-17 05:46:00,52.8,45.5,29.93,NNE,22,0.0,0.0,76,0.00,,---,0.00,VWS V14.01,2013-05-17 09:46:00,
2013-05-17 05:47:00,52.9,45.5,29.93,NNE,22,0.0,0.0,76,0.00,,---,0.00,VWS V14.01,2013-05-17 09:47:00,
2013-05-17 05:48:00,52.9,45.5,29.93,NNE,22,0.0,0.0,76,0.00,,---,0.00,VWS V14.01,2013-05-17 09:48:00,
2013-05-17 05:49:00,53.1,45.8,29.93,NNE,22,0.0,0.0,76,0.00,,---,0.00,VWS V14.01,2013-05-17 09:49:00,
2013-05-17 05:50:00,53.2,45.5,29.93,NNE,22,0.0,0.0,75,0.00,,---,0.00,VWS V14.01,2013-05-17 09:50:00,
2013-05-17 05:51:00,53.2,45.5,29.93,NNE,22,0.0,0.0,75,0.00,,---,0.00,VWS V14.01,2013-05-17 09:51:00,
2013-05-17 05:52:00,53.3,45.6,29.93,NNE,22,0.0,0.0,75,0.00,,---,0.00,VWS V14.01,2013-05-17 09:52:00,
2013-05-17 05:53:00,53.3,45.6,29.93,NNE,22,0.0,0.0,75,0.00,,---,0.00,VWS V14.01,2013-05-17 09:53:00,
2013-05-17 05:54:00,53.5,45.8,29.93,NNE,22,0.0,0.0,75,0.00,,---,0.00,VWS V14.01,2013-05-17 09:54:00,
2013-05-17 05:55:00,53.5,45.8,29.93,NNE,22,0.0,0.0,75,0.00,,---,0.00,VWS V14.01,2013-05-17 09:55:00,
2013-05-17 05:56:00,53.6,45.5,29.93,NNE,22,0.0,0.0,74,0.00,,---,0.00,VWS V14.01,2013-05-17 09:56:00,
2013-05-17 05:57:00,53.8,45.7,29.93,NNE,22,0.0,0.0,74,0.00,,---,0.00,VWS V14.01,2013-05-17 09:57:00,
2013-05-17 05:58:00,53.8,45.7,29.93,NNE,22,0.0,0.0,74,0.00,,---,0.00,VWS V14.01,2013-05-17 09:58:00,
2013-05-17 05:59:00,53.9,45.8,29.93,NNE,22,0.0,0.0,74,0.00,,---,0.00,VWS V14.01,2013-05-17 09:59:00,
2013-05-17 06:00:00,54.1,46.0,29.94,NNE,22,0.0,0.0,74,0.00,,---,0.00,VWS V14.01,2013-05-17 10:00:00,
2013-05-17 06:01:00,54.1,45.7,29.94,NNE,22,0.0,0.0,73,0.00,,---,0.00,VWS V14.01,2013-05-17 10:01:00,
2013-05-17 06:02:00,54.2,45.8,29.94,NNE,22,0.0,0.0,73,0.00,,---,0.00,VWS V14.01,2013-05-17 10:02:00,
2013-05-17 06:03:00,54.2,45.8,29.94,NNE,22,0.0,1.0,73,0.00,,---,0.00,VWS V14.01,2013-05-17 10:03:00,
2013-05-17 06:04:00,54.4,45.9,29.94,NNE,22,0.0,1.0,73,0.00,,---,0.00,VWS V14.01,2013-05-17 10:04:00,
2013-05-17 06:05:00,54.5,46.0,29.94,NNE,22,0.0,1.0,73,0.00,,---,0.00,VWS V14.01,2013-05-17 10:05:00,
2013-05-17 06:06:00,54.5,45.7,29.94,NNE,22,1.0,1.0,72,0.00,,---,0.00,VWS V14.01,2013-05-17 10:06:00,
2013-05-17 06:07:00,54.7,45.9,29.94,NNE,22,0.0,1.0,72,0.00,,---,0.00,VWS V14.01,2013-05-17 10:07:00,
2013-05-17 06:08:00,54.7,45.9,29.94,NNE,22,0.0,1.0,72,0.00,,---,0.00,VWS V14.01,2013-05-17 10:08:00,
2013-05-17 06:09:00,54.8,45.6,29.94,NNE,22,0.0,1.0,71,0.00,,---,0.00,VWS V14.01,2013-05-17 10:09:00,
2013-05-17 06:10:00,54.8,45.6,29.94,NNE,22,0.0,1.0,71,0.00,,---,0.00,VWS V14.01,2013-05-17 10:10:00,
2013-05-17 06:11:00,55.0,45.4,29.94,NNE,22,0.0,1.0,70,0.00,,---,0.00,VWS V14.01,2013-05-17 10:11:00,
2013-05-17 06:12:00,55.1,45.5,29.94,NNE,22,0.0,1.0,70,0.00,,---,0.00,VWS V14.01,2013-05-17 10:12:00,
2013-05-17 06:13:00,55.1,45.1,29.94,NNE,22,0.0,1.0,69,0.00,,---,0.00,VWS V14.01,2013-05-17 10:13:00,
2013-05-17 06:14:00,55.3,45.3,29.94,NNE,22,0.0,3.0,69,0.00,,---,0.00,VWS V14.01,2013-05-17 10:14:00,
2013-05-17 06:15:00,55.4,45.4,29.95,NNE,22,0.0,3.0,69,0.00,,---,0.00,VWS V14.01,2013-05-17 10:15:00,
2013-05-17 06:16:00,55.6,45.6,29.95,NNE,22,0.0,2.0,69,0.00,,---,0.00,VWS V14.01,2013-05-17 10:16:00,
2013-05-17 06:17:00,55.6,45.2,29.95,NNE,22,2.0,2.0,68,0.00,,---,0.00,VWS V14.01,2013-05-17 10:17:00,
2013-05-17 06:18:00,55.7,45.3,29.95,NNE,22,0.0,2.0,68,0.00,,---,0.00,VWS V14.01,2013-05-17 10:18:00,
2013-05-17 06:19:00,55.9,45.5,29.95,NNE,22,0.0,2.0,68,0.00,,---,0.00,VWS V14.01,2013-05-17 10:19:00,
2013-05-17 06:20:00,55.9,45.5,29.95,NNE,22,0.0,2.0,68,0.00,,---,0.00,VWS V14.01,2013-05-17 10:20:00,
2013-05-17 06:21:00,56.0,45.6,29.95,NNE,21,1.0,3.0,68,0.00,,---,0.00,VWS V14.01,2013-05-17 10:21:00,
2013-05-17 06:22:00,56.2,45.4,29.95,West,269,0.0,7.0,67,0.00,,---,0.00,VWS V14.01,2013-05-17 10:22:00,
2013-05-17 06:23:00,56.2,45.0,29.95,West,269,0.0,7.0,66,0.00,,---,0.00,VWS V14.01,2013-05-17 10:23:00,
2013-05-17 06:24:00,56.3,45.1,29.95,West,269,0.0,7.0,66,0.00,,---,0.00,VWS V14.01,2013-05-17 10:24:00,
2013-05-17 06:25:00,56.5,45.3,29.95,West,269,0.0,7.0,66,0.00,,---,0.00,VWS V14.01,2013-05-17 10:25:00,
2013-05-17 06:26:00,56.5,45.3,29.95,West,269,0.0,0.0,66,0.00,,---,0.00,VWS V14.01,2013-05-17 10:26:00,
2013-05-17 06:27:00,56.6,45.4,29.95,West,271,0.0,1.0,66,0.00,,---,0.00,VWS V14.01,2013-05-17 10:27:00,
2013-05-17 06:28:00,56.6,45.0,29.95,NE,48,2.0,3.0,65,0.00,,---,0.00,VWS V14.01,2013-05-17 10:28:00,
2013-05-17 06:29:00,56.7,45.1,29.95,NE,46,1.0,3.0,65,0.00,,---,0.00,VWS V14.01,2013-05-17 10:29:00,
2013-05-17 06:30:00,56.9,44.9,29.95,NE,46,0.0,3.0,64,0.00,,---,0.00,VWS V14.01,2013-05-17 10:30:00,
2013-05-17 06:31:00,57.0,45.0,29.95,NE,46,0.0,1.0,64,0.00,,---,0.00,VWS V14.01,2013-05-17 10:31:00,
2013-05-17 06:32:00,57.0,45.0,29.95,NE,46,0.0,1.0,64,0.00,,---,0.00,VWS V14.01,2013-05-17 10:32:00,
2013-05-17 06:33:00,57.2,45.2,29.95,North,350,3.0,4.0,64,0.00,,---,0.00,VWS V14.01,2013-05-17 10:33:00,
2013-05-17 06:34:00,57.2,44.7,29.95,NW,309,3.0,5.0,63,0.00,,---,0.00,VWS V14.01,2013-05-17 10:34:00,
2013-05-17 06:35:00,57.3,44.8,29.95,WNW,303,0.0,5.0,63,0.00,,---,0.00,VWS V14.01,2013-05-17 10:35:00,
2013-05-17 06:36:00,57.3,44.8,29.95,NE,40,5.0,7.0,63,0.00,,---,0.00,VWS V14.01,2013-05-17 10:36:00,
2013-05-17 06:37:00,57.5,45.0,29.95,NE,42,3.0,7.0,63,0.00,,---,0.00,VWS V14.01,2013-05-17 10:37:00,
2013-05-17 06:38:00,57.5,45.0,29.95,NE,36,3.0,7.0,63,0.00,,---,0.00,VWS V14.01,2013-05-17 10:38:00,
2013-05-17 06:39:00,57.6,44.7,29.95,NNE,30,2.0,8.0,62,0.00,,---,0.00,VWS V14.01,2013-05-17 10:39:00,
2013-05-17 06:40:00,57.6,44.7,29.95,NNE,30,2.0,8.0,62,0.00,,---,0.00,VWS V14.01,2013-05-17 10:40:00,
2013-05-17 06:41:00,57.6,44.3,29.95,NNW,347,2.0,6.0,61,0.00,,---,0.00,VWS V14.01,2013-05-17 10:41:00,
2013-05-17 06:42:00,57.6,44.3,29.95,NE,35,1.0,6.0,61,0.00,,---,0.00,VWS V14.01,2013-05-17 10:42:00,
2013-05-17 06:43:00,57.6,44.7,29.95,NE,35,2.0,6.0,62,0.00,,---,0.00,VWS V14.01,2013-05-17 10:43:00,
2013-05-17 06:44:00,57.6,44.7,29.95,NE,35,2.0,6.0,62,0.00,,---,0.00,VWS V14.01,2013-05-17 10:44:00,
2013-05-17 06:45:00,57.6,44.7,29.96,NE,34,2.0,6.0,62,0.00,,---,0.00,VWS V14.01,2013-05-17 10:45:00,
2013-05-17 06:46:00,57.6,44.7,29.96,NW,319,3.0,6.0,62,0.00,,---,0.00,VWS V14.01,2013-05-17 10:46:00,
2013-05-17 06:47:00,57.8,44.5,29.96,NW,319,0.0,6.0,61,0.00,,---,0.00,VWS V14.01,2013-05-17 10:47:00,
2013-05-17 06:48:00,57.8,44.9,29.96,NW,319,0.0,6.0,62,0.00,,---,0.00,VWS V14.01,2013-05-17 10:48:00,
2013-05-17 06:49:00,57.8,44.5,29.96,NW,319,2.0,6.0,61,0.00,,---,0.00,VWS V14.01,2013-05-17 10:49:00,
2013-05-17 06:50:00,57.8,44.5,29.96,NW,318,3.0,6.0,61,0.00,,---,0.00,VWS V14.01,2013-05-17 10:50:00,
2013-05-17 06:51:00,57.8,44.5,29.96,NW,323,3.0,4.0,61,0.00,,---,0.00,VWS V14.01,2013-05-17 10:51:00,
2013-05-17 06:52:00,57.8,44.5,29.96,North,360,4.0,5.0,61,0.00,,---,0.00,VWS V14.01,2013-05-17 10:52:00,
2013-05-17 06:53:00,57.8,44.5,29.96,North,360,0.0,5.0,61,0.00,,---,0.00,VWS V14.01,2013-05-17 10:53:00,
2013-05-17 06:54:00,58.0,44.6,29.96,NE,43,2.0,7.0,61,0.00,,---,0.00,VWS V14.01,2013-05-17 10:54:00,
2013-05-17 06:55:00,58.0,44.6,29.96,NE,53,7.0,8.0,61,0.00,,---,0.00,VWS V14.01,2013-05-17 10:55:00,
2013-05-17 06:56:00,58.0,44.6,29.96,ENE,57,3.0,6.0,61,0.00,,---,0.00,VWS V14.01,2013-05-17 10:56:00,
2013-05-17 06:57:00,58.0,44.6,29.96,NNW,340,3.0,6.0,61,0.00,,---,0.00,VWS V14.01,2013-05-17 10:57:00,
2013-05-17 06:58:00,58.0,44.6,29.96,NNW,327,2.0,6.0,61,0.00,,---,0.00,VWS V14.01,2013-05-17 10:58:00,
2013-05-17 06:59:00,58.0,44.6,29.96,NNW,327,0.0,6.0,61,0.00,,---,0.00,VWS V14.01,2013-05-17 10:59:00,
2013-05-17 07:00:00,58.0,44.6,29.96,NNE,12,0.0,6.0,61,0.00,,---,0.00,VWS V14.01,2013-05-17 11:00:00,
2013-05-17 07:01:00,58.1,44.7,29.96,NNW,331,3.0,4.0,61,0.00,,---,0.00,VWS V14.01,2013-05-17 11:01:00,
2013-05-17 07:02:00,58.1,44.7,29.96,NW,316,0.0,4.0,61,0.00,,---,0.00,VWS V14.01,2013-05-17 11:02:00,
2013-05-17 07:03:00,58.1,44.7,29.96,NW,326,3.0,5.0,61,0.00,,---,0.00,VWS V14.01,2013-05-17 11:03:00,
2013-05-17 07:04:00,58.1,44.3,29.96,NNW,341,1.0,5.0,60,0.00,,---,0.00,VWS V14.01,2013-05-17 11:04:00,
2013-05-17 07:05:00,58.1,44.3,29.96,NNW,348,1.0,5.0,60,0.00,,---,0.00,VWS V14.01,2013-05-17 11:05:00,
2013-05-17 07:06:00,58.3,44.5,29.96,East,81,1.0,1.0,60,0.00,,---,0.00,VWS V14.01,2013-05-17 11:06:00,
2013-05-17 07:07:00,58.3,44.5,29.96,NNE,30,0.0,3.0,60,0.00,,---,0.00,VWS V14.01,2013-05-17 11:07:00,
2013-05-17 07:08:00,58.3,44.5,29.96,NNE,30,0.0,3.0,60,0.00,,---,0.00,VWS V14.01,2013-05-17 11:08:00,
2013-05-17 07:09:00,58.3,44.5,29.96,NNE,30,0.0,3.0,60,0.00,,---,0.00,VWS V14.01,2013-05-17 11:09:00,
2013-05-17 07:10:00,58.4,44.6,29.96,NNE,29,0.0,3.0,60,0.00,,---,0.00,VWS V14.01,2013-05-17 11:10:00,
2013-05-17 07:11:00,58.4,44.6,29.96,NNW,347,3.0,4.0,60,0.00,,---,0.00,VWS V14.01,2013-05-17 11:11:00,
2013-05-17 07:12:00,58.4,44.6,29.96,NNW,339,1.0,4.0,60,0.00,,---,0.00,VWS V14.01,2013-05-17 11:12:00,
2013-05-17 07:13:00,58.6,44.8,29.96,ENE,69,0.0,4.0,60,0.00,,---,0.00,VWS V14.01,2013-05-17 11:13:00,
2013-05-17 07:14:00,58.6,44.8,29.96,NNE,18,3.0,4.0,60,0.00,,---,0.00,VWS V14.01,2013-05-17 11:14:00,
2013-05-17 07:15:00,58.6,44.3,29.97,NNE,17,3.0,4.0,59,0.00,,---,0.00,VWS V14.01,2013-05-17 11:15:00,
2013-05-17 07:16:00,58.6,44.3,29.97,NW,319,4.0,5.0,59,0.00,,---,0.00,VWS V14.01,2013-05-17 11:16:00,
2013-05-17 07:17:00,58.6,44.3,29.97,NW,310,5.0,5.0,59,0.00,,---,0.00,VWS V14.01,2013-05-17 11:17:00,
2013-05-17 07:18:00,58.6,44.3,29.97,NNW,329,1.0,5.0,59,0.00,,---,0.00,VWS V14.01,2013-05-17 11:18:00,
2013-05-17 07:19:00,58.6,44.3,29.97,NNE,28,4.0,8.0,59,0.00,,---,0.00,VWS V14.01,2013-05-17 11:19:00,
2013-05-17 07:20:00,58.6,44.3,29.97,NNE,20,4.0,8.0,59,0.00,,---,0.00,VWS V14.01,2013-05-17 11:20:00,
2013-05-17 07:21:00,58.6,44.3,29.97,NNE,17,0.0,3.0,59,0.00,,---,0.00,VWS V14.01,2013-05-17 11:21:00,
2013-05-17 07:22:00,58.6,44.3,29.97,NW,315,6.0,7.0,59,0.00,,---,0.00,VWS V14.01,2013-05-17 11:22:00,
2013-05-17 07:23:00,58.6,44.3,29.97,NW,309,3.0,7.0,59,0.00,,---,0.00,VWS V14.01,2013-05-17 11:23:00,
2013-05-17 07:24:00,58.6,44.3,29.97,North,360,6.0,9.0,59,0.00,,---,0.00,VWS V14.01,2013-05-17 11:24:00,
2013-05-17 07:25:00,58.6,44.3,29.97,NNE,30,3.0,9.0,59,0.00,,---,0.00,VWS V14.01,2013-05-17 11:25:00,
2013-05-17 07:26:00,58.6,44.3,29.97,NNE,30,2.0,3.0,59,0.00,,---,0.00,VWS V14.01,2013-05-17 11:26:00,
2013-05-17 07:27:00,58.6,44.3,29.97,NW,321,0.0,5.0,59,0.00,,---,0.00,VWS V14.01,2013-05-17 11:27:00,
2013-05-17 07:28:00,58.6,44.3,29.97,NNW,344,4.0,5.0,59,0.00,,---,0.00,VWS V14.01,2013-05-17 11:28:00,
2013-05-17 07:29:00,58.6,44.8,29.97,NNE,32,4.0,5.0,60,0.00,,---,0.00,VWS V14.01,2013-05-17 11:29:00,
2013-05-17 07:30:00,58.6,44.8,29.97,NNE,32,0.0,5.0,60,0.00,,---,0.00,VWS V14.01,2013-05-17 11:30:00,
2013-05-17 07:31:00,58.6,44.3,29.97,North,350,2.0,4.0,59,0.00,,---,0.00,VWS V14.01,2013-05-17 11:31:00,
2013-05-17 07:32:00,58.6,44.3,29.97,NNE,24,1.0,4.0,59,0.00,,---,0.00,VWS V14.01,2013-05-17 11:32:00,
2013-05-17 07:33:00,58.6,44.3,29.97,NNW,334,3.0,4.0,59,0.00,,---,0.00,VWS V14.01,2013-05-17 11:33:00,
2013-05-17 07:34:00,58.6,44.3,29.97,North,360,4.0,4.0,59,0.00,,---,0.00,VWS V14.01,2013-05-17 11:34:00,
2013-05-17 07:35:00,58.7,44.4,29.97,NW,313,2.0,4.0,59,0.00,,---,0.00,VWS V14.01,2013-05-17 11:35:00,
2013-05-17 07:36:00,58.7,44.4,29.97,NNW,346,1.0,1.0,59,0.00,,---,0.00,VWS V14.01,2013-05-17 11:36:00,
2013-05-17 07:37:00,58.7,44.4,29.97,NW,311,7.0,7.0,59,0.00,,---,0.00,VWS V14.01,2013-05-17 11:37:00,
2013-05-17 07:38:00,58.7,44.4,29.97,NNW,335,0.0,7.0,59,0.00,,---,0.00,VWS V14.01,2013-05-17 11:38:00,
2013-05-17 07:39:00,58.7,44.4,29.97,NE,40,1.0,7.0,59,0.00,,---,0.00,VWS V14.01,2013-05-17 11:39:00,
2013-05-17 07:40:00,58.7,44.4,29.97,NE,40,0.0,7.0,59,0.00,,---,0.00,VWS V14.01,2013-05-17 11:40:00,
2013-05-17 07:41:00,58.9,44.6,29.97,West,274,3.0,5.0,59,0.00,,---,0.00,VWS V14.01,2013-05-17 11:41:00,
2013-05-17 07:42:00,58.9,44.2,29.97,NW,309,0.0,5.0,58,0.00,,---,0.00,VWS V14.01,2013-05-17 11:42:00,
2013-05-17 07:43:00,58.9,44.2,29.97,NW,309,0.0,5.0,58,0.00,,---,0.00,VWS V14.01,2013-05-17 11:43:00,
2013-05-17 07:44:00,58.9,44.6,29.97,NE,43,6.0,6.0,59,0.00,,---,0.00,VWS V14.01,2013-05-17 11:44:00,
2013-05-17 07:45:00,58.9,44.6,29.97,North,9,3.0,7.0,59,0.00,,---,0.00,VWS V14.01,2013-05-17 11:45:00,
2013-05-17 07:46:00,58.9,44.6,29.97,North,9,4.0,4.0,59,0.00,,---,0.00,VWS V14.01,2013-05-17 11:46:00,
2013-05-17 07:47:00,58.9,44.6,29.97,North,351,5.0,5.0,59,0.00,,---,0.00,VWS V14.01,2013-05-17 11:47:00,
2013-05-17 07:48:00,58.9,44.2,29.97,NNE,25,9.0,9.0,58,0.00,,---,0.00,VWS V14.01,2013-05-17 11:48:00,
2013-05-17 07:49:00,58.9,43.7,29.97,WNW,295,4.0,10.0,57,0.00,,---,0.00,VWS V14.01,2013-05-17 11:49:00,
2013-05-17 07:50:00,58.9,43.7,29.97,North,360,4.0,10.0,57,0.00,,---,0.00,VWS V14.01,2013-05-17 11:50:00,
2013-05-17 07:51:00,58.9,43.7,29.97,WNW,303,2.0,4.0,57,0.00,,---,0.00,VWS V14.01,2013-05-17 11:51:00,
2013-05-17 07:52:00,58.9,43.7,29.97,NNW,334,7.0,7.0,57,0.00,,---,0.00,VWS V14.01,2013-05-17 11:52:00,
2013-05-17 07:53:00,58.9,43.7,29.97,North,360,6.0,7.0,57,0.00,,---,0.00,VWS V14.01,2013-05-17 11:53:00,
2013-05-17 07:54:00,58.9,43.7,29.97,NNW,331,3.0,7.0,57,0.00,,---,0.00,VWS V14.01,2013-05-17 11:54:00,
2013-05-17 07:55:00,58.9,43.2,29.97,NW,325,5.0,8.0,56,0.00,,---,0.00,VWS V14.01,2013-05-17 11:55:00,
2013-05-17 07:56:00,58.9,43.2,29.97,North,360,1.0,7.0,56,0.00,,---,0.00,VWS V14.01,2013-05-17 11:56:00,
2013-05-17 07:57:00,58.9,42.8,29.97,NW,317,3.0,8.0,55,0.00,,---,0.00,VWS V14.01,2013-05-17 11:57:00,
2013-05-17 07:58:00,58.9,42.8,29.97,West,269,3.0,8.0,55,0.00,,---,0.00,VWS V14.01,2013-05-17 11:58:00,
2013-05-17 07:59:00,58.9,43.2,29.97,NW,313,0.0,8.0,56,0.00,,---,0.00,VWS V14.01,2013-05-17 11:59:00,
2013-05-17 08:00:00,58.9,42.8,29.97,West,265,1.0,8.0,55,0.00,,---,0.00,VWS V14.01,2013-05-17 12:00:00,
2013-05-17 08:01:00,58.9,43.2,29.97,North,350,2.0,5.0,56,0.00,,---,0.00,VWS V14.01,2013-05-17 12:01:00,
2013-05-17 08:02:00,58.9,43.2,29.97,NNW,348,1.0,5.0,56,0.00,,---,0.00,VWS V14.01,2013-05-17 12:02:00,
2013-05-17 08:03:00,58.9,43.2,29.97,NW,304,4.0,5.0,56,0.00,,---,0.00,VWS V14.01,2013-05-17 12:03:00,
2013-05-17 08:04:00,59.0,43.3,29.97,North,360,5.0,5.0,56,0.00,,---,0.00,VWS V14.01,2013-05-17 12:04:00,
2013-05-17 08:05:00,59.0,43.3,29.97,NNW,338,3.0,7.0,56,0.00,,---,0.00,VWS V14.01,2013-05-17 12:05:00,
2013-05-17 08:06:00,59.0,43.3,29.97,NNW,338,3.0,4.0,56,0.00,,---,0.00,VWS V14.01,2013-05-17 12:06:00,
2013-05-17 08:07:00,59.0,43.3,29.97,NNW,342,4.0,5.0,56,0.00,,---,0.00,VWS V14.01,2013-05-17 12:07:00,
2013-05-17 08:08:00,59.0,42.9,29.97,NNE,28,3.0,5.0,55,0.00,,---,0.00,VWS V14.01,2013-05-17 12:08:00,
2013-05-17 08:09:00,59.2,43.1,29.97,NNE,26,4.0,6.0,55,0.00,,---,0.00,VWS V14.01,2013-05-17 12:09:00,
2013-05-17 08:10:00,59.2,43.1,29.97,NNE,26,3.0,6.0,55,0.00,,---,0.00,VWS V14.01,2013-05-17 12:10:00,
2013-05-17 08:11:00,59.2,43.1,29.97,NNE,26,1.0,3.0,55,0.00,,---,0.00,VWS V14.01,2013-05-17 12:11:00,
2013-05-17 08:12:00,59.2,43.1,29.97,NNE,26,2.0,3.0,55,0.00,,---,0.00,VWS V14.01,2013-05-17 12:12:00,
2013-05-17 08:13:00,59.3,43.2,29.97,NW,323,5.0,5.0,55,0.00,,---,0.00,VWS V14.01,2013-05-17 12:13:00,
2013-05-17 08:14:00,59.3,43.6,29.97,North,351,6.0,7.0,56,0.00,,---,0.00,VWS V14.01,2013-05-17 12:14:00,
2013-05-17 08:15:00,59.3,42.7,29.98,North,351,1.0,7.0,54,0.00,,---,0.00,VWS V14.01,2013-05-17 12:15:00,
2013-05-17 08:16:00,59.5,42.9,29.98,West,272,3.0,3.0,54,0.00,,---,0.00,VWS V14.01,2013-05-17 12:16:00,
2013-05-17 08:17:00,59.5,42.9,29.98,West,267,9.0,10.0,54,0.00,,---,0.00,VWS V14.01,2013-05-17 12:17:00,
2013-05-17 08:18:00,59.5,42.9,29.98,NNW,332,4.0,10.0,54,0.00,,---,0.00,VWS V14.01,2013-05-17 12:18:00,
2013-05-17 08:19:00,59.5,42.9,29.98,NW,317,3.0,10.0,54,0.00,,---,0.00,VWS V14.01,2013-05-17 12:19:00,
2013-05-17 08:20:00,59.5,42.4,29.98,North,360,4.0,10.0,53,0.00,,---,0.00,VWS V14.01,2013-05-17 12:20:00,
2013-05-17 08:21:00,59.5,42.9,29.98,West,273,3.0,8.0,54,0.00,,---,0.00,VWS V14.01,2013-05-17 12:21:00,
2013-05-17 08:22:00,59.5,42.9,29.98,West,260,4.0,8.0,54,0.00,,---,0.00,VWS V14.01,2013-05-17 12:22:00,
2013-05-17 08:23:00,59.5,42.9,29.98,WSW,252,0.0,8.0,54,0.00,,---,0.00,VWS V14.01,2013-05-17 12:23:00,
2013-05-17 08:24:00,59.5,42.9,29.98,NW,307,4.0,8.0,54,0.00,,---,0.00,VWS V14.01,2013-05-17 12:24:00,
2013-05-17 08:25:00,59.5,42.9,29.98,NW,305,3.0,8.0,54,0.00,,---,0.00,VWS V14.01,2013-05-17 12:25:00,
2013-05-17 08:26:00,59.5,42.9,29.98,NNW,342,0.0,6.0,54,0.00,,---,0.00,VWS V14.01,2013-05-17 12:26:00,
2013-05-17 08:27:00,59.5,42.9,29.98,WNW,286,1.0,6.0,54,0.00,,---,0.00,VWS V14.01,2013-05-17 12:27:00,
2013-05-17 08:28:00,59.5,42.9,29.98,West,269,0.0,6.0,54,0.00,,---,0.00,VWS V14.01,2013-05-17 12:28:00,
2013-05-17 08:29:00,59.6,43.0,29.98,West,270,3.0,6.0,54,0.00,,---,0.00,VWS V14.01,2013-05-17 12:29:00,
2013-05-17 08:30:00,59.6,43.0,29.98,West,277,4.0,6.0,54,0.00,,---,0.00,VWS V14.01,2013-05-17 12:30:00,
2013-05-17 08:31:00,59.6,42.5,29.98,WNW,289,4.0,7.0,53,0.00,,---,0.00,VWS V14.01,2013-05-17 12:31:00,
2013-05-17 08:32:00,59.8,42.2,29.98,West,261,0.0,7.0,52,0.00,,---,0.00,VWS V14.01,2013-05-17 12:32:00,
2013-05-17 08:33:00,59.8,42.7,29.98,NW,319,1.0,7.0,53,0.00,,---,0.00,VWS V14.01,2013-05-17 12:33:00,
2013-05-17 08:34:00,59.8,42.7,29.98,WNW,283,4.0,7.0,53,0.00,,---,0.00,VWS V14.01,2013-05-17 12:34:00,
2013-05-17 08:35:00,59.9,42.7,29.98,WNW,286,0.0,7.0,53,0.00,,---,0.00,VWS V14.01,2013-05-17 12:35:00,
2013-05-17 08:36:00,59.9,42.7,29.98,West,281,3.0,8.0,53,0.00,,---,0.00,VWS V14.01,2013-05-17 12:36:00,
2013-05-17 08:37:00,59.9,42.7,29.98,NW,315,3.0,8.0,53,0.00,,---,0.00,VWS V14.01,2013-05-17 12:37:00,
2013-05-17 08:38:00,59.9,42.2,29.98,North,360,2.0,8.0,52,0.00,,---,0.00,VWS V14.01,2013-05-17 12:38:00,
2013-05-17 08:39:00,60.1,42.9,29.98,West,281,3.0,8.0,53,0.00,,---,0.00,VWS V14.01,2013-05-17 12:39:00,
2013-05-17 08:40:00,60.1,42.9,29.98,North,360,3.0,8.0,53,0.00,,---,0.00,VWS V14.01,2013-05-17 12:40:00,
2013-05-17 08:41:00,60.1,42.4,29.98,NE,50,4.0,4.0,52,0.00,,---,0.00,VWS V14.01,2013-05-17 12:41:00,
2013-05-17 08:42:00,60.1,42.4,29.98,West,274,2.0,4.0,52,0.00,,---,0.00,VWS V14.01,2013-05-17 12:42:00,
2013-05-17 08:43:00,60.2,43.0,29.98,West,281,6.0,6.0,53,0.00,,---,0.00,VWS V14.01,2013-05-17 12:43:00,
2013-05-17 08:44:00,60.2,42.5,29.98,NW,308,3.0,6.0,52,0.00,,---,0.00,VWS V14.01,2013-05-17 12:44:00,
2013-05-17 08:45:00,60.2,42.5,29.99,NW,309,2.0,6.0,52,0.00,,---,0.00,VWS V14.01,2013-05-17 12:45:00,
2013-05-17 08:46:00,60.2,43.0,29.99,WNW,299,3.0,6.0,53,0.00,,---,0.00,VWS V14.01,2013-05-17 12:46:00,
2013-05-17 08:47:00,60.2,42.5,29.99,NW,319,4.0,6.0,52,0.00,,---,0.00,VWS V14.01,2013-05-17 12:47:00,
2013-05-17 08:48:00,60.2,42.5,29.99,North,351,3.0,6.0,52,0.00,,---,0.00,VWS V14.01,2013-05-17 12:48:00,
2013-05-17 08:49:00,60.2,42.5,29.99,North,360,0.0,6.0,52,0.00,,---,0.00,VWS V14.01,2013-05-17 12:49:00,
2013-05-17 08:50:00,60.2,42.5,29.99,West,259,2.0,6.0,52,0.00,,---,0.00,VWS V14.01,2013-05-17 12:50:00,
2013-05-17 08:51:00,60.4,43.2,29.99,West,279,3.0,3.0,53,0.00,,---,0.00,VWS V14.01,2013-05-17 12:51:00,
2013-05-17 08:52:00,60.5,43.3,29.99,West,279,3.0,5.0,53,0.00,,---,0.00,VWS V14.01,2013-05-17 12:52:00,
2013-05-17 08:53:00,60.7,43.5,29.99,West,275,5.0,7.0,53,0.00,,---,0.00,VWS V14.01,2013-05-17 12:53:00,
2013-05-17 08:54:00,60.7,43.0,29.99,West,261,3.0,8.0,52,0.00,,---,0.00,VWS V14.01,2013-05-17 12:54:00,
2013-05-17 08:55:00,60.7,43.0,29.99,West,270,3.0,8.0,52,0.00,,---,0.00,VWS V14.01,2013-05-17 12:55:00,
2013-05-17 08:56:00,60.7,42.5,29.99,West,273,6.0,11.0,51,0.00,,---,0.00,VWS V14.01,2013-05-17 12:56:00,
2013-05-17 08:57:00,60.5,42.3,29.99,West,261,6.0,11.0,51,0.00,,---,0.00,VWS V14.01,2013-05-17 12:57:00,
2013-05-17 08:58:00,60.5,42.3,29.99,West,265,3.0,11.0,51,0.00,,---,0.00,VWS V14.01,2013-05-17 12:58:00,
2013-05-17 08:59:00,60.5,42.8,29.99,WNW,288,3.0,11.0,52,0.00,,---,0.00,VWS V14.01,2013-05-17 12:59:00,
2013-05-17 09:00:00,60.5,42.8,29.99,North,351,1.0,11.0,52,0.00,,---,0.00,VWS V14.01,2013-05-17 13:00:00,
2013-05-17 09:01:00,60.5,43.3,29.99,North,351,0.0,2.0,53,0.00,,---,0.00,VWS V14.01,2013-05-17 13:01:00,
2013-05-17 09:02:00,60.5,43.3,29.99,North,351,0.0,2.0,53,0.00,,---,0.00,VWS V14.01,2013-05-17 13:02:00,
2013-05-17 09:03:00,60.7,43.5,29.99,West,273,6.0,6.0,53,0.00,,---,0.00,VWS V14.01,2013-05-17 13:03:00,
2013-05-17 09:04:00,60.7,43.0,29.99,West,272,4.0,6.0,52,0.00,,---,0.00,VWS V14.01,2013-05-17 13:04:00,
2013-05-17 09:05:00,60.7,43.0,29.99,West,281,1.0,6.0,52,0.00,,---,0.00,VWS V14.01,2013-05-17 13:05:00,
2013-05-17 09:06:00,60.9,43.2,29.99,NW,312,0.0,2.0,52,0.00,,---,0.00,VWS V14.01,2013-05-17 13:06:00,
2013-05-17 09:07:00,60.9,43.2,29.99,NW,309,3.0,4.0,52,0.00,,---,0.00,VWS V14.01,2013-05-17 13:07:00,
2013-05-17 09:08:00,60.9,43.2,29.99,North,10,3.0,4.0,52,0.00,,---,0.00,VWS V14.01,2013-05-17 13:08:00,
2013-05-17 09:09:00,61.0,42.8,29.99,NNW,342,0.0,6.0,51,0.00,,---,0.00,VWS V14.01,2013-05-17 13:09:00,
2013-05-17 09:10:00,61.0,42.8,29.99,NNW,342,0.0,6.0,51,0.00,,---,0.00,VWS V14.01,2013-05-17 13:10:00,
2013-05-17 09:11:00,61.2,43.5,29.99,NNW,336,0.0,3.0,52,0.00,,---,0.00,VWS V14.01,2013-05-17 13:11:00,
2013-05-17 09:12:00,61.2,43.0,29.99,West,280,3.0,6.0,51,0.00,,---,0.00,VWS V14.01,2013-05-17 13:12:00,
2013-05-17 09:13:00,61.2,43.0,29.99,NNW,347,2.0,6.0,51,0.00,,---,0.00,VWS V14.01,2013-05-17 13:13:00,
2013-05-17 09:14:00,61.3,43.0,29.99,West,274,0.0,6.0,51,0.00,,---,0.00,VWS V14.01,2013-05-17 13:14:00,
2013-05-17 09:15:00,61.3,43.0,29.99,North,360,4.0,6.0,51,0.00,,---,0.00,VWS V14.01,2013-05-17 13:15:00,
2013-05-17 09:16:00,61.3,43.0,29.99,NW,316,2.0,5.0,51,0.00,,---,0.00,VWS V14.01,2013-05-17 13:16:00,
2013-05-17 09:17:00,61.3,43.0,29.99,NE,38,1.0,6.0,51,0.00,,---,0.00,VWS V14.01,2013-05-17 13:17:00,
2013-05-17 09:18:00,61.3,43.0,29.99,NE,35,2.0,6.0,51,0.00,,---,0.00,VWS V14.01,2013-05-17 13:18:00,
2013-05-17 09:19:00,61.5,43.2,29.99,WNW,299,2.0,6.0,51,0.00,,---,0.00,VWS V14.01,2013-05-17 13:19:00,
2013-05-17 09:20:00,61.5,42.7,29.99,WNW,303,1.0,6.0,50,0.00,,---,0.00,VWS V14.01,2013-05-17 13:20:00,
2013-05-17 09:21:00,61.5,43.2,29.99,ENE,63,1.0,3.0,51,0.00,,---,0.00,VWS V14.01,2013-05-17 13:21:00,
2013-05-17 09:22:00,61.6,43.3,29.99,NE,38,7.0,7.0,51,0.00,,---,0.00,VWS V14.01,2013-05-17 13:22:00,
2013-05-17 09:23:00,61.6,43.3,29.99,NE,37,3.0,7.0,51,0.00,,---,0.00,VWS V14.01,2013-05-17 13:23:00,
2013-05-17 09:24:00,61.6,43.3,29.99,North,360,7.0,8.0,51,0.00,,---,0.00,VWS V14.01,2013-05-17 13:24:00,
2013-05-17 09:25:00,61.6,42.8,29.99,NNE,13,4.0,8.0,50,0.00,,---,0.00,VWS V14.01,2013-05-17 13:25:00,
2013-05-17 09:26:00,61.6,42.8,29.99,NW,310,6.0,6.0,50,0.00,,---,0.00,VWS V14.01,2013-05-17 13:26:00,
2013-05-17 09:27:00,61.5,42.2,29.99,NW,326,2.0,10.0,49,0.00,,---,0.00,VWS V14.01,2013-05-17 13:27:00,
2013-05-17 09:28:00,61.5,42.7,29.99,NE,38,2.0,10.0,50,0.00,,---,0.00,VWS V14.01,2013-05-17 13:28:00,
2013-05-17 09:29:00,61.6,42.8,29.99,NE,38,0.0,10.0,50,0.00,,---,0.00,VWS V14.01,2013-05-17 13:29:00,
2013-05-17 09:30:00,61.8,43.5,29.99,NE,38,0.0,10.0,51,0.00,,---,0.00,VWS V14.01,2013-05-17 13:30:00,
2013-05-17 09:31:00,61.8,43.5,29.99,NE,38,1.0,3.0,51,0.00,,---,0.00,VWS V14.01,2013-05-17 13:31:00,
2013-05-17 09:32:00,62.0,43.2,29.99,NE,36,5.0,9.0,50,0.00,,---,0.00,VWS V14.01,2013-05-17 13:32:00,
2013-05-17 09:33:00,61.8,43.0,29.99,NNW,332,5.0,9.0,50,0.00,,---,0.00,VWS V14.01,2013-05-17 13:33:00,
2013-05-17 09:34:00,61.8,43.0,29.99,NNE,32,5.0,9.0,50,0.00,,---,0.00,VWS V14.01,2013-05-17 13:34:00,
2013-05-17 09:35:00,61.8,42.5,29.99,NE,35,2.0,9.0,49,0.00,,---,0.00,VWS V14.01,2013-05-17 13:35:00,
2013-05-17 09:36:00,61.8,42.5,29.99,NE,35,2.0,3.0,49,0.00,,---,0.00,VWS V14.01,2013-05-17 13:36:00,
2013-05-17 09:37:00,61.6,42.8,29.99,NNW,341,4.0,5.0,50,0.00,,---,0.00,VWS V14.01,2013-05-17 13:37:00,
2013-05-17 09:38:00,61.6,42.8,29.99,North,360,3.0,7.0,50,0.00,,---,0.00,VWS V14.01,2013-05-17 13:38:00,
2013-05-17 09:39:00,61.6,42.8,29.99,North,360,3.0,7.0,50,0.00,,---,0.00,VWS V14.01,2013-05-17 13:39:00,
2013-05-17 09:40:00,61.8,43.0,29.99,NNE,31,11.0,11.0,50,0.00,,---,0.00,VWS V14.01,2013-05-17 13:40:00,
2013-05-17 09:41:00,61.8,42.5,29.99,North,11,4.0,11.0,49,0.00,,---,0.00,VWS V14.01,2013-05-17 13:41:00,
2013-05-17 09:42:00,61.8,42.5,29.99,NNW,342,5.0,11.0,49,0.00,,---,0.00,VWS V14.01,2013-05-17 13:42:00,
2013-05-17 09:43:00,61.6,42.3,29.99,NNE,32,4.0,11.0,49,0.00,,---,0.00,VWS V14.01,2013-05-17 13:43:00,
2013-05-17 09:44:00,61.6,42.3,29.99,NNE,31,2.0,11.0,49,0.00,,---,0.00,VWS V14.01,2013-05-17 13:44:00,
2013-05-17 09:45:00,61.6,42.8,30.00,NNW,342,3.0,11.0,50,0.00,,---,0.00,VWS V14.01,2013-05-17 13:45:00,
2013-05-17 09:46:00,61.6,42.3,30.00,NNW,342,0.0,3.0,49,0.00,,---,0.00,VWS V14.01,2013-05-17 13:46:00,
2013-05-17 09:47:00,61.6,42.8,30.00,NNE,32,2.0,7.0,50,0.00,,---,0.00,VWS V14.01,2013-05-17 13:47:00,
2013-05-17 09:48:00,61.6,41.7,30.00,NNE,32,0.0,7.0,48,0.00,,---,0.00,VWS V14.01,2013-05-17 13:48:00,
2013-05-17 09:49:00,61.6,42.3,30.00,WNW,302,0.0,7.0,49,0.00,,---,0.00,VWS V14.01,2013-05-17 13:49:00,
2013-05-17 09:50:00,61.8,43.0,30.00,NE,48,10.0,10.0,50,0.00,,---,0.00,VWS V14.01,2013-05-17 13:50:00,
2013-05-17 09:51:00,61.6,42.3,30.00,NE,35,2.0,7.0,49,0.00,,---,0.00,VWS V14.01,2013-05-17 13:51:00,
2013-05-17 09:52:00,61.6,42.3,30.00,North,351,2.0,7.0,49,0.00,,---,0.00,VWS V14.01,2013-05-17 13:52:00,
2013-05-17 09:53:00,61.6,42.3,30.00,North,351,0.0,7.0,49,0.00,,---,0.00,VWS V14.01,2013-05-17 13:53:00,
2013-05-17 09:54:00,61.6,42.3,30.00,NNW,343,3.0,7.0,49,0.00,,---,0.00,VWS V14.01,2013-05-17 13:54:00,
2013-05-17 09:55:00,61.6,42.3,30.00,North,351,1.0,7.0,49,0.00,,---,0.00,VWS V14.01,2013-05-17 13:55:00,
2013-05-17 09:56:00,61.8,43.0,30.00,WNW,303,4.0,4.0,50,0.00,,---,0.00,VWS V14.01,2013-05-17 13:56:00,
2013-05-17 09:57:00,61.8,42.5,30.00,NNE,25,2.0,4.0,49,0.00,,---,0.00,VWS V14.01,2013-05-17 13:57:00,
2013-05-17 09:58:00,61.8,43.0,30.00,NE,36,5.0,5.0,50,0.00,,---,0.00,VWS V14.01,2013-05-17 13:58:00,
2013-05-17 09:59:00,62.0,43.2,30.00,North,351,3.0,7.0,50,0.00,,---,0.00,VWS V14.01,2013-05-17 13:59:00,
2013-05-17 10:00:00,62.0,42.6,30.00,NNE,17,4.0,7.0,49,0.00,,---,0.00,VWS V14.01,2013-05-17 14:00:00,
2013-05-17 10:01:00,62.0,42.6,30.00,NE,44,0.0,5.0,49,0.00,,---,0.00,VWS V14.01,2013-05-17 14:01:00,
2013-05-17 10:02:00,62.1,43.3,30.00,NE,44,5.0,5.0,50,0.00,,---,0.00,VWS V14.01,2013-05-17 14:02:00,
2013-05-17 10:03:00,62.1,42.7,30.00,NE,42,6.0,7.0,49,0.00,,---,0.00,VWS V14.01,2013-05-17 14:03:00,
2013-05-17 10:04:00,62.3,42.9,30.00,NW,313,4.0,7.0,49,0.00,,---,0.00,VWS V14.01,2013-05-17 14:04:00,
2013-05-17 10:05:00,62.3,42.4,30.00,NW,309,5.0,9.0,48,0.00,,---,0.00,VWS V14.01,2013-05-17 14:05:00,
2013-05-17 10:06:00,62.3,42.4,30.00,NE,50,6.0,7.0,48,0.00,,---,0.00,VWS V14.01,2013-05-17 14:06:00,
2013-05-17 10:07:00,62.3,42.4,30.00,NW,319,3.0,7.0,48,0.00,,---,0.00,VWS V14.01,2013-05-17 14:07:00,
2013-05-17 10:08:00,62.3,41.8,30.00,North,360,5.0,7.0,47,0.00,,---,0.00,VWS V14.01,2013-05-17 14:08:00,
2013-05-17 10:09:00,62.3,42.4,30.00,NE,39,1.0,7.0,48,0.00,,---,0.00,VWS V14.01,2013-05-17 14:09:00,
2013-05-17 10:10:00,62.1,42.7,30.00,NNE,32,4.0,7.0,49,0.00,,---,0.00,VWS V14.01,2013-05-17 14:10:00,
2013-05-17 10:11:00,62.3,42.4,30.00,NNE,25,3.0,3.0,48,0.00,,---,0.00,VWS V14.01,2013-05-17 14:11:00,
2013-05-17 10:12:00,62.1,42.2,30.00,NNE,28,5.0,10.0,48,0.00,,---,0.00,VWS V14.01,2013-05-17 14:12:00,
2013-05-17 10:13:00,62.1,42.7,30.00,NNE,29,6.0,10.0,49,0.00,,---,0.00,VWS V14.01,2013-05-17 14:13:00,
2013-05-17 10:14:00,62.1,42.2,30.00,NE,34,5.0,10.0,48,0.00,,---,0.00,VWS V14.01,2013-05-17 14:14:00,
2013-05-17 10:15:00,62.1,42.2,30.01,NNE,30,1.0,10.0,48,0.00,,---,0.00,VWS V14.01,2013-05-17 14:15:00,
2013-05-17 10:16:00,62.1,42.7,30.01,NW,311,0.0,4.0,49,0.00,,---,0.00,VWS V14.01,2013-05-17 14:16:00,
2013-05-17 10:17:00,62.1,42.2,30.01,West,276,1.0,6.0,48,0.00,,---,0.00,VWS V14.01,2013-05-17 14:17:00,
2013-05-17 10:18:00,62.1,42.7,30.01,NNE,22,1.0,6.0,49,0.00,,---,0.00,VWS V14.01,2013-05-17 14:18:00,
2013-05-17 10:19:00,62.3,42.4,30.01,ENE,60,3.0,6.0,48,0.00,,---,0.00,VWS V14.01,2013-05-17 14:19:00,
2013-05-17 10:20:00,62.3,42.4,30.01,NW,315,0.0,6.0,48,0.00,,---,0.00,VWS V14.01,2013-05-17 14:20:00,
2013-05-17 10:21:00,62.3,42.4,30.01,NNW,344,2.0,4.0,48,0.00,,---,0.00,VWS V14.01,2013-05-17 14:21:00,
2013-05-17 10:22:00,62.3,42.4,30.01,NNW,328,2.0,7.0,48,0.00,,---,0.00,VWS V14.01,2013-05-17 14:22:00,
2013-05-17 10:23:00,62.3,42.9,30.01,NNE,17,1.0,7.0,49,0.00,,---,0.00,VWS V14.01,2013-05-17 14:23:00,
2013-05-17 10:24:00,62.3,42.9,30.01,NNE,17,0.0,7.0,49,0.00,,---,0.00,VWS V14.01,2013-05-17 14:24:00,
2013-05-17 10:25:00,62.3,42.9,30.01,NNE,17,3.0,7.0,49,0.00,,---,0.00,VWS V14.01,2013-05-17 14:25:00,
2013-05-17 10:26:00,62.4,43.0,30.01,WNW,297,2.0,5.0,49,0.00,,---,0.00,VWS V14.01,2013-05-17 14:26:00,
2013-05-17 10:27:00,62.4,43.0,30.01,North,351,2.0,5.0,49,0.00,,---,0.00,VWS V14.01,2013-05-17 14:27:00,
2013-05-17 10:28:00,62.4,42.5,30.01,NNE,26,2.0,5.0,48,0.00,,---,0.00,VWS V14.01,2013-05-17 14:28:00,
2013-05-17 10:29:00,62.4,42.5,30.01,NNE,25,1.0,5.0,48,0.00,,---,0.00,VWS V14.01,2013-05-17 14:29:00,
2013-05-17 10:30:00,62.6,43.2,30.01,NE,51,4.0,5.0,49,0.00,,---,0.00,VWS V14.01,2013-05-17 14:30:00,
2013-05-17 10:31:00,62.6,43.2,30.01,North,360,5.0,8.0,49,0.00,,---,0.00,VWS V14.01,2013-05-17 14:31:00,
2013-05-17 10:32:00,62.6,42.7,30.01,NW,321,4.0,8.0,48,0.00,,---,0.00,VWS V14.01,2013-05-17 14:32:00,
2013-05-17 10:33:00,62.6,42.7,30.01,NW,306,6.0,9.0,48,0.00,,---,0.00,VWS V14.01,2013-05-17 14:33:00,
2013-05-17 10:34:00,62.6,42.7,30.01,NW,315,4.0,9.0,48,0.00,,---,0.00,VWS V14.01,2013-05-17 14:34:00,
2013-05-17 10:35:00,62.6,42.1,30.01,NNW,336,5.0,9.0,47,0.00,,---,0.00,VWS V14.01,2013-05-17 14:35:00,
2013-05-17 10:36:00,62.6,42.1,30.01,North,351,5.0,8.0,47,0.00,,---,0.00,VWS V14.01,2013-05-17 14:36:00,
2013-05-17 10:37:00,62.4,42.5,30.01,NNE,26,6.0,9.0,48,0.00,,---,0.00,VWS V14.01,2013-05-17 14:37:00,
2013-05-17 10:38:00,62.4,41.9,30.01,NNE,31,4.0,9.0,47,0.00,,---,0.00,VWS V14.01,2013-05-17 14:38:00,
2013-05-17 10:39:00,62.4,42.5,30.01,NNE,33,5.0,9.0,48,0.00,,---,0.00,VWS V14.01,2013-05-17 14:39:00,
2013-05-17 10:40:00,62.4,42.5,30.01,NE,37,2.0,9.0,48,0.00,,---,0.00,VWS V14.01,2013-05-17 14:40:00,
2013-05-17 10:41:00,62.4,42.5,30.01,ENE,67,10.0,10.0,48,0.00,,---,0.00,VWS V14.01,2013-05-17 14:41:00,
2013-05-17 10:42:00,62.4,41.9,30.01,NE,36,4.0,10.0,47,0.00,,---,0.00,VWS V14.01,2013-05-17 14:42:00,
2013-05-17 10:43:00,62.4,41.9,30.01,NNW,327,3.0,10.0,47,0.00,,---,0.00,VWS V14.01,2013-05-17 14:43:00,
2013-05-17 10:44:00,62.4,41.9,30.01,NNW,340,2.0,10.0,47,0.00,,---,0.00,VWS V14.01,2013-05-17 14:44:00,
2013-05-17 10:45:00,62.3,41.8,30.01,NE,34,4.0,10.0,47,0.00,,---,0.00,VWS V14.01,2013-05-17 14:45:00,
2013-05-17 10:46:00,62.3,41.8,30.01,NE,34,0.0,4.0,47,0.00,,---,0.00,VWS V14.01,2013-05-17 14:46:00,
2013-05-17 10:47:00,62.3,42.4,30.01,NE,34,0.0,4.0,48,0.00,,---,0.00,VWS V14.01,2013-05-17 14:47:00,
2013-05-17 10:48:00,62.3,42.4,30.01,NE,34,0.0,4.0,48,0.00,,---,0.00,VWS V14.01,2013-05-17 14:48:00,
2013-05-17 10:49:00,62.4,43.0,30.01,NE,34,2.0,4.0,49,0.00,,---,0.00,VWS V14.01,2013-05-17 14:49:00,
2013-05-17 10:50:00,62.4,43.0,30.01,NE,38,5.0,5.0,49,0.00,,---,0.00,VWS V14.01,2013-05-17 14:50:00,
2013-05-17 10:51:00,62.4,41.9,30.01,ENE,57,4.0,7.0,47,0.00,,---,0.00,VWS V14.01,2013-05-17 14:51:00,
2013-05-17 10:52:00,62.4,42.5,30.01,NNW,330,2.0,7.0,48,0.00,,---,0.00,VWS V14.01,2013-05-17 14:52:00,
2013-05-17 10:53:00,62.4,42.5,30.01,NNW,341,3.0,7.0,48,0.00,,---,0.00,VWS V14.01,2013-05-17 14:53:00,
2013-05-17 10:54:00,62.4,42.5,30.01,NW,313,4.0,7.0,48,0.00,,---,0.00,VWS V14.01,2013-05-17 14:54:00,
2013-05-17 10:55:00,62.4,42.5,30.01,NNW,331,3.0,7.0,48,0.00,,---,0.00,VWS V14.01,2013-05-17 14:55:00,
2013-05-17 10:56:00,62.4,41.9,30.01,NNW,331,0.0,4.0,47,0.00,,---,0.00,VWS V14.01,2013-05-17 14:56:00,
2013-05-17 10:57:00,62.6,42.7,30.01,North,5,4.0,8.0,48,0.00,,---,0.00,VWS V14.01,2013-05-17 14:57:00,
2013-05-17 10:58:00,62.6,42.7,30.01,NE,38,1.0,8.0,48,0.00,,---,0.00,VWS V14.01,2013-05-17 14:58:00,
2013-05-17 10:59:00,62.6,42.7,30.01,NNE,32,2.0,8.0,48,0.00,,---,0.00,VWS V14.01,2013-05-17 14:59:00,
2013-05-17 11:00:00,62.6,42.7,30.01,NNE,32,1.0,8.0,48,0.00,,---,0.00,VWS V14.01,2013-05-17 15:00:00,
2013-05-17 11:01:00,62.6,42.7,30.01,NNE,32,2.0,2.0,48,0.00,,---,0.00,VWS V14.01,2013-05-17 15:01:00,
2013-05-17 11:02:00,62.6,43.2,30.01,NNE,32,4.0,4.0,49,0.00,,---,0.00,VWS V14.01,2013-05-17 15:02:00,
2013-05-17 11:03:00,62.6,43.2,30.01,NNE,32,1.0,4.0,49,0.00,,---,0.00,VWS V14.01,2013-05-17 15:03:00,
2013-05-17 11:04:00,62.7,43.3,30.01,NW,325,5.0,7.0,49,0.00,,---,0.00,VWS V14.01,2013-05-17 15:04:00,
2013-05-17 11:05:00,62.7,42.8,30.01,North,349,2.0,8.0,48,0.00,,---,0.00,VWS V14.01,2013-05-17 15:05:00,
2013-05-17 11:06:00,62.7,42.8,30.01,North,349,3.0,3.0,48,0.00,,---,0.00,VWS V14.01,2013-05-17 15:06:00,
2013-05-17 11:07:00,62.7,42.8,30.01,NNE,24,3.0,5.0,48,0.00,,---,0.00,VWS V14.01,2013-05-17 15:07:00,
2013-05-17 11:08:00,62.9,42.9,30.01,NW,306,2.0,5.0,48,0.00,,---,0.00,VWS V14.01,2013-05-17 15:08:00,
2013-05-17 11:09:00,62.9,41.8,30.01,NW,306,2.0,5.0,46,0.00,,---,0.00,VWS V14.01,2013-05-17 15:09:00,
2013-05-17 11:10:00,62.9,42.9,30.01,NE,40,2.0,5.0,48,0.00,,---,0.00,VWS V14.01,2013-05-17 15:10:00,
2013-05-17 11:11:00,62.9,42.4,30.01,NE,40,0.0,1.0,47,0.00,,---,0.00,VWS V14.01,2013-05-17 15:11:00,
2013-05-17 11:12:00,62.9,42.4,30.01,NE,38,1.0,4.0,47,0.00,,---,0.00,VWS V14.01,2013-05-17 15:12:00,
2013-05-17 11:13:00,63.1,42.6,30.01,North,351,4.0,5.0,47,0.00,,---,0.00,VWS V14.01,2013-05-17 15:13:00,
2013-05-17 11:14:00,63.1,42.6,30.01,NNE,15,0.0,6.0,47,0.00,,---,0.00,VWS V14.01,2013-05-17 15:14:00,
2013-05-17 11:15:00,63.2,43.2,30.01,NNE,31,3.0,8.0,48,0.00,,---,0.00,VWS V14.01,2013-05-17 15:15:00,
2013-05-17 11:16:00,63.2,42.7,30.01,NNE,28,3.0,6.0,47,0.00,,---,0.00,VWS V14.01,2013-05-17 15:16:00,
2013-05-17 11:17:00,63.2,42.7,30.01,NE,42,4.0,6.0,47,0.00,,---,0.00,VWS V14.01,2013-05-17 15:17:00,
2013-05-17 11:18:00,63.2,43.2,30.01,NNE,15,2.0,6.0,48,0.00,,---,0.00,VWS V14.01,2013-05-17 15:18:00,
2013-05-17 11:19:00,63.4,42.8,30.01,North,350,2.0,6.0,47,0.00,,---,0.00,VWS V14.01,2013-05-17 15:19:00,
2013-05-17 11:20:00,63.4,43.4,30.01,North,350,1.0,6.0,48,0.00,,---,0.00,VWS V14.01,2013-05-17 15:20:00,
2013-05-17 11:21:00,63.4,43.4,30.01,NE,38,6.0,9.0,48,0.00,,---,0.00,VWS V14.01,2013-05-17 15:21:00,
2013-05-17 11:22:00,63.4,42.3,30.01,NW,310,2.0,9.0,46,0.00,,---,0.00,VWS V14.01,2013-05-17 15:22:00,
2013-05-17 11:23:00,63.4,42.8,30.01,NNE,24,2.0,9.0,47,0.00,,---,0.00,VWS V14.01,2013-05-17 15:23:00,
2013-05-17 11:24:00,63.4,42.3,30.01,NNE,19,3.0,10.0,46,0.00,,---,0.00,VWS V14.01,2013-05-17 15:24:00,
2013-05-17 11:25:00,63.4,42.8,30.01,North,5,3.0,10.0,47,0.00,,---,0.00,VWS V14.01,2013-05-17 15:25:00,
2013-05-17 11:26:00,63.4,42.8,30.01,North,360,2.0,5.0,47,0.00,,---,0.00,VWS V14.01,2013-05-17 15:26:00,
2013-05-17 11:27:00,63.5,42.9,30.01,WNW,293,6.0,7.0,47,0.00,,---,0.00,VWS V14.01,2013-05-17 15:27:00,
2013-05-17 11:28:00,63.5,42.9,30.01,NNW,333,8.0,14.0,47,0.00,,---,0.00,VWS V14.01,2013-05-17 15:28:00,
2013-05-17 11:29:00,63.5,42.9,30.01,NNW,328,3.0,14.0,47,0.00,,---,0.00,VWS V14.01,2013-05-17 15:29:00,
2013-05-17 11:30:00,63.5,42.9,30.01,NNW,328,0.0,14.0,47,0.00,,---,0.00,VWS V14.01,2013-05-17 15:30:00,
2013-05-17 11:31:00,63.5,42.4,30.01,NE,40,5.0,6.0,46,0.00,,---,0.00,VWS V14.01,2013-05-17 15:31:00,
2013-05-17 11:32:00,63.5,42.9,30.01,NW,308,5.0,9.0,47,0.00,,---,0.00,VWS V14.01,2013-05-17 15:32:00,
2013-05-17 11:33:00,63.5,42.4,30.01,North,360,1.0,9.0,46,0.00,,---,0.00,VWS V14.01,2013-05-17 15:33:00,
2013-05-17 11:34:00,63.7,43.1,30.01,North,360,2.0,9.0,47,0.00,,---,0.00,VWS V14.01,2013-05-17 15:34:00,
2013-05-17 11:35:00,63.7,43.1,30.01,NE,36,3.0,9.0,47,0.00,,---,0.00,VWS V14.01,2013-05-17 15:35:00,
2013-05-17 11:36:00,63.7,43.1,30.01,NE,36,3.0,3.0,47,0.00,,---,0.00,VWS V14.01,2013-05-17 15:36:00,
2013-05-17 11:37:00,63.7,43.1,30.01,NNE,15,0.0,4.0,47,0.00,,---,0.00,VWS V14.01,2013-05-17 15:37:00,
2013-05-17 11:38:00,63.9,42.7,30.01,NE,35,3.0,5.0,46,0.00,,---,0.00,VWS V14.01,2013-05-17 15:38:00,
2013-05-17 11:39:00,63.9,43.3,30.01,NE,35,2.0,6.0,47,0.00,,---,0.00,VWS V14.01,2013-05-17 15:39:00,
2013-05-17 11:40:00,63.9,41.6,30.01,NE,35,0.0,6.0,44,0.00,,---,0.00,VWS V14.01,2013-05-17 15:40:00,
2013-05-17 11:41:00,63.9,42.7,30.01,NNW,329,4.0,7.0,46,0.00,,---,0.00,VWS V14.01,2013-05-17 15:41:00,
2013-05-17 11:42:00,63.9,42.2,30.01,North,360,2.0,7.0,45,0.00,,---,0.00,VWS V14.01,2013-05-17 15:42:00,
2013-05-17 11:43:00,63.9,42.7,30.01,North,360,0.0,7.0,46,0.00,,---,0.00,VWS V14.01,2013-05-17 15:43:00,
2013-05-17 11:44:00,64.0,42.8,30.01,NW,326,5.0,7.0,46,0.00,,---,0.00,VWS V14.01,2013-05-17 15:44:00,
2013-05-17 11:45:00,64.0,42.8,30.01,NNE,26,0.0,7.0,46,0.00,,---,0.00,VWS V14.01,2013-05-17 15:45:00,
2013-05-17 11:46:00,64.0,42.8,30.01,NNE,26,3.0,3.0,46,0.00,,---,0.00,VWS V14.01,2013-05-17 15:46:00,
2013-05-17 11:47:00,64.0,42.8,30.01,NNE,32,2.0,9.0,46,0.00,,---,0.00,VWS V14.01,2013-05-17 15:47:00,
2013-05-17 11:48:00,64.2,43.0,30.01,NNE,32,1.0,9.0,46,0.00,,---,0.00,VWS V14.01,2013-05-17 15:48:00,
2013-05-17 11:49:00,64.2,43.0,30.01,NNE,32,2.0,9.0,46,0.00,,---,0.00,VWS V14.01,2013-05-17 15:49:00,
2013-05-17 11:50:00,64.2,43.0,30.01,NNE,32,1.0,9.0,46,0.00,,---,0.00,VWS V14.01,2013-05-17 15:50:00,
2013-05-17 11:51:00,64.3,42.5,30.01,NNE,32,3.0,4.0,45,0.00,,---,0.00,VWS V14.01,2013-05-17 15:51:00,
2013-05-17 11:52:00,64.3,42.5,30.01,SE,131,4.0,7.0,45,0.00,,---,0.00,VWS V14.01,2013-05-17 15:52:00,
2013-05-17 11:53:00,64.3,42.5,30.01,NW,322,2.0,7.0,45,0.00,,---,0.00,VWS V14.01,2013-05-17 15:53:00,
2013-05-17 11:54:00,64.5,43.3,30.01,NNE,16,3.0,7.0,46,0.00,,---,0.00,VWS V14.01,2013-05-17 15:54:00,
2013-05-17 11:55:00,64.5,42.7,30.01,NNW,345,3.0,7.0,45,0.00,,---,0.00,VWS V14.01,2013-05-17 15:55:00,
2013-05-17 11:56:00,64.5,42.7,30.01,NNW,333,3.0,4.0,45,0.00,,---,0.00,VWS V14.01,2013-05-17 15:56:00,
2013-05-17 11:57:00,64.5,42.7,30.01,NE,49,4.0,4.0,45,0.00,,---,0.00,VWS V14.01,2013-05-17 15:57:00,
2013-05-17 11:58:00,64.5,42.7,30.01,NE,44,0.0,5.0,45,0.00,,---,0.00,VWS V14.01,2013-05-17 15:58:00,
2013-05-17 11:59:00,64.7,42.3,30.01,West,275,2.0,5.0,44,0.00,,---,0.00,VWS V14.01,2013-05-17 15:59:00,
2013-05-17 12:00:00,64.7,42.3,30.00,West,275,0.0,5.0,44,0.00,,---,0.00,VWS V14.01,2013-05-17 16:00:00,
2013-05-17 12:01:00,64.7,42.3,30.00,West,277,1.0,4.0,44,0.00,,---,0.00,VWS V14.01,2013-05-17 16:01:00,
2013-05-17 12:02:00,64.7,42.3,30.00,West,277,2.0,4.0,44,0.00,,---,0.00,VWS V14.01,2013-05-17 16:02:00,
2013-05-17 12:03:00,64.8,42.4,30.00,NW,310,3.0,6.0,44,0.00,,---,0.00,VWS V14.01,2013-05-17 16:03:00,
2013-05-17 12:04:00,64.8,42.4,30.00,NW,312,3.0,6.0,44,0.00,,---,0.00,VWS V14.01,2013-05-17 16:04:00,
2013-05-17 12:05:00,65.0,43.2,30.00,NNE,19,3.0,6.0,45,0.00,,---,0.00,VWS V14.01,2013-05-17 16:05:00,
2013-05-17 12:06:00,65.2,43.3,30.00,NW,315,0.0,5.0,45,0.00,,---,0.00,VWS V14.01,2013-05-17 16:06:00,
2013-05-17 12:07:00,65.2,42.8,30.00,NNE,20,3.0,8.0,44,0.00,,---,0.00,VWS V14.01,2013-05-17 16:07:00,
2013-05-17 12:08:00,65.2,42.8,30.00,NE,40,5.0,8.0,44,0.00,,---,0.00,VWS V14.01,2013-05-17 16:08:00,
2013-05-17 12:09:00,65.2,42.2,30.00,NNE,33,3.0,8.0,43,0.00,,---,0.00,VWS V14.01,2013-05-17 16:09:00,
2013-05-17 12:10:00,65.3,42.2,30.00,NNW,332,5.0,8.0,43,0.00,,---,0.00,VWS V14.01,2013-05-17 16:10:00,
2013-05-17 12:11:00,65.3,42.2,30.00,WNW,302,1.0,9.0,43,0.00,,---,0.00,VWS V14.01,2013-05-17 16:11:00,
2013-05-17 12:12:00,65.3,42.8,30.00,NNE,26,4.0,10.0,44,0.00,,---,0.00,VWS V14.01,2013-05-17 16:12:00,
2013-05-17 12:13:00,65.3,42.2,30.00,NNE,30,5.0,10.0,43,0.00,,---,0.00,VWS V14.01,2013-05-17 16:13:00,
2013-05-17 12:14:00,65.2,42.8,30.00,North,360,3.0,10.0,44,0.00,,---,0.00,VWS V14.01,2013-05-17 16:14:00,
2013-05-17 12:15:00,65.2,42.8,30.00,NNE,12,3.0,10.0,44,0.00,,---,0.00,VWS V14.01,2013-05-17 16:15:00,
2013-05-17 12:16:00,65.2,42.8,30.00,NNE,26,5.0,7.0,44,0.00,,---,0.00,VWS V14.01,2013-05-17 16:16:00,
2013-05-17 12:17:00,65.2,42.8,30.00,NNW,331,1.0,8.0,44,0.00,,---,0.00,VWS V14.01,2013-05-17 16:17:00,
2013-05-17 12:18:00,65.2,42.8,30.00,West,271,4.0,8.0,44,0.00,,---,0.00,VWS V14.01,2013-05-17 16:18:00,
2013-05-17 12:19:00,65.2,42.8,30.00,WNW,287,1.0,8.0,44,0.00,,---,0.00,VWS V14.01,2013-05-17 16:19:00,
2013-05-17 12:20:00,65.2,42.8,30.00,WSW,247,7.0,8.0,44,0.00,,---,0.00,VWS V14.01,2013-05-17 16:20:00,
2013-05-17 12:21:00,65.3,42.2,30.00,WNW,283,4.0,7.0,43,0.00,,---,0.00,VWS V14.01,2013-05-17 16:21:00,
2013-05-17 12:22:00,65.3,42.2,30.00,West,280,3.0,7.0,43,0.00,,---,0.00,VWS V14.01,2013-05-17 16:22:00,
2013-05-17 12:23:00,65.3,42.2,30.00,West,280,0.0,7.0,43,0.00,,---,0.00,VWS V14.01,2013-05-17 16:23:00,
2013-05-17 12:24:00,65.3,42.8,30.00,West,269,2.0,7.0,44,0.00,,---,0.00,VWS V14.01,2013-05-17 16:24:00,
2013-05-17 12:25:00,65.3,42.8,30.00,West,281,5.0,7.0,44,0.00,,---,0.00,VWS V14.01,2013-05-17 16:25:00,
2013-05-17 12:26:00,65.3,42.8,30.00,West,278,7.0,9.0,44,0.00,,---,0.00,VWS V14.01,2013-05-17 16:26:00,
2013-05-17 12:27:00,65.2,42.2,30.00,West,269,4.0,9.0,43,0.00,,---,0.00,VWS V14.01,2013-05-17 16:27:00,
2013-05-17 12:28:00,65.2,42.2,30.00,West,269,1.0,9.0,43,0.00,,---,0.00,VWS V14.01,2013-05-17 16:28:00,
2013-05-17 12:29:00,65.2,42.8,30.00,NE,51,3.0,9.0,44,0.00,,---,0.00,VWS V14.01,2013-05-17 16:29:00,
2013-05-17 12:30:00,65.2,42.8,30.01,NE,51,0.0,9.0,44,0.00,,---,0.00,VWS V14.01,2013-05-17 16:30:00,
2013-05-17 12:31:00,65.2,43.9,30.01,NE,51,1.0,5.0,46,0.00,,---,0.00,VWS V14.01,2013-05-17 16:31:00,
2013-05-17 12:32:00,65.2,43.3,30.01,NE,47,2.0,5.0,45,0.00,,---,0.00,VWS V14.01,2013-05-17 16:32:00,
2013-05-17 12:33:00,65.3,43.4,30.01,NE,47,0.0,5.0,45,0.00,,---,0.00,VWS V14.01,2013-05-17 16:33:00,
2013-05-17 12:34:00,65.3,42.8,30.01,North,360,4.0,5.0,44,0.00,,---,0.00,VWS V14.01,2013-05-17 16:34:00,
2013-05-17 12:35:00,65.3,42.8,30.01,NE,39,2.0,10.0,44,0.00,,---,0.00,VWS V14.01,2013-05-17 16:35:00,
2013-05-17 12:36:00,65.5,43.0,30.01,NE,37,1.0,4.0,44,0.00,,---,0.00,VWS V14.01,2013-05-17 16:36:00,
2013-05-17 12:37:00,65.5,43.0,30.01,WSW,257,0.0,4.0,44,0.00,,---,0.00,VWS V14.01,2013-05-17 16:37:00,
2013-05-17 12:38:00,65.5,43.0,30.01,WSW,257,2.0,4.0,44,0.00,,---,0.00,VWS V14.01,2013-05-17 16:38:00,
2013-05-17 12:39:00,65.5,43.0,30.01,WSW,257,0.0,4.0,44,0.00,,---,0.00,VWS V14.01,2013-05-17 16:39:00,
2013-05-17 12:40:00,65.5,43.6,30.01,NNW,332,8.0,10.0,45,0.00,,---,0.00,VWS V14.01,2013-05-17 16:40:00,
2013-05-17 12:41:00,65.5,43.0,30.01,NNW,342,6.0,8.0,44,0.00,,---,0.00,VWS V14.01,2013-05-17 16:41:00,
2013-05-17 12:42:00,65.5,42.4,30.01,NNE,22,3.0,8.0,43,0.00,,---,0.00,VWS V14.01,2013-05-17 16:42:00,
2013-05-17 12:43:00,65.6,42.5,30.01,NNE,33,4.0,8.0,43,0.00,,---,0.00,VWS V14.01,2013-05-17 16:43:00,
2013-05-17 12:44:00,65.6,41.9,30.01,NNE,33,1.0,8.0,42,0.00,,---,0.00,VWS V14.01,2013-05-17 16:44:00,
2013-05-17 12:45:00,65.6,42.5,30.00,NNE,33,0.0,8.0,43,0.00,,---,0.00,VWS V14.01,2013-05-17 16:45:00,
2013-05-17 12:46:00,65.6,42.5,30.00,NE,47,4.0,6.0,43,0.00,,---,0.00,VWS V14.01,2013-05-17 16:46:00,
2013-05-17 12:47:00,65.8,43.3,30.00,NE,37,10.0,11.0,44,0.00,,---,0.00,VWS V14.01,2013-05-17 16:47:00,
2013-05-17 12:48:00,65.8,42.1,30.00,NW,325,4.0,11.0,42,0.00,,---,0.00,VWS V14.01,2013-05-17 16:48:00,
2013-05-17 12:49:00,65.8,42.1,30.00,NNE,13,3.0,11.0,42,0.00,,---,0.00,VWS V14.01,2013-05-17 16:49:00,
2013-05-17 12:50:00,65.8,42.1,30.00,NNE,27,3.0,11.0,42,0.00,,---,0.00,VWS V14.01,2013-05-17 16:50:00,
2013-05-17 12:51:00,65.8,42.1,30.00,NNE,27,3.0,6.0,42,0.00,,---,0.00,VWS V14.01,2013-05-17 16:51:00,
2013-05-17 12:52:00,65.8,42.1,30.00,NNW,327,1.0,6.0,42,0.00,,---,0.00,VWS V14.01,2013-05-17 16:52:00,
2013-05-17 12:53:00,66.0,42.9,30.00,NW,325,1.0,6.0,43,0.00,,---,0.00,VWS V14.01,2013-05-17 16:53:00,
2013-05-17 12:54:00,66.0,42.3,30.00,NE,51,1.0,6.0,42,0.00,,---,0.00,VWS V14.01,2013-05-17 16:54:00,
2013-05-17 12:55:00,66.0,42.3,30.00,NE,51,0.0,6.0,42,0.00,,---,0.00,VWS V14.01,2013-05-17 16:55:00,
2013-05-17 12:56:00,66.0,42.3,30.00,West,277,2.0,7.0,42,0.00,,---,0.00,VWS V14.01,2013-05-17 16:56:00,
2013-05-17 12:57:00,66.0,42.9,30.00,North,11,5.0,7.0,43,0.00,,---,0.00,VWS V14.01,2013-05-17 16:57:00,
2013-05-17 12:58:00,66.1,42.4,30.00,NNE,23,5.0,12.0,42,0.00,,---,0.00,VWS V14.01,2013-05-17 16:58:00,
2013-05-17 12:59:00,66.1,42.4,30.00,NNW,334,4.0,12.0,42,0.00,,---,0.00,VWS V14.01,2013-05-17 16:59:00,
2013-05-17 13:00:00,66.1,41.7,30.01,NNW,333,3.0,12.0,41,0.00,,---,0.00,VWS V14.01,2013-05-17 17:00:00,
2013-05-17 13:01:00,66.1,41.7,30.01,NE,44,1.0,6.0,41,0.00,,---,0.00,VWS V14.01,2013-05-17 17:01:00,
2013-05-17 13:02:00,66.1,42.4,30.01,NNE,28,4.0,7.0,42,0.00,,---,0.00,VWS V14.01,2013-05-17 17:02:00,
2013-05-17 13:03:00,66.1,42.4,30.01,NNE,28,3.0,7.0,42,0.00,,---,0.00,VWS V14.01,2013-05-17 17:03:00,
2013-05-17 13:04:00,66.3,42.5,30.01,NNE,28,0.0,7.0,42,0.00,,---,0.00,VWS V14.01,2013-05-17 17:04:00,
2013-05-17 13:05:00,66.3,42.5,30.01,NNE,28,1.0,7.0,42,0.00,,---,0.00,VWS V14.01,2013-05-17 17:05:00,
2013-05-17 13:06:00,66.4,43.2,30.01,WNW,282,0.0,4.0,43,0.00,,---,0.00,VWS V14.01,2013-05-17 17:06:00,
2013-05-17 13:07:00,66.4,42.6,30.01,WNW,282,1.0,4.0,42,0.00,,---,0.00,VWS V14.01,2013-05-17 17:07:00,
2013-05-17 13:08:00,66.4,42.6,30.01,ENE,71,1.0,4.0,42,0.00,,---,0.00,VWS V14.01,2013-05-17 17:08:00,
2013-05-17 13:09:00,66.6,42.8,30.01,ENE,71,0.0,4.0,42,0.00,,---,0.00,VWS V14.01,2013-05-17 17:09:00,
2013-05-17 13:10:00,66.6,42.2,30.01,North,350,3.0,6.0,41,0.00,,---,0.00,VWS V14.01,2013-05-17 17:10:00,
2013-05-17 13:11:00,66.6,42.2,30.01,North,349,0.0,3.0,41,0.00,,---,0.00,VWS V14.01,2013-05-17 17:11:00,
2013-05-17 13:12:00,66.8,42.4,30.01,WSW,250,9.0,9.0,41,0.00,,---,0.00,VWS V14.01,2013-05-17 17:12:00,
2013-05-17 13:13:00,66.8,43.0,30.01,WNW,296,1.0,9.0,42,0.00,,---,0.00,VWS V14.01,2013-05-17 17:13:00,
2013-05-17 13:14:00,66.8,42.4,30.01,North,360,2.0,9.0,41,0.00,,---,0.00,VWS V14.01,2013-05-17 17:14:00,
2013-05-17 13:15:00,66.9,42.5,30.01,West,267,4.0,9.0,41,0.00,,---,0.00,VWS V14.01,2013-05-17 17:15:00,
2013-05-17 13:16:00,66.9,42.5,30.01,West,273,6.0,6.0,41,0.00,,---,0.00,VWS V14.01,2013-05-17 17:16:00,
2013-05-17 13:17:00,66.9,42.5,30.01,West,276,4.0,6.0,41,0.00,,---,0.00,VWS V14.01,2013-05-17 17:17:00,
2013-05-17 13:18:00,66.9,43.1,30.01,West,272,2.0,6.0,42,0.00,,---,0.00,VWS V14.01,2013-05-17 17:18:00,
2013-05-17 13:19:00,66.9,42.5,30.01,West,272,0.0,6.0,41,0.00,,---,0.00,VWS V14.01,2013-05-17 17:19:00,
2013-05-17 13:20:00,66.9,42.5,30.01,West,280,4.0,6.0,41,0.00,,---,0.00,VWS V14.01,2013-05-17 17:20:00,
2013-05-17 13:21:00,66.9,42.5,30.01,West,270,6.0,6.0,41,0.00,,---,0.00,VWS V14.01,2013-05-17 17:21:00,
2013-05-17 13:22:00,66.9,42.5,30.01,West,259,6.0,9.0,41,0.00,,---,0.00,VWS V14.01,2013-05-17 17:22:00,
2013-05-17 13:23:00,66.9,42.5,30.01,WNW,284,3.0,9.0,41,0.00,,---,0.00,VWS V14.01,2013-05-17 17:23:00,
2013-05-17 13:24:00,66.9,42.5,30.01,WNW,284,0.0,9.0,41,0.00,,---,0.00,VWS V14.01,2013-05-17 17:24:00,
2013-05-17 13:25:00,66.9,43.1,30.01,WNW,284,1.0,9.0,42,0.00,,---,0.00,VWS V14.01,2013-05-17 17:25:00,
2013-05-17 13:26:00,66.9,43.1,30.01,WNW,284,1.0,1.0,42,0.00,,---,0.00,VWS V14.01,2013-05-17 17:26:00,
2013-05-17 13:27:00,66.9,42.5,30.01,NW,324,3.0,4.0,41,0.00,,---,0.00,VWS V14.01,2013-05-17 17:27:00,
2013-05-17 13:28:00,66.9,42.5,30.01,NW,317,5.0,5.0,41,0.00,,---,0.00,VWS V14.01,2013-05-17 17:28:00,
2013-05-17 13:29:00,66.9,43.1,30.01,NNE,28,2.0,5.0,42,0.00,,---,0.00,VWS V14.01,2013-05-17 17:29:00,
2013-05-17 13:30:00,67.1,42.6,30.01,NNE,27,4.0,5.0,41,0.00,,---,0.00,VWS V14.01,2013-05-17 17:30:00,
2013-05-17 13:31:00,67.1,42.6,30.01,NE,38,0.0,5.0,41,0.00,,---,0.00,VWS V14.01,2013-05-17 17:31:00,
2013-05-17 13:32:00,67.1,42.6,30.01,NE,38,1.0,5.0,41,0.00,,---,0.00,VWS V14.01,2013-05-17 17:32:00,
2013-05-17 13:33:00,67.1,42.0,30.01,NE,38,0.0,5.0,40,0.00,,---,0.00,VWS V14.01,2013-05-17 17:33:00,
2013-05-17 13:34:00,67.1,42.6,30.01,WSW,246,2.0,6.0,41,0.00,,---,0.00,VWS V14.01,2013-05-17 17:34:00,
2013-05-17 13:35:00,67.3,42.2,30.01,WSW,246,0.0,6.0,40,0.00,,---,0.00,VWS V14.01,2013-05-17 17:35:00,
2013-05-17 13:36:00,67.3,42.8,30.01,West,269,5.0,6.0,41,0.00,,---,0.00,VWS V14.01,2013-05-17 17:36:00,
2013-05-17 13:37:00,67.4,42.9,30.01,WSW,257,4.0,7.0,41,0.00,,---,0.00,VWS V14.01,2013-05-17 17:37:00,
2013-05-17 13:38:00,67.4,41.6,30.01,WSW,254,6.0,9.0,39,0.00,,---,0.00,VWS V14.01,2013-05-17 17:38:00,
2013-05-17 13:39:00,67.4,41.6,30.01,West,277,6.0,9.0,39,0.00,,---,0.00,VWS V14.01,2013-05-17 17:39:00,
2013-05-17 13:40:00,67.4,40.9,30.01,West,275,6.0,9.0,38,0.00,,---,0.00,VWS V14.01,2013-05-17 17:40:00,
2013-05-17 13:41:00,67.6,41.8,30.01,West,271,11.0,11.0,39,0.00,,---,0.00,VWS V14.01,2013-05-17 17:41:00,
2013-05-17 13:42:00,67.6,41.1,30.01,West,281,8.0,11.0,38,0.00,,---,0.00,VWS V14.01,2013-05-17 17:42:00,
2013-05-17 13:43:00,67.4,40.9,30.01,NW,304,3.0,11.0,38,0.00,,---,0.00,VWS V14.01,2013-05-17 17:43:00,
2013-05-17 13:44:00,67.6,41.1,30.01,West,274,0.0,11.0,38,0.00,,---,0.00,VWS V14.01,2013-05-17 17:44:00,
2013-05-17 13:45:00,67.6,41.1,30.01,West,274,0.0,11.0,38,0.00,,---,0.00,VWS V14.01,2013-05-17 17:45:00,
2013-05-17 13:46:00,67.6,41.8,30.01,West,274,1.0,1.0,39,0.00,,---,0.00,VWS V14.01,2013-05-17 17:46:00,
2013-05-17 13:47:00,67.6,43.1,30.01,NNE,25,4.0,6.0,41,0.00,,---,0.00,VWS V14.01,2013-05-17 17:47:00,
2013-05-17 13:48:00,67.8,42.6,30.01,NNE,25,1.0,6.0,40,0.00,,---,0.00,VWS V14.01,2013-05-17 17:48:00,
2013-05-17 13:49:00,67.8,42.0,30.01,NNE,25,3.0,6.0,39,0.00,,---,0.00,VWS V14.01,2013-05-17 17:49:00,
2013-05-17 13:50:00,67.8,41.3,30.01,NNE,13,2.0,6.0,38,0.00,,---,0.00,VWS V14.01,2013-05-17 17:50:00,
2013-05-17 13:51:00,67.8,41.3,30.01,NNE,13,2.0,3.0,38,0.00,,---,0.00,VWS V14.01,2013-05-17 17:51:00,
2013-05-17 13:52:00,67.8,42.6,30.01,NNE,16,4.0,6.0,40,0.00,,---,0.00,VWS V14.01,2013-05-17 17:52:00,
2013-05-17 13:53:00,67.8,41.3,30.01,NNE,16,1.0,6.0,38,0.00,,---,0.00,VWS V14.01,2013-05-17 17:53:00,
2013-05-17 13:54:00,67.9,42.7,30.01,West,266,2.0,6.0,40,0.00,,---,0.00,VWS V14.01,2013-05-17 17:54:00,
2013-05-17 13:55:00,67.9,42.7,30.01,NNW,336,0.0,6.0,40,0.00,,---,0.00,VWS V14.01,2013-05-17 17:55:00,
2013-05-17 13:56:00,67.9,42.7,30.01,North,360,4.0,9.0,40,0.00,,---,0.00,VWS V14.01,2013-05-17 17:56:00,
2013-05-17 13:57:00,67.9,42.1,30.01,North,9,6.0,9.0,39,0.00,,---,0.00,VWS V14.01,2013-05-17 17:57:00,
2013-05-17 13:58:00,67.9,42.1,30.01,North,9,1.0,9.0,39,0.00,,---,0.00,VWS V14.01,2013-05-17 17:58:00,
2013-05-17 13:59:00,67.9,42.1,30.01,NNE,26,2.0,9.0,39,0.00,,---,0.00,VWS V14.01,2013-05-17 17:59:00,
2013-05-17 14:00:00,67.9,42.1,30.02,NNE,25,2.0,9.0,39,0.00,,---,0.00,VWS V14.01,2013-05-17 18:00:00,
2013-05-17 14:01:00,67.9,42.1,30.02,NNE,25,3.0,3.0,39,0.00,,---,0.00,VWS V14.01,2013-05-17 18:01:00,
2013-05-17 14:02:00,67.9,42.1,30.02,NNE,25,2.0,3.0,39,0.00,,---,0.00,VWS V14.01,2013-05-17 18:02:00,
2013-05-17 14:03:00,68.1,42.2,30.02,NNW,347,3.0,5.0,39,0.00,,---,0.00,VWS V14.01,2013-05-17 18:03:00,
2013-05-17 14:04:00,68.1,41.6,30.02,NNW,347,3.0,5.0,38,0.00,,---,0.00,VWS V14.01,2013-05-17 18:04:00,
2013-05-17 14:05:00,68.1,42.2,30.02,NE,44,1.0,5.0,39,0.00,,---,0.00,VWS V14.01,2013-05-17 18:05:00,
2013-05-17 14:06:00,68.1,42.2,30.02,NE,44,1.0,3.0,39,0.00,,---,0.00,VWS V14.01,2013-05-17 18:06:00,
2013-05-17 14:07:00,68.1,42.2,30.02,NE,44,5.0,5.0,39,0.00,,---,0.00,VWS V14.01,2013-05-17 18:07:00,
2013-05-17 14:08:00,68.1,42.9,30.02,North,349,4.0,5.0,40,0.00,,---,0.00,VWS V14.01,2013-05-17 18:08:00,
2013-05-17 14:09:00,68.1,42.9,30.02,NNE,32,3.0,6.0,40,0.00,,---,0.00,VWS V14.01,2013-05-17 18:09:00,
2013-05-17 14:10:00,68.3,43.1,30.02,NNE,32,3.0,6.0,40,0.00,,---,0.00,VWS V14.01,2013-05-17 18:10:00,
2013-05-17 14:11:00,68.3,42.4,30.02,North,351,3.0,5.0,39,0.00,,---,0.00,VWS V14.01,2013-05-17 18:11:00,
2013-05-17 14:12:00,68.3,42.4,30.02,NNW,346,2.0,6.0,39,0.00,,---,0.00,VWS V14.01,2013-05-17 18:12:00,
2013-05-17 14:13:00,68.3,42.4,30.02,NNW,346,1.0,6.0,39,0.00,,---,0.00,VWS V14.01,2013-05-17 18:13:00,
2013-05-17 14:14:00,68.3,41.7,30.02,NNW,346,0.0,6.0,38,0.00,,---,0.00,VWS V14.01,2013-05-17 18:14:00,
2013-05-17 14:15:00,68.4,42.5,30.02,NNW,346,0.0,6.0,39,0.00,,---,0.00,VWS V14.01,2013-05-17 18:15:00,
2013-05-17 14:16:00,68.4,42.5,30.02,NNW,346,0.0,1.0,39,0.00,,---,0.00,VWS V14.01,2013-05-17 18:16:00,
2013-05-17 14:17:00,68.4,42.5,30.02,NNW,346,3.0,3.0,39,0.00,,---,0.00,VWS V14.01,2013-05-17 18:17:00,
2013-05-17 14:18:00,68.4,42.5,30.02,NNW,343,3.0,5.0,39,0.00,,---,0.00,VWS V14.01,2013-05-17 18:18:00,
2013-05-17 14:19:00,68.4,42.5,30.02,NW,316,3.0,6.0,39,0.00,,---,0.00,VWS V14.01,2013-05-17 18:19:00,
2013-05-17 14:20:00,68.6,42.7,30.02,NNE,26,7.0,7.0,39,0.00,,---,0.00,VWS V14.01,2013-05-17 18:20:00,
2013-05-17 14:21:00,68.6,42.7,30.02,NW,315,2.0,6.0,39,0.00,,---,0.00,VWS V14.01,2013-05-17 18:21:00,
2013-05-17 14:22:00,68.6,42.0,30.02,North,360,4.0,6.0,38,0.00,,---,0.00,VWS V14.01,2013-05-17 18:22:00,
2013-05-17 14:23:00,68.6,42.0,30.02,NE,46,2.0,8.0,38,0.00,,---,0.00,VWS V14.01,2013-05-17 18:23:00,
2013-05-17 14:24:00,68.8,42.9,30.02,NNE,32,2.0,8.0,39,0.00,,---,0.00,VWS V14.01,2013-05-17 18:24:00,
2013-05-17 14:25:00,68.8,42.2,30.02,NW,326,1.0,8.0,38,0.00,,---,0.00,VWS V14.01,2013-05-17 18:25:00,
2013-05-17 14:26:00,68.8,42.2,30.02,NE,37,3.0,4.0,38,0.00,,---,0.00,VWS V14.01,2013-05-17 18:26:00,
2013-05-17 14:27:00,68.8,41.5,30.02,NNE,28,2.0,4.0,37,0.00,,---,0.00,VWS V14.01,2013-05-17 18:27:00,
2013-05-17 14:28:00,68.8,41.5,30.02,NNE,28,2.0,5.0,37,0.00,,---,0.00,VWS V14.01,2013-05-17 18:28:00,
2013-05-17 14:29:00,68.8,42.2,30.02,NNE,28,4.0,5.0,38,0.00,,---,0.00,VWS V14.01,2013-05-17 18:29:00,
2013-05-17 14:30:00,68.8,42.2,30.02,NNE,25,3.0,5.0,38,0.00,,---,0.00,VWS V14.01,2013-05-17 18:30:00,
2013-05-17 14:31:00,68.8,42.2,30.02,NNE,26,0.0,3.0,38,0.00,,---,0.00,VWS V14.01,2013-05-17 18:31:00,
2013-05-17 14:32:00,68.8,42.2,30.02,ESE,116,6.0,6.0,38,0.00,,---,0.00,VWS V14.01,2013-05-17 18:32:00,
2013-05-17 14:33:00,68.8,42.2,30.02,NE,52,2.0,6.0,38,0.00,,---,0.00,VWS V14.01,2013-05-17 18:33:00,
2013-05-17 14:34:00,68.8,42.2,30.02,SE,138,0.0,6.0,38,0.00,,---,0.00,VWS V14.01,2013-05-17 18:34:00,
2013-05-17 14:35:00,68.8,42.2,30.02,ENE,69,0.0,6.0,38,0.00,,---,0.00,VWS V14.01,2013-05-17 18:35:00,
2013-05-17 14:36:00,68.8,41.5,30.02,ESE,122,2.0,11.0,37,0.00,,---,0.00,VWS V14.01,2013-05-17 18:36:00,
2013-05-17 14:37:00,68.6,42.0,30.02,ESE,122,0.0,11.0,38,0.00,,---,0.00,VWS V14.01,2013-05-17 18:37:00,
2013-05-17 14:38:00,68.6,42.0,30.02,NNE,21,3.0,11.0,38,0.00,,---,0.00,VWS V14.01,2013-05-17 18:38:00,
2013-05-17 14:39:00,68.8,42.9,30.02,NNW,330,2.0,11.0,39,0.00,,---,0.00,VWS V14.01,2013-05-17 18:39:00,
2013-05-17 14:40:00,68.8,42.9,30.02,North,360,2.0,11.0,39,0.00,,---,0.00,VWS V14.01,2013-05-17 18:40:00,
2013-05-17 14:41:00,68.9,42.3,30.02,North,360,1.0,4.0,38,0.00,,---,0.00,VWS V14.01,2013-05-17 18:41:00,
2013-05-17 14:42:00,68.9,42.3,30.02,NNW,329,3.0,4.0,38,0.00,,---,0.00,VWS V14.01,2013-05-17 18:42:00,
2013-05-17 14:43:00,68.9,42.3,30.02,NW,324,2.0,4.0,38,0.00,,---,0.00,VWS V14.01,2013-05-17 18:43:00,
2013-05-17 14:44:00,68.9,42.3,30.02,WSW,258,2.0,4.0,38,0.00,,---,0.00,VWS V14.01,2013-05-17 18:44:00,
2013-05-17 14:45:00,69.1,42.5,30.02,North,349,3.0,6.0,38,0.00,,---,0.00,VWS V14.01,2013-05-17 18:45:00,
2013-05-17 14:46:00,69.1,41.8,30.02,NNW,344,0.0,3.0,37,0.00,,---,0.00,VWS V14.01,2013-05-17 18:46:00,
2013-05-17 14:47:00,69.1,42.5,30.02,West,268,1.0,7.0,38,0.00,,---,0.00,VWS V14.01,2013-05-17 18:47:00,
2013-05-17 14:48:00,69.1,42.5,30.02,NNW,345,3.0,7.0,38,0.00,,---,0.00,VWS V14.01,2013-05-17 18:48:00,
2013-05-17 14:49:00,69.1,42.5,30.02,NE,46,2.0,7.0,38,0.00,,---,0.00,VWS V14.01,2013-05-17 18:49:00,
2013-05-17 14:50:00,69.3,42.6,30.02,NNW,332,2.0,7.0,38,0.00,,---,0.00,VWS V14.01,2013-05-17 18:50:00,
2013-05-17 14:51:00,69.3,41.9,30.02,NNW,332,1.0,3.0,37,0.00,,---,0.00,VWS V14.01,2013-05-17 18:51:00,
2013-05-17 14:52:00,69.3,41.9,30.02,West,275,6.0,6.0,37,0.00,,---,0.00,VWS V14.01,2013-05-17 18:52:00,
2013-05-17 14:53:00,69.3,41.9,30.02,WNW,285,4.0,10.0,37,0.00,,---,0.00,VWS V14.01,2013-05-17 18:53:00,
2013-05-17 14:54:00,69.3,42.6,30.02,West,280,0.0,10.0,38,0.00,,---,0.00,VWS V14.01,2013-05-17 18:54:00,
2013-05-17 14:55:00,69.3,42.6,30.02,West,281,0.0,10.0,38,0.00,,---,0.00,VWS V14.01,2013-05-17 18:55:00,
2013-05-17 14:56:00,69.3,41.9,30.02,West,273,0.0,6.0,37,0.00,,---,0.00,VWS V14.01,2013-05-17 18:56:00,
2013-05-17 14:57:00,69.3,42.6,30.02,WNW,287,6.0,7.0,38,0.00,,---,0.00,VWS V14.01,2013-05-17 18:57:00,
2013-05-17 14:58:00,69.3,41.9,30.02,West,272,3.0,8.0,37,0.00,,---,0.00,VWS V14.01,2013-05-17 18:58:00,
2013-05-17 14:59:00,69.1,41.8,30.02,WNW,300,1.0,8.0,37,0.00,,---,0.00,VWS V14.01,2013-05-17 18:59:00,
2013-05-17 15:00:00,69.1,42.5,30.02,NE,39,1.0,8.0,38,0.00,,---,0.00,VWS V14.01,2013-05-17 19:00:00,
2013-05-17 15:01:00,69.1,42.5,30.02,NE,40,5.0,6.0,38,0.00,,---,0.00,VWS V14.01,2013-05-17 19:01:00,
2013-05-17 15:02:00,69.1,42.5,30.02,North,360,4.0,4.0,38,0.00,,---,0.00,VWS V14.01,2013-05-17 19:02:00,
2013-05-17 15:03:00,69.1,42.5,30.02,North,360,5.0,5.0,38,0.00,,---,0.00,VWS V14.01,2013-05-17 19:03:00,
2013-05-17 15:04:00,69.1,41.8,30.02,NNW,347,2.0,5.0,37,0.00,,---,0.00,VWS V14.01,2013-05-17 19:04:00,
2013-05-17 15:05:00,69.1,41.8,30.02,NNW,347,1.0,5.0,37,0.00,,---,0.00,VWS V14.01,2013-05-17 19:05:00,
2013-05-17 15:06:00,69.1,42.5,30.02,NNE,15,4.0,5.0,38,0.00,,---,0.00,VWS V14.01,2013-05-17 19:06:00,
2013-05-17 15:07:00,69.1,43.1,30.02,NE,41,10.0,11.0,39,0.00,,---,0.00,VWS V14.01,2013-05-17 19:07:00,
2013-05-17 15:08:00,69.1,41.8,30.02,NE,36,1.0,11.0,37,0.00,,---,0.00,VWS V14.01,2013-05-17 19:08:00,
2013-05-17 15:09:00,68.9,41.6,30.02,NW,326,2.0,11.0,37,0.00,,---,0.00,VWS V14.01,2013-05-17 19:09:00,
2013-05-17 15:10:00,68.9,41.6,30.02,NW,326,0.0,11.0,37,0.00,,---,0.00,VWS V14.01,2013-05-17 19:10:00,
2013-05-17 15:11:00,68.9,42.3,30.02,North,351,2.0,3.0,38,0.00,,---,0.00,VWS V14.01,2013-05-17 19:11:00,
2013-05-17 15:12:00,68.9,40.9,30.02,NE,47,0.0,6.0,36,0.00,,---,0.00,VWS V14.01,2013-05-17 19:12:00,
2013-05-17 15:13:00,68.9,41.6,30.02,NE,47,0.0,6.0,37,0.00,,---,0.00,VWS V14.01,2013-05-17 19:13:00,
2013-05-17 15:14:00,68.9,41.6,30.02,NE,47,0.0,6.0,37,0.00,,---,0.00,VWS V14.01,2013-05-17 19:14:00,
2013-05-17 15:15:00,69.1,42.5,30.02,NE,47,0.0,6.0,38,0.00,,---,0.00,VWS V14.01,2013-05-17 19:15:00,
2013-05-17 15:16:00,69.1,42.5,30.02,NE,47,0.0,0.0,38,0.00,,---,0.00,VWS V14.01,2013-05-17 19:16:00,
2013-05-17 15:17:00,69.1,42.5,30.02,NNE,15,3.0,4.0,38,0.00,,---,0.00,VWS V14.01,2013-05-17 19:17:00,
2013-05-17 15:18:00,69.1,41.8,30.02,NW,319,6.0,6.0,37,0.00,,---,0.00,VWS V14.01,2013-05-17 19:18:00,
2013-05-17 15:19:00,69.1,41.8,30.02,NNW,346,1.0,6.0,37,0.00,,---,0.00,VWS V14.01,2013-05-17 19:19:00,
2013-05-17 15:20:00,69.3,42.6,30.02,North,351,0.0,6.0,38,0.00,,---,0.00,VWS V14.01,2013-05-17 19:20:00,
2013-05-17 15:21:00,69.3,42.6,30.02,NNW,342,2.0,7.0,38,0.00,,---,0.00,VWS V14.01,2013-05-17 19:21:00,
2013-05-17 15:22:00,69.3,41.9,30.02,NW,305,2.0,7.0,37,0.00,,---,0.00,VWS V14.01,2013-05-17 19:22:00,
2013-05-17 15:23:00,69.3,41.9,30.02,West,267,4.0,7.0,37,0.00,,---,0.00,VWS V14.01,2013-05-17 19:23:00,
2013-05-17 15:24:00,69.3,41.9,30.02,NW,320,3.0,7.0,37,0.00,,---,0.00,VWS V14.01,2013-05-17 19:24:00,
2013-05-17 15:25:00,69.3,41.2,30.02,North,360,2.0,7.0,36,0.00,,---,0.00,VWS V14.01,2013-05-17 19:25:00,
2013-05-17 15:26:00,69.3,41.2,30.02,North,360,3.0,5.0,36,0.00,,---,0.00,VWS V14.01,2013-05-17 19:26:00,
2013-05-17 15:27:00,69.3,40.5,30.02,NNE,18,0.0,5.0,35,0.00,,---,0.00,VWS V14.01,2013-05-17 19:27:00,
2013-05-17 15:28:00,69.3,41.2,30.02,NW,304,4.0,5.0,36,0.00,,---,0.00,VWS V14.01,2013-05-17 19:28:00,
2013-05-17 15:29:00,69.3,40.5,30.02,NNE,13,2.0,7.0,35,0.00,,---,0.00,VWS V14.01,2013-05-17 19:29:00,
2013-05-17 15:30:00,69.1,41.0,30.03,NNE,13,1.0,7.0,36,0.00,,---,0.00,VWS V14.01,2013-05-17 19:30:00,
2013-05-17 15:31:00,69.1,41.0,30.03,NNE,13,1.0,2.0,36,0.00,,---,0.00,VWS V14.01,2013-05-17 19:31:00,
2013-05-17 15:32:00,69.1,41.8,30.03,NNE,13,0.0,2.0,37,0.00,,---,0.00,VWS V14.01,2013-05-17 19:32:00,
2013-05-17 15:33:00,69.1,41.8,30.03,NNE,14,1.0,4.0,37,0.00,,---,0.00,VWS V14.01,2013-05-17 19:33:00,
2013-05-17 15:34:00,69.1,41.8,30.03,NNE,13,1.0,4.0,37,0.00,,---,0.00,VWS V14.01,2013-05-17 19:34:00,
2013-05-17 15:35:00,69.1,41.8,30.03,NNE,13,2.0,4.0,37,0.00,,---,0.00,VWS V14.01,2013-05-17 19:35:00,
2013-05-17 15:36:00,69.3,41.9,30.03,NNE,14,0.0,3.0,37,0.00,,---,0.00,VWS V14.01,2013-05-17 19:36:00,
2013-05-17 15:37:00,69.3,41.9,30.03,NNE,14,1.0,3.0,37,0.00,,---,0.00,VWS V14.01,2013-05-17 19:37:00,
2013-05-17 15:38:00,69.3,41.9,30.03,NNE,15,4.0,5.0,37,0.00,,---,0.00,VWS V14.01,2013-05-17 19:38:00,
2013-05-17 15:39:00,69.3,41.2,30.03,NE,43,3.0,5.0,36,0.00,,---,0.00,VWS V14.01,2013-05-17 19:39:00,
2013-05-17 15:40:00,69.3,41.2,30.03,NNW,344,2.0,5.0,36,0.00,,---,0.00,VWS V14.01,2013-05-17 19:40:00,
2013-05-17 15:41:00,69.3,41.2,30.03,SE,130,5.0,5.0,36,0.00,,---,0.00,VWS V14.01,2013-05-17 19:41:00,
2013-05-17 15:42:00,69.3,41.9,30.03,NE,38,0.0,6.0,37,0.00,,---,0.00,VWS V14.01,2013-05-17 19:42:00,
2013-05-17 15:43:00,69.3,41.9,30.03,ESE,119,2.0,6.0,37,0.00,,---,0.00,VWS V14.01,2013-05-17 19:43:00,
2013-05-17 15:44:00,69.3,41.9,30.03,ESE,119,0.0,6.0,37,0.00,,---,0.00,VWS V14.01,2013-05-17 19:44:00,
2013-05-17 15:45:00,69.3,42.6,30.03,ESE,109,0.0,6.0,38,0.00,,---,0.00,VWS V14.01,2013-05-17 19:45:00,
2013-05-17 15:46:00,69.3,42.6,30.03,North,351,6.0,6.0,38,0.00,,---,0.00,VWS V14.01,2013-05-17 19:46:00,
2013-05-17 15:47:00,69.3,41.2,30.03,North,360,3.0,6.0,36,0.00,,---,0.00,VWS V14.01,2013-05-17 19:47:00,
2013-05-17 15:48:00,69.4,40.6,30.03,NW,314,3.0,6.0,35,0.00,,---,0.00,VWS V14.01,2013-05-17 19:48:00,
2013-05-17 15:49:00,69.4,40.6,30.03,NW,326,3.0,6.0,35,0.00,,---,0.00,VWS V14.01,2013-05-17 19:49:00,
2013-05-17 15:50:00,69.4,40.6,30.03,NW,326,0.0,6.0,35,0.00,,---,0.00,VWS V14.01,2013-05-17 19:50:00,
2013-05-17 15:51:00,69.4,40.6,30.03,NW,326,1.0,3.0,35,0.00,,---,0.00,VWS V14.01,2013-05-17 19:51:00,
2013-05-17 15:52:00,69.4,41.3,30.03,NW,326,1.0,3.0,36,0.00,,---,0.00,VWS V14.01,2013-05-17 19:52:00,
2013-05-17 15:53:00,69.4,41.3,30.03,NW,306,4.0,4.0,36,0.00,,---,0.00,VWS V14.01,2013-05-17 19:53:00,
2013-05-17 15:54:00,69.4,39.8,30.03,NW,311,4.0,7.0,34,0.00,,---,0.00,VWS V14.01,2013-05-17 19:54:00,
2013-05-17 15:55:00,69.4,40.6,30.03,NW,320,2.0,7.0,35,0.00,,---,0.00,VWS V14.01,2013-05-17 19:55:00,
2013-05-17 15:56:00,69.4,40.6,30.03,North,11,3.0,7.0,35,0.00,,---,0.00,VWS V14.01,2013-05-17 19:56:00,
2013-05-17 15:57:00,69.4,40.6,30.03,NNW,336,4.0,7.0,35,0.00,,---,0.00,VWS V14.01,2013-05-17 19:57:00,
2013-05-17 15:58:00,69.3,40.5,30.03,NW,317,4.0,7.0,35,0.00,,---,0.00,VWS V14.01,2013-05-17 19:58:00,
2013-05-17 15:59:00,69.3,40.5,30.03,North,360,2.0,7.0,35,0.00,,---,0.00,VWS V14.01,2013-05-17 19:59:00,
2013-05-17 16:00:00,69.3,40.5,30.04,North,360,2.0,7.0,35,0.00,,---,0.00,VWS V14.01,2013-05-17 20:00:00,
2013-05-17 16:01:00,69.3,41.2,30.04,North,351,2.0,4.0,36,0.00,,---,0.00,VWS V14.01,2013-05-17 20:01:00,
2013-05-17 16:02:00,69.3,40.5,30.04,North,351,2.0,4.0,35,0.00,,---,0.00,VWS V14.01,2013-05-17 20:02:00,
2013-05-17 16:03:00,69.3,40.5,30.04,North,351,3.0,4.0,35,0.00,,---,0.00,VWS V14.01,2013-05-17 20:03:00,
2013-05-17 16:04:00,69.3,40.5,30.04,NNW,327,1.0,6.0,35,0.00,,---,0.00,VWS V14.01,2013-05-17 20:04:00,
2013-05-17 16:05:00,69.3,40.5,30.04,NE,39,4.0,6.0,35,0.00,,---,0.00,VWS V14.01,2013-05-17 20:05:00,
2013-05-17 16:06:00,69.1,39.6,30.04,NNE,32,0.0,4.0,34,0.00,,---,0.00,VWS V14.01,2013-05-17 20:06:00,
2013-05-17 16:07:00,69.1,39.6,30.04,NNE,32,0.0,4.0,34,0.00,,---,0.00,VWS V14.01,2013-05-17 20:07:00,
2013-05-17 16:08:00,69.1,40.3,30.04,WNW,288,2.0,7.0,35,0.00,,---,0.00,VWS V14.01,2013-05-17 20:08:00,
2013-05-17 16:09:00,69.3,39.8,30.04,WSW,242,2.0,7.0,34,0.00,,---,0.00,VWS V14.01,2013-05-17 20:09:00,
2013-05-17 16:10:00,69.3,40.5,30.04,WSW,242,0.0,7.0,35,0.00,,---,0.00,VWS V14.01,2013-05-17 20:10:00,
2013-05-17 16:11:00,69.3,40.5,30.04,WSW,242,0.0,0.0,35,0.00,,---,0.00,VWS V14.01,2013-05-17 20:11:00,
2013-05-17 16:12:00,69.3,40.5,30.04,NW,315,2.0,5.0,35,0.00,,---,0.00,VWS V14.01,2013-05-17 20:12:00,
2013-05-17 16:13:00,69.4,40.6,30.04,NW,315,0.0,5.0,35,0.00,,---,0.00,VWS V14.01,2013-05-17 20:13:00,
2013-05-17 16:14:00,69.4,39.8,30.04,SE,146,2.0,5.0,34,0.00,,---,0.00,VWS V14.01,2013-05-17 20:14:00,
2013-05-17 16:15:00,69.4,40.6,30.05,West,275,4.0,5.0,35,0.00,,---,0.00,VWS V14.01,2013-05-17 20:15:00,
2013-05-17 16:16:00,69.4,40.6,30.05,West,277,3.0,6.0,35,0.00,,---,0.00,VWS V14.01,2013-05-17 20:16:00,
2013-05-17 16:17:00,69.4,40.6,30.05,WNW,286,6.0,8.0,35,0.00,,---,0.00,VWS V14.01,2013-05-17 20:17:00,
2013-05-17 16:18:00,69.4,40.6,30.05,WNW,286,2.0,8.0,35,0.00,,---,0.00,VWS V14.01,2013-05-17 20:18:00,
2013-05-17 16:19:00,69.4,41.3,30.05,WNW,294,1.0,8.0,36,0.00,,---,0.00,VWS V14.01,2013-05-17 20:19:00,
2013-05-17 16:20:00,69.4,41.3,30.05,NE,42,5.0,8.0,36,0.00,,---,0.00,VWS V14.01,2013-05-17 20:20:00,
2013-05-17 16:21:00,69.6,41.5,30.05,NE,42,3.0,5.0,36,0.00,,---,0.00,VWS V14.01,2013-05-17 20:21:00,
2013-05-17 16:22:00,69.6,41.5,30.05,NE,42,1.0,5.0,36,0.00,,---,0.00,VWS V14.01,2013-05-17 20:22:00,
2013-05-17 16:23:00,69.6,41.5,30.05,NE,42,0.0,5.0,36,0.00,,---,0.00,VWS V14.01,2013-05-17 20:23:00,
2013-05-17 16:24:00,69.6,41.5,30.05,NE,42,1.0,5.0,36,0.00,,---,0.00,VWS V14.01,2013-05-17 20:24:00,
2013-05-17 16:25:00,69.6,41.5,30.05,NE,42,0.0,5.0,36,0.00,,---,0.00,VWS V14.01,2013-05-17 20:25:00,
2013-05-17 16:26:00,69.6,42.2,30.05,NE,40,1.0,6.0,37,0.00,,---,0.00,VWS V14.01,2013-05-17 20:26:00,
2013-05-17 16:27:00,69.6,41.5,30.05,NE,40,0.0,6.0,36,0.00,,---,0.00,VWS V14.01,2013-05-17 20:27:00,
2013-05-17 16:28:00,69.6,42.2,30.05,NW,321,2.0,6.0,37,0.00,,---,0.00,VWS V14.01,2013-05-17 20:28:00,
2013-05-17 16:29:00,69.6,41.5,30.05,NW,307,3.0,6.0,36,0.00,,---,0.00,VWS V14.01,2013-05-17 20:29:00,
2013-05-17 16:30:00,69.8,41.7,30.06,NW,307,0.0,6.0,36,0.00,,---,0.00,VWS V14.01,2013-05-17 20:30:00,
2013-05-17 16:31:00,69.8,41.7,30.06,NW,306,0.0,3.0,36,0.00,,---,0.00,VWS V14.01,2013-05-17 20:31:00,
2013-05-17 16:32:00,69.8,40.9,30.06,NNE,23,2.0,5.0,35,0.00,,---,0.00,VWS V14.01,2013-05-17 20:32:00,
2013-05-17 16:33:00,69.8,41.7,30.06,SE,125,1.0,5.0,36,0.00,,---,0.00,VWS V14.01,2013-05-17 20:33:00,
2013-05-17 16:34:00,69.8,41.7,30.06,NE,37,1.0,5.0,36,0.00,,---,0.00,VWS V14.01,2013-05-17 20:34:00,
2013-05-17 16:35:00,69.8,41.7,30.06,NNE,18,4.0,5.0,36,0.00,,---,0.00,VWS V14.01,2013-05-17 20:35:00,
2013-05-17 16:36:00,69.6,40.8,30.06,NNE,17,0.0,3.0,35,0.00,,---,0.00,VWS V14.01,2013-05-17 20:36:00,
2013-05-17 16:37:00,69.6,40.8,30.06,NNE,17,0.0,3.0,35,0.00,,---,0.00,VWS V14.01,2013-05-17 20:37:00,
2013-05-17 16:38:00,69.6,40.8,30.06,NNE,17,0.0,3.0,35,0.00,,---,0.00,VWS V14.01,2013-05-17 20:38:00,
2013-05-17 16:39:00,69.6,41.5,30.06,ENE,67,0.0,3.0,36,0.00,,---,0.00,VWS V14.01,2013-05-17 20:39:00,
2013-05-17 16:40:00,69.6,41.5,30.06,ENE,67,0.0,3.0,36,0.00,,---,0.00,VWS V14.01,2013-05-17 20:40:00,
2013-05-17 16:41:00,69.6,41.5,30.06,ENE,67,0.0,0.0,36,0.00,,---,0.00,VWS V14.01,2013-05-17 20:41:00,
2013-05-17 16:42:00,69.6,42.2,30.06,ENE,67,0.0,2.0,37,0.00,,---,0.00,VWS V14.01,2013-05-17 20:42:00,
2013-05-17 16:43:00,69.6,40.8,30.06,ENE,67,0.0,2.0,35,0.00,,---,0.00,VWS V14.01,2013-05-17 20:43:00,
2013-05-17 16:44:00,69.6,40.8,30.06,ENE,67,0.0,2.0,35,0.00,,---,0.00,VWS V14.01,2013-05-17 20:44:00,
2013-05-17 16:45:00,69.6,41.5,30.06,NNE,32,2.0,4.0,36,0.00,,---,0.00,VWS V14.01,2013-05-17 20:45:00,
2013-05-17 16:46:00,69.6,40.8,30.06,NNE,32,0.0,2.0,35,0.00,,---,0.00,VWS V14.01,2013-05-17 20:46:00,
2013-05-17 16:47:00,69.6,40.8,30.06,NNE,32,0.0,2.0,35,0.00,,---,0.00,VWS V14.01,2013-05-17 20:47:00,
2013-05-17 16:48:00,69.6,40.0,30.06,NNE,32,3.0,3.0,34,0.00,,---,0.00,VWS V14.01,2013-05-17 20:48:00,
2013-05-17 16:49:00,69.6,40.8,30.06,NNE,32,0.0,3.0,35,0.00,,---,0.00,VWS V14.01,2013-05-17 20:49:00,
2013-05-17 16:50:00,69.6,40.8,30.06,NNE,31,1.0,3.0,35,0.00,,---,0.00,VWS V14.01,2013-05-17 20:50:00,
2013-05-17 16:51:00,69.6,40.8,30.06,NNE,31,0.0,2.0,35,0.00,,---,0.00,VWS V14.01,2013-05-17 20:51:00,
2013-05-17 16:52:00,69.6,40.8,30.06,NNE,31,1.0,2.0,35,0.00,,---,0.00,VWS V14.01,2013-05-17 20:52:00,
2013-05-17 16:53:00,69.6,41.5,30.06,NNE,31,2.0,3.0,36,0.00,,---,0.00,VWS V14.01,2013-05-17 20:53:00,
2013-05-17 16:54:00,69.4,41.3,30.06,NNE,31,1.0,3.0,36,0.00,,---,0.00,VWS V14.01,2013-05-17 20:54:00,
2013-05-17 16:55:00,69.4,41.3,30.06,NNE,31,2.0,3.0,36,0.00,,---,0.00,VWS V14.01,2013-05-17 20:55:00,
2013-05-17 16:56:00,69.4,41.3,30.06,NNE,31,2.0,3.0,36,0.00,,---,0.00,VWS V14.01,2013-05-17 20:56:00,
2013-05-17 16:57:00,69.4,41.3,30.06,NNE,31,2.0,3.0,36,0.00,,---,0.00,VWS V14.01,2013-05-17 20:57:00,
2013-05-17 16:58:00,69.4,41.3,30.06,North,360,4.0,4.0,36,0.00,,---,0.00,VWS V14.01,2013-05-17 20:58:00,
2013-05-17 16:59:00,69.4,41.3,30.06,NNE,31,3.0,5.0,36,0.00,,---,0.00,VWS V14.01,2013-05-17 20:59:00,
2013-05-17 17:00:00,69.4,40.6,30.07,NNE,31,2.0,5.0,35,0.00,,---,0.00,VWS V14.01,2013-05-17 21:00:00,
2013-05-17 17:01:00,69.3,40.5,30.07,NNE,31,2.0,2.0,35,0.00,,---,0.00,VWS V14.01,2013-05-17 21:01:00,
2013-05-17 17:02:00,69.3,40.5,30.07,NNE,31,0.0,3.0,35,0.00,,---,0.00,VWS V14.01,2013-05-17 21:02:00,
2013-05-17 17:03:00,69.3,40.5,30.07,NNE,31,0.0,3.0,35,0.00,,---,0.00,VWS V14.01,2013-05-17 21:03:00,
2013-05-17 17:04:00,69.3,40.5,30.07,NNE,33,2.0,3.0,35,0.00,,---,0.00,VWS V14.01,2013-05-17 21:04:00,
2013-05-17 17:05:00,69.1,40.3,30.07,NNE,33,0.0,3.0,35,0.00,,---,0.00,VWS V14.01,2013-05-17 21:05:00,
2013-05-17 17:06:00,69.1,40.3,30.07,NNE,33,0.0,0.0,35,0.00,,---,0.00,VWS V14.01,2013-05-17 21:06:00,
2013-05-17 17:07:00,69.1,40.3,30.07,NNE,33,0.0,0.0,35,0.00,,---,0.00,VWS V14.01,2013-05-17 21:07:00,
2013-05-17 17:08:00,69.1,41.0,30.07,NNE,33,0.0,0.0,36,0.00,,---,0.00,VWS V14.01,2013-05-17 21:08:00,
2013-05-17 17:09:00,69.1,41.0,30.07,NE,34,0.0,0.0,36,0.00,,---,0.00,VWS V14.01,2013-05-17 21:09:00,
2013-05-17 17:10:00,69.1,41.0,30.07,NNE,33,0.0,0.0,36,0.00,,---,0.00,VWS V14.01,2013-05-17 21:10:00,
2013-05-17 17:11:00,69.1,41.0,30.07,NNE,33,0.0,1.0,36,0.00,,---,0.00,VWS V14.01,2013-05-17 21:11:00,
2013-05-17 17:12:00,69.1,41.0,30.07,NE,34,0.0,1.0,36,0.00,,---,0.00,VWS V14.01,2013-05-17 21:12:00,
2013-05-17 17:13:00,69.1,41.0,30.07,NE,34,2.0,2.0,36,0.00,,---,0.00,VWS V14.01,2013-05-17 21:13:00,
2013-05-17 17:14:00,69.1,42.5,30.07,SE,142,2.0,8.0,38,0.00,,---,0.00,VWS V14.01,2013-05-17 21:14:00,
2013-05-17 17:15:00,68.9,42.3,30.07,SSW,192,3.0,8.0,38,0.00,,---,0.00,VWS V14.01,2013-05-17 21:15:00,
2013-05-17 17:16:00,68.9,44.9,30.07,SSW,192,1.0,3.0,42,0.00,,---,0.00,VWS V14.01,2013-05-17 21:16:00,
2013-05-17 17:17:00,68.8,44.8,30.07,South,191,2.0,3.0,42,0.00,,---,0.00,VWS V14.01,2013-05-17 21:17:00,
2013-05-17 17:18:00,68.6,45.2,30.07,SSW,210,2.0,8.0,43,0.00,,---,0.00,VWS V14.01,2013-05-17 21:18:00,
2013-05-17 17:19:00,68.4,45.7,30.07,SSW,210,6.0,10.0,44,0.00,,---,0.00,VWS V14.01,2013-05-17 21:19:00,
2013-05-17 17:20:00,68.3,46.7,30.07,South,171,2.0,10.0,46,0.00,,---,0.00,VWS V14.01,2013-05-17 21:20:00,
2013-05-17 17:21:00,67.9,47.0,30.07,SSW,199,3.0,6.0,47,0.00,,---,0.00,VWS V14.01,2013-05-17 21:21:00,
2013-05-17 17:22:00,67.8,47.4,30.07,South,183,3.0,6.0,48,0.00,,---,0.00,VWS V14.01,2013-05-17 21:22:00,
2013-05-17 17:23:00,67.4,47.6,30.07,South,183,0.0,6.0,49,0.00,,---,0.00,VWS V14.01,2013-05-17 21:23:00,
2013-05-17 17:24:00,67.3,47.5,30.07,South,176,4.0,8.0,49,0.00,,---,0.00,VWS V14.01,2013-05-17 21:24:00,
2013-05-17 17:25:00,67.1,48.4,30.07,SSW,193,3.0,8.0,51,0.00,,---,0.00,VWS V14.01,2013-05-17 21:25:00,
2013-05-17 17:26:00,66.8,48.6,30.07,SSE,159,2.0,5.0,52,0.00,,---,0.00,VWS V14.01,2013-05-17 21:26:00,
2013-05-17 17:27:00,66.4,48.8,30.07,SSW,198,4.0,5.0,53,0.00,,---,0.00,VWS V14.01,2013-05-17 21:27:00,
2013-05-17 17:28:00,66.3,48.7,30.07,SSW,212,6.0,6.0,53,0.00,,---,0.00,VWS V14.01,2013-05-17 21:28:00,
2013-05-17 17:29:00,66.1,48.5,30.07,South,185,1.0,6.0,53,0.00,,---,0.00,VWS V14.01,2013-05-17 21:29:00,
2013-05-17 17:30:00,66.0,48.9,30.08,South,171,4.0,6.0,54,0.00,,---,0.00,VWS V14.01,2013-05-17 21:30:00,
2013-05-17 17:31:00,65.8,49.7,30.08,SSW,195,6.0,7.0,56,0.00,,---,0.00,VWS V14.01,2013-05-17 21:31:00,
2013-05-17 17:32:00,65.6,49.5,30.08,South,173,9.0,10.0,56,0.00,,---,0.00,VWS V14.01,2013-05-17 21:32:00,
2013-05-17 17:33:00,65.3,49.2,30.08,SSW,196,4.0,11.0,56,0.00,,---,0.00,VWS V14.01,2013-05-17 21:33:00,
2013-05-17 17:34:00,65.0,48.9,30.08,SSW,209,3.0,11.0,56,0.00,,---,0.00,VWS V14.01,2013-05-17 21:34:00,
2013-05-17 17:35:00,64.7,49.1,30.08,SE,136,7.0,11.0,57,0.00,,---,0.00,VWS V14.01,2013-05-17 21:35:00,
2013-05-17 17:36:00,64.3,48.8,30.08,South,186,0.0,7.0,57,0.00,,---,0.00,VWS V14.01,2013-05-17 21:36:00,
2013-05-17 17:37:00,64.2,49.1,30.08,SSE,149,1.0,7.0,58,0.00,,---,0.00,VWS V14.01,2013-05-17 21:37:00,
2013-05-17 17:38:00,63.9,49.3,30.08,SE,132,2.0,7.0,59,0.00,,---,0.00,VWS V14.01,2013-05-17 21:38:00,
2013-05-17 17:39:00,63.5,48.5,30.08,SE,139,10.0,10.0,58,0.00,,---,0.00,VWS V14.01,2013-05-17 21:39:00,
2013-05-17 17:40:00,63.2,48.7,30.08,SSE,161,2.0,10.0,59,0.00,,---,0.00,VWS V14.01,2013-05-17 21:40:00,
2013-05-17 17:41:00,62.9,48.4,30.08,ESE,121,2.0,8.0,59,0.00,,---,0.00,VWS V14.01,2013-05-17 21:41:00,
2013-05-17 17:42:00,62.6,48.5,30.08,SE,142,7.0,8.0,60,0.00,,---,0.00,VWS V14.01,2013-05-17 21:42:00,
2013-05-17 17:43:00,62.3,48.2,30.08,SSE,148,2.0,9.0,60,0.00,,---,0.00,VWS V14.01,2013-05-17 21:43:00,
2013-05-17 17:44:00,62.1,48.5,30.08,SE,144,4.0,9.0,61,0.00,,---,0.00,VWS V14.01,2013-05-17 21:44:00,
2013-05-17 17:45:00,62.0,48.4,30.09,SSW,200,3.0,9.0,61,0.00,,---,0.00,VWS V14.01,2013-05-17 21:45:00,
2013-05-17 17:46:00,61.8,48.2,30.09,SSE,154,0.0,4.0,61,0.00,,---,0.00,VWS V14.01,2013-05-17 21:46:00,
2013-05-17 17:47:00,61.8,48.7,30.09,SSE,155,0.0,4.0,62,0.00,,---,0.00,VWS V14.01,2013-05-17 21:47:00,
2013-05-17 17:48:00,61.6,48.5,30.09,ESE,118,6.0,6.0,62,0.00,,---,0.00,VWS V14.01,2013-05-17 21:48:00,
2013-05-17 17:49:00,61.5,48.8,30.09,ESE,118,0.0,6.0,63,0.00,,---,0.00,VWS V14.01,2013-05-17 21:49:00,
2013-05-17 17:50:00,61.5,48.8,30.09,ESE,118,4.0,6.0,63,0.00,,---,0.00,VWS V14.01,2013-05-17 21:50:00,
2013-05-17 17:51:00,61.5,48.8,30.09,South,178,4.0,6.0,63,0.00,,---,0.00,VWS V14.01,2013-05-17 21:51:00,
2013-05-17 17:52:00,61.3,48.6,30.09,SSW,205,5.0,9.0,63,0.00,,---,0.00,VWS V14.01,2013-05-17 21:52:00,
2013-05-17 17:53:00,61.3,48.2,30.09,SSW,203,4.0,11.0,62,0.00,,---,0.00,VWS V14.01,2013-05-17 21:53:00,
2013-05-17 17:54:00,61.3,48.2,30.09,SSE,168,5.0,11.0,62,0.00,,---,0.00,VWS V14.01,2013-05-17 21:54:00,
2013-05-17 17:55:00,61.2,48.1,30.09,SE,136,2.0,11.0,62,0.00,,---,0.00,VWS V14.01,2013-05-17 21:55:00,
2013-05-17 17:56:00,61.2,48.5,30.09,SSW,209,6.0,8.0,63,0.00,,---,0.00,VWS V14.01,2013-05-17 21:56:00,
2013-05-17 17:57:00,61.0,48.3,30.09,SSW,211,7.0,8.0,63,0.00,,---,0.00,VWS V14.01,2013-05-17 21:57:00,
2013-05-17 17:58:00,61.0,48.3,30.09,South,173,8.0,11.0,63,0.00,,---,0.00,VWS V14.01,2013-05-17 21:58:00,
2013-05-17 17:59:00,60.9,48.2,30.09,ESE,121,4.0,11.0,63,0.00,,---,0.00,VWS V14.01,2013-05-17 21:59:00,
2013-05-17 18:00:00,60.9,48.2,30.10,South,171,2.0,11.0,63,0.00,,---,0.00,VWS V14.01,2013-05-17 22:00:00,
2013-05-17 18:01:00,60.7,48.5,30.10,South,190,1.0,8.0,64,0.00,,---,0.00,VWS V14.01,2013-05-17 22:01:00,
2013-05-17 18:02:00,60.5,48.3,30.10,South,187,1.0,8.0,64,0.00,,---,0.00,VWS V14.01,2013-05-17 22:02:00,
2013-05-17 18:03:00,60.5,48.3,30.10,South,188,6.0,13.0,64,0.00,,---,0.00,VWS V14.01,2013-05-17 22:03:00,
2013-05-17 18:04:00,60.4,47.8,30.10,SE,140,9.0,13.0,63,0.00,,---,0.00,VWS V14.01,2013-05-17 22:04:00,
2013-05-17 18:05:00,60.2,47.6,30.10,South,175,7.0,13.0,63,0.00,,---,0.00,VWS V14.01,2013-05-17 22:05:00,
2013-05-17 18:06:00,60.2,48.0,30.10,South,186,2.0,9.0,64,0.00,,---,0.00,VWS V14.01,2013-05-17 22:06:00,
2013-05-17 18:07:00,60.1,47.9,30.10,South,180,1.0,9.0,64,0.00,,---,0.00,VWS V14.01,2013-05-17 22:07:00,
2013-05-17 18:08:00,59.9,48.1,30.10,South,178,0.0,9.0,65,0.00,,---,0.00,VWS V14.01,2013-05-17 22:08:00,
2013-05-17 18:09:00,59.9,48.1,30.10,SSW,213,2.0,9.0,65,0.00,,---,0.00,VWS V14.01,2013-05-17 22:09:00,
2013-05-17 18:10:00,59.9,48.1,30.10,South,177,2.0,9.0,65,0.00,,---,0.00,VWS V14.01,2013-05-17 22:10:00,
2013-05-17 18:11:00,59.8,48.0,30.10,SSW,196,7.0,7.0,65,0.00,,---,0.00,VWS V14.01,2013-05-17 22:11:00,
2013-05-17 18:12:00,59.8,48.0,30.10,South,185,5.0,8.0,65,0.00,,---,0.00,VWS V14.01,2013-05-17 22:12:00,
2013-05-17 18:13:00,59.8,48.0,30.10,SSW,192,3.0,8.0,65,0.00,,---,0.00,VWS V14.01,2013-05-17 22:13:00,
2013-05-17 18:14:00,59.6,48.2,30.10,SSW,211,6.0,8.0,66,0.00,,---,0.00,VWS V14.01,2013-05-17 22:14:00,
2013-05-17 18:15:00,59.6,47.8,30.11,SSW,194,5.0,8.0,65,0.00,,---,0.00,VWS V14.01,2013-05-17 22:15:00,
2013-05-17 18:16:00,59.6,47.8,30.11,SSW,192,5.0,6.0,65,0.00,,---,0.00,VWS V14.01,2013-05-17 22:16:00,
2013-05-17 18:17:00,59.5,47.7,30.11,South,177,8.0,8.0,65,0.00,,---,0.00,VWS V14.01,2013-05-17 22:17:00,
2013-05-17 18:18:00,59.5,47.7,30.11,SSW,199,5.0,8.0,65,0.00,,---,0.00,VWS V14.01,2013-05-17 22:18:00,
2013-05-17 18:19:00,59.3,47.5,30.11,SSW,198,0.0,8.0,65,0.00,,---,0.00,VWS V14.01,2013-05-17 22:19:00,
2013-05-17 18:20:00,59.3,47.5,30.11,South,188,4.0,8.0,65,0.00,,---,0.00,VWS V14.01,2013-05-17 22:20:00,
2013-05-17 18:21:00,59.3,47.1,30.11,SSW,207,3.0,10.0,64,0.00,,---,0.00,VWS V14.01,2013-05-17 22:21:00,
2013-05-17 18:22:00,59.2,47.0,30.11,SSW,196,5.0,10.0,64,0.00,,---,0.00,VWS V14.01,2013-05-17 22:22:00,
2013-05-17 18:23:00,59.2,47.0,30.11,South,188,7.0,10.0,64,0.00,,---,0.00,VWS V14.01,2013-05-17 22:23:00,
2013-05-17 18:24:00,59.2,46.6,30.11,South,169,4.0,10.0,63,0.00,,---,0.00,VWS V14.01,2013-05-17 22:24:00,
2013-05-17 18:25:00,59.0,46.4,30.11,South,190,0.0,10.0,63,0.00,,---,0.00,VWS V14.01,2013-05-17 22:25:00,
2013-05-17 18:26:00,59.0,46.4,30.11,South,191,1.0,3.0,63,0.00,,---,0.00,VWS V14.01,2013-05-17 22:26:00,
2013-05-17 18:27:00,59.0,46.8,30.11,SSW,198,10.0,10.0,64,0.00,,---,0.00,VWS V14.01,2013-05-17 22:27:00,
2013-05-17 18:28:00,58.9,46.8,30.11,SSW,200,6.0,11.0,64,0.00,,---,0.00,VWS V14.01,2013-05-17 22:28:00,
2013-05-17 18:29:00,58.9,46.8,30.11,SSW,198,3.0,11.0,64,0.00,,---,0.00,VWS V14.01,2013-05-17 22:29:00,
2013-05-17 18:30:00,58.9,46.8,30.12,SSW,196,2.0,11.0,64,0.00,,---,0.00,VWS V14.01,2013-05-17 22:30:00,
2013-05-17 18:31:00,58.9,46.8,30.12,SSW,194,0.0,8.0,64,0.00,,---,0.00,VWS V14.01,2013-05-17 22:31:00,
2013-05-17 18:32:00,58.9,46.8,30.12,SE,126,4.0,8.0,64,0.00,,---,0.00,VWS V14.01,2013-05-17 22:32:00,
2013-05-17 18:33:00,58.9,46.8,30.12,South,178,4.0,8.0,64,0.00,,---,0.00,VWS V14.01,2013-05-17 22:33:00,
2013-05-17 18:34:00,58.7,46.6,30.12,SE,142,1.0,8.0,64,0.00,,---,0.00,VWS V14.01,2013-05-17 22:34:00,
2013-05-17 18:35:00,58.7,47.0,30.12,SE,140,1.0,8.0,65,0.00,,---,0.00,VWS V14.01,2013-05-17 22:35:00,
2013-05-17 18:36:00,58.7,47.0,30.12,SSW,194,7.0,8.0,65,0.00,,---,0.00,VWS V14.01,2013-05-17 22:36:00,
2013-05-17 18:37:00,58.7,47.0,30.12,SSW,196,0.0,8.0,65,0.00,,---,0.00,VWS V14.01,2013-05-17 22:37:00,
2013-05-17 18:38:00,58.7,47.0,30.12,SSW,196,1.0,8.0,65,0.00,,---,0.00,VWS V14.01,2013-05-17 22:38:00,
2013-05-17 18:39:00,58.7,47.0,30.12,SSW,196,0.0,8.0,65,0.00,,---,0.00,VWS V14.01,2013-05-17 22:39:00,
2013-05-17 18:40:00,58.7,47.0,30.12,SSW,200,5.0,8.0,65,0.00,,---,0.00,VWS V14.01,2013-05-17 22:40:00,
2013-05-17 18:41:00,58.7,46.6,30.12,South,177,5.0,5.0,64,0.00,,---,0.00,VWS V14.01,2013-05-17 22:41:00,
2013-05-17 18:42:00,58.7,46.6,30.12,SSE,158,1.0,5.0,64,0.00,,---,0.00,VWS V14.01,2013-05-17 22:42:00,
2013-05-17 18:43:00,58.7,46.6,30.12,South,185,3.0,5.0,64,0.00,,---,0.00,VWS V14.01,2013-05-17 22:43:00,
2013-05-17 18:44:00,58.7,46.6,30.12,South,180,0.0,5.0,64,0.00,,---,0.00,VWS V14.01,2013-05-17 22:44:00,
2013-05-17 18:45:00,58.6,46.5,30.12,South,181,0.0,5.0,64,0.00,,---,0.00,VWS V14.01,2013-05-17 22:45:00,
2013-05-17 18:46:00,58.6,46.5,30.12,South,181,2.0,2.0,64,0.00,,---,0.00,VWS V14.01,2013-05-17 22:46:00,
2013-05-17 18:47:00,58.6,46.5,30.12,SSW,196,3.0,5.0,64,0.00,,---,0.00,VWS V14.01,2013-05-17 22:47:00,
2013-05-17 18:48:00,58.6,46.5,30.12,South,180,0.0,5.0,64,0.00,,---,0.00,VWS V14.01,2013-05-17 22:48:00,
2013-05-17 18:49:00,58.6,46.5,30.12,South,184,3.0,5.0,64,0.00,,---,0.00,VWS V14.01,2013-05-17 22:49:00,
2013-05-17 18:50:00,58.6,46.5,30.12,SSW,207,5.0,5.0,64,0.00,,---,0.00,VWS V14.01,2013-05-17 22:50:00,
2013-05-17 18:51:00,58.6,46.5,30.12,SSW,193,2.0,5.0,64,0.00,,---,0.00,VWS V14.01,2013-05-17 22:51:00,
2013-05-17 18:52:00,58.6,46.5,30.12,SSW,198,1.0,5.0,64,0.00,,---,0.00,VWS V14.01,2013-05-17 22:52:00,
2013-05-17 18:53:00,58.4,46.3,30.12,SSW,207,6.0,6.0,64,0.00,,---,0.00,VWS V14.01,2013-05-17 22:53:00,
2013-05-17 18:54:00,58.4,46.3,30.12,SSW,196,0.0,7.0,64,0.00,,---,0.00,VWS V14.01,2013-05-17 22:54:00,
2013-05-17 18:55:00,58.4,46.3,30.12,South,188,4.0,7.0,64,0.00,,---,0.00,VWS V14.01,2013-05-17 22:55:00,
2013-05-17 18:56:00,58.4,46.3,30.12,SSW,205,3.0,6.0,64,0.00,,---,0.00,VWS V14.01,2013-05-17 22:56:00,
2013-05-17 18:57:00,58.4,46.3,30.12,SSW,205,3.0,6.0,64,0.00,,---,0.00,VWS V14.01,2013-05-17 22:57:00,
2013-05-17 18:58:00,58.4,46.3,30.12,SSW,205,1.0,6.0,64,0.00,,---,0.00,VWS V14.01,2013-05-17 22:58:00,
2013-05-17 18:59:00,58.4,46.3,30.12,SSW,205,0.0,6.0,64,0.00,,---,0.00,VWS V14.01,2013-05-17 22:59:00,
2013-05-17 19:00:00,58.3,46.2,30.13,SSW,205,3.0,6.0,64,0.00,,---,0.00,VWS V14.01,2013-05-17 23:00:00,
2013-05-17 19:01:00,58.3,46.2,30.13,SSW,205,1.0,4.0,64,0.00,,---,0.00,VWS V14.01,2013-05-17 23:01:00,
2013-05-17 19:02:00,58.3,46.2,30.13,South,188,3.0,6.0,64,0.00,,---,0.00,VWS V14.01,2013-05-17 23:02:00,
2013-05-17 19:03:00,58.3,45.8,30.13,South,188,0.0,6.0,63,0.00,,---,0.00,VWS V14.01,2013-05-17 23:03:00,
2013-05-17 19:04:00,58.3,45.8,30.13,South,188,0.0,6.0,63,0.00,,---,0.00,VWS V14.01,2013-05-17 23:04:00,
2013-05-17 19:05:00,58.3,45.8,30.13,South,188,0.0,6.0,63,0.00,,---,0.00,VWS V14.01,2013-05-17 23:05:00,
2013-05-17 19:06:00,58.3,46.2,30.13,South,188,0.0,0.0,64,0.00,,---,0.00,VWS V14.01,2013-05-17 23:06:00,
2013-05-17 19:07:00,58.3,46.2,30.13,South,188,0.0,1.0,64,0.00,,---,0.00,VWS V14.01,2013-05-17 23:07:00,
2013-05-17 19:08:00,58.1,46.0,30.13,SSW,205,2.0,5.0,64,0.00,,---,0.00,VWS V14.01,2013-05-17 23:08:00,
2013-05-17 19:09:00,58.1,46.0,30.13,SSW,201,3.0,5.0,64,0.00,,---,0.00,VWS V14.01,2013-05-17 23:09:00,
2013-05-17 19:10:00,58.1,46.0,30.13,SSW,201,1.0,5.0,64,0.00,,---,0.00,VWS V14.01,2013-05-17 23:10:00,
2013-05-17 19:11:00,58.1,46.0,30.13,SSW,207,0.0,2.0,64,0.00,,---,0.00,VWS V14.01,2013-05-17 23:11:00,
2013-05-17 19:12:00,58.1,46.0,30.13,SSW,207,0.0,2.0,64,0.00,,---,0.00,VWS V14.01,2013-05-17 23:12:00,
2013-05-17 19:13:00,58.1,46.0,30.13,SSW,207,2.0,2.0,64,0.00,,---,0.00,VWS V14.01,2013-05-17 23:13:00,
2013-05-17 19:14:00,58.1,46.0,30.13,South,189,0.0,3.0,64,0.00,,---,0.00,VWS V14.01,2013-05-17 23:14:00,
2013-05-17 19:15:00,58.1,46.0,30.13,South,189,0.0,3.0,64,0.00,,---,0.00,VWS V14.01,2013-05-17 23:15:00,
2013-05-17 19:16:00,58.0,45.9,30.13,South,189,0.0,0.0,64,0.00,,---,0.00,VWS V14.01,2013-05-17 23:16:00,
2013-05-17 19:17:00,58.0,45.9,30.13,South,189,0.0,1.0,64,0.00,,---,0.00,VWS V14.01,2013-05-17 23:17:00,
2013-05-17 19:18:00,58.0,45.9,30.13,South,189,0.0,1.0,64,0.00,,---,0.00,VWS V14.01,2013-05-17 23:18:00,
2013-05-17 19:19:00,58.0,45.9,30.13,South,189,0.0,1.0,64,0.00,,---,0.00,VWS V14.01,2013-05-17 23:19:00,
2013-05-17 19:20:00,58.0,45.9,30.13,South,189,1.0,1.0,64,0.00,,---,0.00,VWS V14.01,2013-05-17 23:20:00,
2013-05-17 19:21:00,58.0,45.9,30.13,South,189,0.0,1.0,64,0.00,,---,0.00,VWS V14.01,2013-05-17 23:21:00,
2013-05-17 19:22:00,58.0,45.9,30.13,South,189,0.0,1.0,64,0.00,,---,0.00,VWS V14.01,2013-05-17 23:22:00,
2013-05-17 19:23:00,57.8,45.7,30.13,South,189,0.0,1.0,64,0.00,,---,0.00,VWS V14.01,2013-05-17 23:23:00,
2013-05-17 19:24:00,57.8,45.7,30.13,South,189,0.0,1.0,64,0.00,,---,0.00,VWS V14.01,2013-05-17 23:24:00,
2013-05-17 19:25:00,57.8,45.7,30.13,South,189,0.0,1.0,64,0.00,,---,0.00,VWS V14.01,2013-05-17 23:25:00,
2013-05-17 19:26:00,57.8,45.7,30.13,South,189,2.0,2.0,64,0.00,,---,0.00,VWS V14.01,2013-05-17 23:26:00,
2013-05-17 19:27:00,57.8,46.1,30.13,SSW,193,2.0,3.0,65,0.00,,---,0.00,VWS V14.01,2013-05-17 23:27:00,
2013-05-17 19:28:00,57.6,45.9,30.13,SSW,193,2.0,3.0,65,0.00,,---,0.00,VWS V14.01,2013-05-17 23:28:00,
2013-05-17 19:29:00,57.6,45.9,30.13,SSW,198,1.0,3.0,65,0.00,,---,0.00,VWS V14.01,2013-05-17 23:29:00,
2013-05-17 19:30:00,57.6,45.9,30.14,SSW,202,3.0,3.0,65,0.00,,---,0.00,VWS V14.01,2013-05-17 23:30:00,
2013-05-17 19:31:00,57.6,45.9,30.14,SSW,202,0.0,3.0,65,0.00,,---,0.00,VWS V14.01,2013-05-17 23:31:00,
2013-05-17 19:32:00,57.5,45.8,30.14,SSW,201,2.0,3.0,65,0.00,,---,0.00,VWS V14.01,2013-05-17 23:32:00,
2013-05-17 19:33:00,57.5,45.8,30.14,SSW,195,0.0,3.0,65,0.00,,---,0.00,VWS V14.01,2013-05-17 23:33:00,
2013-05-17 19:34:00,57.5,45.8,30.14,SSW,195,0.0,3.0,65,0.00,,---,0.00,VWS V14.01,2013-05-17 23:34:00,
2013-05-17 19:35:00,57.5,45.8,30.14,SSW,200,0.0,4.0,65,0.00,,---,0.00,VWS V14.01,2013-05-17 23:35:00,
2013-05-17 19:36:00,57.5,45.8,30.14,SSW,200,0.0,3.0,65,0.00,,---,0.00,VWS V14.01,2013-05-17 23:36:00,
2013-05-17 19:37:00,57.3,45.7,30.14,SSW,200,0.0,3.0,65,0.00,,---,0.00,VWS V14.01,2013-05-17 23:37:00,
2013-05-17 19:38:00,57.3,45.7,30.14,SSW,200,0.0,3.0,65,0.00,,---,0.00,VWS V14.01,2013-05-17 23:38:00,
2013-05-17 19:39:00,57.3,45.7,30.14,SSW,200,0.0,3.0,65,0.00,,---,0.00,VWS V14.01,2013-05-17 23:39:00,
2013-05-17 19:40:00,57.3,45.7,30.14,SSW,200,0.0,3.0,65,0.00,,---,0.00,VWS V14.01,2013-05-17 23:40:00,
2013-05-17 19:41:00,57.2,45.6,30.14,SSW,200,0.0,1.0,65,0.00,,---,0.00,VWS V14.01,2013-05-17 23:41:00,
2013-05-17 19:42:00,57.2,45.6,30.14,SSW,200,0.0,1.0,65,0.00,,---,0.00,VWS V14.01,2013-05-17 23:42:00,
2013-05-17 19:43:00,57.2,46.0,30.14,SSW,200,0.0,1.0,66,0.00,,---,0.00,VWS V14.01,2013-05-17 23:43:00,
2013-05-17 19:44:00,57.2,46.0,30.14,SSW,200,0.0,1.0,66,0.00,,---,0.00,VWS V14.01,2013-05-17 23:44:00,
2013-05-17 19:45:00,57.2,46.0,30.16,SSW,200,0.0,1.0,66,0.00,,---,0.00,VWS V14.01,2013-05-17 23:45:00,
2013-05-17 19:46:00,57.0,45.8,30.16,SSW,200,0.0,2.0,66,0.00,,---,0.00,VWS V14.01,2013-05-17 23:46:00,
2013-05-17 19:47:00,57.0,45.8,30.16,SSW,195,2.0,5.0,66,0.00,,---,0.00,VWS V14.01,2013-05-17 23:47:00,
2013-05-17 19:48:00,57.0,45.8,30.16,SSW,195,1.0,5.0,66,0.00,,---,0.00,VWS V14.01,2013-05-17 23:48:00,
2013-05-17 19:49:00,57.0,45.8,30.16,SSW,195,0.0,5.0,66,0.00,,---,0.00,VWS V14.01,2013-05-17 23:49:00,
2013-05-17 19:50:00,57.0,45.8,30.16,SSW,195,0.0,5.0,66,0.00,,---,0.00,VWS V14.01,2013-05-17 23:50:00,
2013-05-17 19:51:00,57.0,45.8,30.16,SSW,195,0.0,0.0,66,0.00,,---,0.00,VWS V14.01,2013-05-17 23:51:00,
2013-05-17 19:52:00,56.9,45.7,30.16,SSW,192,3.0,5.0,66,0.00,,---,0.00,VWS V14.01,2013-05-17 23:52:00,
2013-05-17 19:53:00,56.9,45.7,30.16,SSW,192,1.0,5.0,66,0.00,,---,0.00,VWS V14.01,2013-05-17 23:53:00,
2013-05-17 19:54:00,56.9,45.7,30.16,SSW,192,0.0,5.0,66,0.00,,---,0.00,VWS V14.01,2013-05-17 23:54:00,
2013-05-17 19:55:00,56.9,45.7,30.16,SSW,196,2.0,5.0,66,0.00,,---,0.00,VWS V14.01,2013-05-17 23:55:00,
2013-05-17 19:56:00,56.7,45.5,30.16,SSW,196,1.0,3.0,66,0.00,,---,0.00,VWS V14.01,2013-05-17 23:56:00,
2013-05-17 19:57:00,56.7,45.9,30.16,SSW,196,1.0,3.0,67,0.00,,---,0.00,VWS V14.01,2013-05-17 23:57:00,
2013-05-17 19:58:00,56.7,45.9,30.16,SSW,196,2.0,3.0,67,0.00,,---,0.00,VWS V14.01,2013-05-17 23:58:00,
2013-05-17 19:59:00,56.7,45.9,30.16,SSW,196,0.0,3.0,67,0.00,,---,0.00,VWS V14.01,2013-05-17 23:59:00,
2013-05-17 20:00:00,56.7,45.9,30.17,SSW,196,0.0,3.0,67,0.00,,---,0.00,VWS V14.01,2013-05-18 00:00:00,
2013-05-17 20:01:00,56.7,45.9,30.17,SSW,196,1.0,2.0,67,0.00,,---,0.00,VWS V14.01,2013-05-18 00:01:00,
2013-05-17 20:02:00,56.7,45.9,30.17,SSW,196,1.0,3.0,67,0.00,,---,0.00,VWS V14.01,2013-05-18 00:02:00,
2013-05-17 20:03:00,56.6,45.8,30.17,SSW,196,0.0,3.0,67,0.00,,---,0.00,VWS V14.01,2013-05-18 00:03:00,
2013-05-17 20:04:00,56.6,45.8,30.17,SSW,196,0.0,3.0,67,0.00,,---,0.00,VWS V14.01,2013-05-18 00:04:00,
2013-05-17 20:05:00,56.6,45.8,30.17,SSW,196,0.0,3.0,67,0.00,,---,0.00,VWS V14.01,2013-05-18 00:05:00,
2013-05-17 20:06:00,56.6,46.2,30.17,SSW,196,2.0,3.0,68,0.00,,---,0.00,VWS V14.01,2013-05-18 00:06:00,
2013-05-17 20:07:00,56.6,46.2,30.17,SSW,196,0.0,3.0,68,0.00,,---,0.00,VWS V14.01,2013-05-18 00:07:00,
2013-05-17 20:08:00,56.6,46.2,30.17,SSW,196,0.0,3.0,68,0.00,,---,0.00,VWS V14.01,2013-05-18 00:08:00,
2013-05-17 20:09:00,56.6,46.2,30.17,SSW,196,0.0,3.0,68,0.00,,---,0.00,VWS V14.01,2013-05-18 00:09:00,
2013-05-17 20:10:00,56.5,46.1,30.17,SSW,196,0.0,3.0,68,0.00,,---,0.00,VWS V14.01,2013-05-18 00:10:00,
2013-05-17 20:11:00,56.5,46.1,30.17,SSW,196,0.0,1.0,68,0.00,,---,0.00,VWS V14.01,2013-05-18 00:11:00,
2013-05-17 20:12:00,56.5,46.1,30.17,SSW,196,0.0,1.0,68,0.00,,---,0.00,VWS V14.01,2013-05-18 00:12:00,
2013-05-17 20:13:00,56.5,46.1,30.17,SSW,196,0.0,1.0,68,0.00,,---,0.00,VWS V14.01,2013-05-18 00:13:00,
2013-05-17 20:14:00,56.5,46.1,30.17,SSW,196,0.0,1.0,68,0.00,,---,0.00,VWS V14.01,2013-05-18 00:14:00,
2013-05-17 20:15:00,56.5,46.1,30.17,SSW,196,0.0,1.0,68,0.00,,---,0.00,VWS V14.01,2013-05-18 00:15:00,
2013-05-17 20:16:00,56.5,46.1,30.17,SSW,196,0.0,0.0,68,0.00,,---,0.00,VWS V14.01,2013-05-18 00:16:00,
2013-05-17 20:17:00,56.5,46.1,30.17,SSW,196,0.0,0.0,68,0.00,,---,0.00,VWS V14.01,2013-05-18 00:17:00,
2013-05-17 20:18:00,56.5,46.1,30.17,SSW,196,0.0,1.0,68,0.00,,---,0.00,VWS V14.01,2013-05-18 00:18:00,
2013-05-17 20:19:00,56.3,45.9,30.17,SSW,196,0.0,1.0,68,0.00,,---,0.00,VWS V14.01,2013-05-18 00:19:00,
2013-05-17 20:20:00,56.3,45.9,30.17,SSW,196,0.0,1.0,68,0.00,,---,0.00,VWS V14.01,2013-05-18 00:20:00,
2013-05-17 20:21:00,56.3,45.9,30.17,SSW,196,0.0,0.0,68,0.00,,---,0.00,VWS V14.01,2013-05-18 00:21:00,
2013-05-17 20:22:00,56.3,45.9,30.17,SSW,196,0.0,0.0,68,0.00,,---,0.00,VWS V14.01,2013-05-18 00:22:00,
2013-05-17 20:23:00,56.3,45.9,30.17,SSW,196,0.0,0.0,68,0.00,,---,0.00,VWS V14.01,2013-05-18 00:23:00,
2013-05-17 20:24:00,56.3,45.9,30.17,SSW,196,0.0,0.0,68,0.00,,---,0.00,VWS V14.01,2013-05-18 00:24:00,
2013-05-17 20:25:00,56.3,45.9,30.17,SSW,196,0.0,0.0,68,0.00,,---,0.00,VWS V14.01,2013-05-18 00:25:00,
2013-05-17 20:26:00,56.3,45.9,30.17,SSW,196,0.0,0.0,68,0.00,,---,0.00,VWS V14.01,2013-05-18 00:26:00,
2013-05-17 20:27:00,56.3,45.9,30.17,SSW,196,0.0,0.0,68,0.00,,---,0.00,VWS V14.01,2013-05-18 00:27:00,
2013-05-17 20:28:00,56.3,45.9,30.17,SSW,196,0.0,0.0,68,0.00,,---,0.00,VWS V14.01,2013-05-18 00:28:00,
2013-05-17 20:29:00,56.2,46.2,30.17,SSW,196,0.0,0.0,69,0.00,,---,0.00,VWS V14.01,2013-05-18 00:29:00,
2013-05-17 20:30:00,56.2,46.2,30.18,SSW,196,0.0,0.0,69,0.00,,---,0.00,VWS V14.01,2013-05-18 00:30:00,
2013-05-17 20:31:00,56.2,46.2,30.18,SSW,196,0.0,0.0,69,0.00,,---,0.00,VWS V14.01,2013-05-18 00:31:00,
2013-05-17 20:32:00,56.2,46.2,30.18,SSW,196,0.0,0.0,69,0.00,,---,0.00,VWS V14.01,2013-05-18 00:32:00,
2013-05-17 20:33:00,56.2,46.2,30.18,SSW,196,0.0,0.0,69,0.00,,---,0.00,VWS V14.01,2013-05-18 00:33:00,
2013-05-17 20:34:00,56.2,46.2,30.18,SSW,196,0.0,0.0,69,0.00,,---,0.00,VWS V14.01,2013-05-18 00:34:00,
2013-05-17 20:35:00,56.2,46.2,30.18,SSW,196,0.0,0.0,69,0.00,,---,0.00,VWS V14.01,2013-05-18 00:35:00,
2013-05-17 20:36:00,56.2,46.2,30.18,SSW,196,0.0,0.0,69,0.00,,---,0.00,VWS V14.01,2013-05-18 00:36:00,
2013-05-17 20:37:00,56.2,46.2,30.18,SSW,196,0.0,0.0,69,0.00,,---,0.00,VWS V14.01,2013-05-18 00:37:00,
2013-05-17 20:38:00,56.0,46.0,30.18,SSW,196,0.0,0.0,69,0.00,,---,0.00,VWS V14.01,2013-05-18 00:38:00,
2013-05-17 20:39:00,56.0,46.0,30.18,SSW,196,0.0,0.0,69,0.00,,---,0.00,VWS V14.01,2013-05-18 00:39:00,
2013-05-17 20:40:00,56.0,46.0,30.18,SSW,196,0.0,0.0,69,0.00,,---,0.00,VWS V14.01,2013-05-18 00:40:00,
2013-05-17 20:41:00,56.0,46.0,30.18,SSW,196,0.0,0.0,69,0.00,,---,0.00,VWS V14.01,2013-05-18 00:41:00,
2013-05-17 20:42:00,56.0,46.0,30.18,SSW,196,0.0,0.0,69,0.00,,---,0.00,VWS V14.01,2013-05-18 00:42:00,
2013-05-17 20:43:00,56.0,46.0,30.18,SSW,196,0.0,0.0,69,0.00,,---,0.00,VWS V14.01,2013-05-18 00:43:00,
2013-05-17 20:44:00,56.0,46.0,30.18,SSW,196,0.0,0.0,69,0.00,,---,0.00,VWS V14.01,2013-05-18 00:44:00,
2013-05-17 20:45:00,56.0,46.0,30.19,SSW,196,0.0,0.0,69,0.00,,---,0.00,VWS V14.01,2013-05-18 00:45:00,
2013-05-17 20:46:00,55.9,45.9,30.19,SSW,196,0.0,0.0,69,0.00,,---,0.00,VWS V14.01,2013-05-18 00:46:00,
2013-05-17 20:47:00,55.9,45.9,30.19,SSW,196,0.0,0.0,69,0.00,,---,0.00,VWS V14.01,2013-05-18 00:47:00,
2013-05-17 20:48:00,55.9,45.9,30.19,SSW,196,0.0,0.0,69,0.00,,---,0.00,VWS V14.01,2013-05-18 00:48:00,
2013-05-17 20:49:00,55.9,45.9,30.19,SSW,196,0.0,0.0,69,0.00,,---,0.00,VWS V14.01,2013-05-18 00:49:00,
2013-05-17 20:50:00,55.9,45.9,30.19,SSW,196,0.0,0.0,69,0.00,,---,0.00,VWS V14.01,2013-05-18 00:50:00,
2013-05-17 20:51:00,55.9,45.9,30.19,SSW,196,0.0,0.0,69,0.00,,---,0.00,VWS V14.01,2013-05-18 00:51:00,
2013-05-17 20:52:00,55.7,45.7,30.19,SSW,196,0.0,0.0,69,0.00,,---,0.00,VWS V14.01,2013-05-18 00:52:00,
2013-05-17 20:53:00,55.7,45.7,30.19,SSW,196,0.0,0.0,69,0.00,,---,0.00,VWS V14.01,2013-05-18 00:53:00,
2013-05-17 20:54:00,55.7,45.7,30.19,SSW,196,0.0,0.0,69,0.00,,---,0.00,VWS V14.01,2013-05-18 00:54:00,
2013-05-17 20:55:00,55.7,45.7,30.19,SSW,196,0.0,0.0,69,0.00,,---,0.00,VWS V14.01,2013-05-18 00:55:00,
2013-05-17 20:56:00,55.7,45.7,30.19,SSW,196,0.0,0.0,69,0.00,,---,0.00,VWS V14.01,2013-05-18 00:56:00,
2013-05-17 20:57:00,55.7,45.7,30.19,SSW,196,0.0,0.0,69,0.00,,---,0.00,VWS V14.01,2013-05-18 00:57:00,
2013-05-17 20:58:00,55.7,45.7,30.19,SSW,196,0.0,0.0,69,0.00,,---,0.00,VWS V14.01,2013-05-18 00:58:00,
2013-05-17 20:59:00,55.7,45.7,30.19,SSW,196,0.0,0.0,69,0.00,,---,0.00,VWS V14.01,2013-05-18 00:59:00,
2013-05-17 21:00:00,55.6,45.6,30.20,SSW,196,0.0,0.0,69,0.00,,---,0.00,VWS V14.01,2013-05-18 01:00:00,
2013-05-17 21:01:00,55.6,45.6,30.20,WSW,238,0.0,2.0,69,0.00,,---,0.00,VWS V14.01,2013-05-18 01:01:00,
2013-05-17 21:02:00,55.6,45.6,30.20,WSW,238,0.0,2.0,69,0.00,,---,0.00,VWS V14.01,2013-05-18 01:02:00,
2013-05-17 21:03:00,55.6,45.6,30.20,WSW,238,0.0,2.0,69,0.00,,---,0.00,VWS V14.01,2013-05-18 01:03:00,
2013-05-17 21:04:00,55.6,45.6,30.20,WSW,238,0.0,2.0,69,0.00,,---,0.00,VWS V14.01,2013-05-18 01:04:00,
2013-05-17 21:05:00,55.6,45.6,30.20,WSW,238,0.0,2.0,69,0.00,,---,0.00,VWS V14.01,2013-05-18 01:05:00,
2013-05-17 21:06:00,55.6,45.6,30.20,WSW,238,0.0,0.0,69,0.00,,---,0.00,VWS V14.01,2013-05-18 01:06:00,
2013-05-17 21:07:00,55.4,45.4,30.20,WSW,238,0.0,0.0,69,0.00,,---,0.00,VWS V14.01,2013-05-18 01:07:00,
2013-05-17 21:08:00,55.4,45.4,30.20,WSW,238,1.0,1.0,69,0.00,,---,0.00,VWS V14.01,2013-05-18 01:08:00,
2013-05-17 21:09:00,55.4,45.4,30.20,WSW,238,0.0,1.0,69,0.00,,---,0.00,VWS V14.01,2013-05-18 01:09:00,
2013-05-17 21:10:00,55.4,45.4,30.20,WSW,238,0.0,1.0,69,0.00,,---,0.00,VWS V14.01,2013-05-18 01:10:00,
2013-05-17 21:11:00,55.4,45.4,30.20,WSW,238,0.0,0.0,69,0.00,,---,0.00,VWS V14.01,2013-05-18 01:11:00,
2013-05-17 21:12:00,55.4,45.4,30.20,WSW,238,0.0,0.0,69,0.00,,---,0.00,VWS V14.01,2013-05-18 01:12:00,
2013-05-17 21:13:00,55.4,45.8,30.20,WSW,238,0.0,0.0,70,0.00,,---,0.00,VWS V14.01,2013-05-18 01:13:00,
2013-05-17 21:14:00,55.4,45.8,30.20,WSW,238,0.0,0.0,70,0.00,,---,0.00,VWS V14.01,2013-05-18 01:14:00,
2013-05-17 21:15:00,55.3,45.7,30.20,WSW,238,0.0,0.0,70,0.00,,---,0.00,VWS V14.01,2013-05-18 01:15:00,
2013-05-17 21:16:00,55.3,45.7,30.20,WSW,238,0.0,1.0,70,0.00,,---,0.00,VWS V14.01,2013-05-18 01:16:00,
2013-05-17 21:17:00,55.3,45.7,30.20,WSW,238,0.0,1.0,70,0.00,,---,0.00,VWS V14.01,2013-05-18 01:17:00,
2013-05-17 21:18:00,55.3,45.7,30.20,WSW,238,0.0,1.0,70,0.00,,---,0.00,VWS V14.01,2013-05-18 01:18:00,
2013-05-17 21:19:00,55.3,45.7,30.20,WSW,238,0.0,1.0,70,0.00,,---,0.00,VWS V14.01,2013-05-18 01:19:00,
2013-05-17 21:20:00,55.3,45.7,30.20,WSW,238,0.0,1.0,70,0.00,,---,0.00,VWS V14.01,2013-05-18 01:20:00,
2013-05-17 21:21:00,55.3,45.7,30.20,WSW,238,0.0,0.0,70,0.00,,---,0.00,VWS V14.01,2013-05-18 01:21:00,
2013-05-17 21:22:00,55.3,45.7,30.20,WSW,238,0.0,0.0,70,0.00,,---,0.00,VWS V14.01,2013-05-18 01:22:00,
2013-05-17 21:23:00,55.3,45.7,30.20,WSW,238,0.0,0.0,70,0.00,,---,0.00,VWS V14.01,2013-05-18 01:23:00,
2013-05-17 21:24:00,55.3,45.7,30.20,WSW,238,0.0,0.0,70,0.00,,---,0.00,VWS V14.01,2013-05-18 01:24:00,
2013-05-17 21:25:00,55.1,45.5,30.20,WSW,238,0.0,0.0,70,0.00,,---,0.00,VWS V14.01,2013-05-18 01:25:00,
2013-05-17 21:26:00,55.1,45.5,30.20,WSW,238,0.0,0.0,70,0.00,,---,0.00,VWS V14.01,2013-05-18 01:26:00,
2013-05-17 21:27:00,55.1,45.5,30.20,WSW,238,0.0,0.0,70,0.00,,---,0.00,VWS V14.01,2013-05-18 01:27:00,
2013-05-17 21:28:00,55.1,45.5,30.20,WSW,238,0.0,0.0,70,0.00,,---,0.00,VWS V14.01,2013-05-18 01:28:00,
2013-05-17 21:29:00,55.1,45.5,30.20,WSW,238,0.0,0.0,70,0.00,,---,0.00,VWS V14.01,2013-05-18 01:29:00,
2013-05-17 21:30:00,55.1,45.5,30.20,WSW,238,0.0,0.0,70,0.00,,---,0.00,VWS V14.01,2013-05-18 01:30:00,
2013-05-17 21:31:00,55.1,45.9,30.20,WSW,238,0.0,0.0,71,0.00,,---,0.00,VWS V14.01,2013-05-18 01:31:00,
2013-05-17 21:32:00,55.1,45.5,30.20,WSW,238,0.0,0.0,70,0.00,,---,0.00,VWS V14.01,2013-05-18 01:32:00,
2013-05-17 21:33:00,55.0,45.8,30.20,WSW,238,0.0,0.0,71,0.00,,---,0.00,VWS V14.01,2013-05-18 01:33:00,
2013-05-17 21:34:00,55.0,45.8,30.20,WSW,238,0.0,0.0,71,0.00,,---,0.00,VWS V14.01,2013-05-18 01:34:00,
2013-05-17 21:35:00,55.0,45.8,30.20,WSW,238,0.0,0.0,71,0.00,,---,0.00,VWS V14.01,2013-05-18 01:35:00,
2013-05-17 21:36:00,55.0,45.8,30.20,WSW,238,0.0,0.0,71,0.00,,---,0.00,VWS V14.01,2013-05-18 01:36:00,
2013-05-17 21:37:00,55.0,45.8,30.20,WSW,238,0.0,0.0,71,0.00,,---,0.00,VWS V14.01,2013-05-18 01:37:00,
2013-05-17 21:38:00,55.0,45.4,30.20,WSW,238,0.0,0.0,70,0.00,,---,0.00,VWS V14.01,2013-05-18 01:38:00,
2013-05-17 21:39:00,55.0,45.8,30.20,WSW,238,0.0,0.0,71,0.00,,---,0.00,VWS V14.01,2013-05-18 01:39:00,
2013-05-17 21:40:00,54.8,45.6,30.20,WSW,238,0.0,0.0,71,0.00,,---,0.00,VWS V14.01,2013-05-18 01:40:00,
2013-05-17 21:41:00,54.8,45.6,30.20,WSW,238,0.0,0.0,71,0.00,,---,0.00,VWS V14.01,2013-05-18 01:41:00,
2013-05-17 21:42:00,54.8,45.6,30.20,WSW,238,0.0,0.0,71,0.00,,---,0.00,VWS V14.01,2013-05-18 01:42:00,
2013-05-17 21:43:00,54.8,45.6,30.20,WSW,238,0.0,0.0,71,0.00,,---,0.00,VWS V14.01,2013-05-18 01:43:00,
2013-05-17 21:44:00,54.8,45.6,30.20,WSW,238,0.0,0.0,71,0.00,,---,0.00,VWS V14.01,2013-05-18 01:44:00,
2013-05-17 21:45:00,54.8,45.6,30.20,WSW,238,0.0,0.0,71,0.00,,---,0.00,VWS V14.01,2013-05-18 01:45:00,
2013-05-17 21:46:00,54.8,45.6,30.20,WSW,238,0.0,0.0,71,0.00,,---,0.00,VWS V14.01,2013-05-18 01:46:00,
2013-05-17 21:47:00,54.7,45.5,30.20,WSW,238,0.0,0.0,71,0.00,,---,0.00,VWS V14.01,2013-05-18 01:47:00,
2013-05-17 21:48:00,54.7,45.5,30.20,WSW,238,0.0,0.0,71,0.00,,---,0.00,VWS V14.01,2013-05-18 01:48:00,
2013-05-17 21:49:00,54.7,45.5,30.20,WSW,238,0.0,0.0,71,0.00,,---,0.00,VWS V14.01,2013-05-18 01:49:00,
2013-05-17 21:50:00,54.7,45.5,30.20,WSW,238,0.0,0.0,71,0.00,,---,0.00,VWS V14.01,2013-05-18 01:50:00,
2013-05-17 21:51:00,54.7,45.5,30.20,WSW,238,0.0,0.0,71,0.00,,---,0.00,VWS V14.01,2013-05-18 01:51:00,
2013-05-17 21:52:00,54.7,45.5,30.20,WSW,238,0.0,0.0,71,0.00,,---,0.00,VWS V14.01,2013-05-18 01:52:00,
2013-05-17 21:53:00,54.7,45.5,30.20,WSW,238,0.0,0.0,71,0.00,,---,0.00,VWS V14.01,2013-05-18 01:53:00,
2013-05-17 21:54:00,54.5,45.3,30.20,WSW,238,0.0,0.0,71,0.00,,---,0.00,VWS V14.01,2013-05-18 01:54:00,
2013-05-17 21:55:00,54.5,45.3,30.20,WSW,238,0.0,0.0,71,0.00,,---,0.00,VWS V14.01,2013-05-18 01:55:00,
2013-05-17 21:56:00,54.5,45.3,30.20,WSW,238,0.0,0.0,71,0.00,,---,0.00,VWS V14.01,2013-05-18 01:56:00,
2013-05-17 21:57:00,54.5,45.7,30.20,WSW,238,0.0,0.0,72,0.00,,---,0.00,VWS V14.01,2013-05-18 01:57:00,
2013-05-17 21:58:00,54.5,45.7,30.20,WSW,238,0.0,0.0,72,0.00,,---,0.00,VWS V14.01,2013-05-18 01:58:00,
2013-05-17 21:59:00,54.5,45.7,30.20,WSW,238,0.0,0.0,72,0.00,,---,0.00,VWS V14.01,2013-05-18 01:59:00,
2013-05-17 22:00:00,54.5,45.7,30.21,WSW,238,0.0,0.0,72,0.00,,---,0.00,VWS V14.01,2013-05-18 02:00:00,
2013-05-17 22:01:00,54.4,45.6,30.21,WSW,238,0.0,0.0,72,0.00,,---,0.00,VWS V14.01,2013-05-18 02:01:00,
2013-05-17 22:02:00,54.4,45.6,30.21,WSW,238,0.0,0.0,72,0.00,,---,0.00,VWS V14.01,2013-05-18 02:02:00,
2013-05-17 22:03:00,54.4,45.6,30.21,WSW,238,0.0,0.0,72,0.00,,---,0.00,VWS V14.01,2013-05-18 02:03:00,
2013-05-17 22:04:00,54.4,45.9,30.21,WSW,238,0.0,0.0,73,0.00,,---,0.00,VWS V14.01,2013-05-18 02:04:00,
2013-05-17 22:05:00,54.2,45.8,30.21,WSW,238,0.0,0.0,73,0.00,,---,0.00,VWS V14.01,2013-05-18 02:05:00,
2013-05-17 22:06:00,54.2,45.8,30.21,WSW,238,0.0,0.0,73,0.00,,---,0.00,VWS V14.01,2013-05-18 02:06:00,
2013-05-17 22:07:00,54.2,45.4,30.21,WSW,238,0.0,0.0,72,0.00,,---,0.00,VWS V14.01,2013-05-18 02:07:00,
2013-05-17 22:08:00,54.2,45.4,30.21,WSW,238,0.0,0.0,72,0.00,,---,0.00,VWS V14.01,2013-05-18 02:08:00,
2013-05-17 22:09:00,54.2,45.4,30.21,WSW,238,0.0,0.0,72,0.00,,---,0.00,VWS V14.01,2013-05-18 02:09:00,
2013-05-17 22:10:00,54.2,45.4,30.21,WSW,238,0.0,0.0,72,0.00,,---,0.00,VWS V14.01,2013-05-18 02:10:00,
2013-05-17 22:11:00,54.1,45.7,30.21,WSW,238,0.0,0.0,73,0.00,,---,0.00,VWS V14.01,2013-05-18 02:11:00,
2013-05-17 22:12:00,54.1,45.7,30.21,WSW,238,0.0,0.0,73,0.00,,---,0.00,VWS V14.01,2013-05-18 02:12:00,
2013-05-17 22:13:00,54.1,45.7,30.21,WSW,238,0.0,0.0,73,0.00,,---,0.00,VWS V14.01,2013-05-18 02:13:00,
2013-05-17 22:14:00,54.1,45.7,30.21,WSW,238,0.0,0.0,73,0.00,,---,0.00,VWS V14.01,2013-05-18 02:14:00,
2013-05-17 22:15:00,54.1,45.7,30.21,WSW,238,0.0,0.0,73,0.00,,---,0.00,VWS V14.01,2013-05-18 02:15:00,
2013-05-17 22:16:00,53.9,45.5,30.21,WSW,238,0.0,0.0,73,0.00,,---,0.00,VWS V14.01,2013-05-18 02:16:00,
2013-05-17 22:17:00,53.9,45.5,30.21,WSW,238,0.0,0.0,73,0.00,,---,0.00,VWS V14.01,2013-05-18 02:17:00,
2013-05-17 22:18:00,53.9,45.5,30.21,WSW,238,0.0,0.0,73,0.00,,---,0.00,VWS V14.01,2013-05-18 02:18:00,
2013-05-17 22:19:00,53.9,45.5,30.21,WSW,238,0.0,0.0,73,0.00,,---,0.00,VWS V14.01,2013-05-18 02:19:00,
2013-05-17 22:20:00,53.9,45.5,30.21,WSW,238,0.0,0.0,73,0.00,,---,0.00,VWS V14.01,2013-05-18 02:20:00,
2013-05-17 22:21:00,53.9,45.5,30.21,WSW,238,0.0,0.0,73,0.00,,---,0.00,VWS V14.01,2013-05-18 02:21:00,
2013-05-17 22:22:00,53.9,45.5,30.21,WSW,238,0.0,0.0,73,0.00,,---,0.00,VWS V14.01,2013-05-18 02:22:00,
2013-05-17 22:23:00,53.8,45.4,30.21,WSW,238,0.0,0.0,73,0.00,,---,0.00,VWS V14.01,2013-05-18 02:23:00,
2013-05-17 22:24:00,53.8,45.4,30.21,WSW,238,0.0,0.0,73,0.00,,---,0.00,VWS V14.01,2013-05-18 02:24:00,
2013-05-17 22:25:00,53.8,45.4,30.21,WSW,238,0.0,0.0,73,0.00,,---,0.00,VWS V14.01,2013-05-18 02:25:00,
2013-05-17 22:26:00,53.8,45.4,30.21,WSW,238,0.0,0.0,73,0.00,,---,0.00,VWS V14.01,2013-05-18 02:26:00,
2013-05-17 22:27:00,53.8,45.4,30.21,WSW,238,0.0,0.0,73,0.00,,---,0.00,VWS V14.01,2013-05-18 02:27:00,
2013-05-17 22:28:00,53.8,45.4,30.21,WSW,238,0.0,0.0,73,0.00,,---,0.00,VWS V14.01,2013-05-18 02:28:00,
2013-05-17 22:29:00,53.6,45.2,30.21,WSW,238,0.0,0.0,73,0.00,,---,0.00,VWS V14.01,2013-05-18 02:29:00,
2013-05-17 22:30:00,53.6,45.2,30.21,WSW,238,0.0,0.0,73,0.00,,---,0.00,VWS V14.01,2013-05-18 02:30:00,
2013-05-17 22:31:00,53.6,45.2,30.21,WSW,238,0.0,0.0,73,0.00,,---,0.00,VWS V14.01,2013-05-18 02:31:00,
2013-05-17 22:32:00,53.6,45.2,30.21,WSW,238,0.0,0.0,73,0.00,,---,0.00,VWS V14.01,2013-05-18 02:32:00,
2013-05-17 22:33:00,53.6,45.2,30.21,WSW,238,0.0,0.0,73,0.00,,---,0.00,VWS V14.01,2013-05-18 02:33:00,
2013-05-17 22:34:00,53.5,45.1,30.21,WSW,238,0.0,0.0,73,0.00,,---,0.00,VWS V14.01,2013-05-18 02:34:00,
2013-05-17 22:35:00,53.5,45.1,30.21,WSW,238,0.0,0.0,73,0.00,,---,0.00,VWS V14.01,2013-05-18 02:35:00,
2013-05-17 22:36:00,53.5,45.4,30.21,WSW,238,0.0,0.0,74,0.00,,---,0.00,VWS V14.01,2013-05-18 02:36:00,
2013-05-17 22:37:00,53.5,45.4,30.21,WSW,238,0.0,0.0,74,0.00,,---,0.00,VWS V14.01,2013-05-18 02:37:00,
2013-05-17 22:38:00,53.5,45.4,30.21,WSW,238,0.0,0.0,74,0.00,,---,0.00,VWS V14.01,2013-05-18 02:38:00,
2013-05-17 22:39:00,53.3,45.2,30.21,WSW,238,0.0,0.0,74,0.00,,---,0.00,VWS V14.01,2013-05-18 02:39:00,
2013-05-17 22:40:00,53.3,45.2,30.21,WSW,238,0.0,0.0,74,0.00,,---,0.00,VWS V14.01,2013-05-18 02:40:00,
2013-05-17 22:41:00,53.3,45.6,30.21,WSW,238,0.0,0.0,75,0.00,,---,0.00,VWS V14.01,2013-05-18 02:41:00,
2013-05-17 22:42:00,53.3,45.6,30.21,WSW,238,0.0,0.0,75,0.00,,---,0.00,VWS V14.01,2013-05-18 02:42:00,
2013-05-17 22:43:00,53.2,45.5,30.21,WSW,238,0.0,0.0,75,0.00,,---,0.00,VWS V14.01,2013-05-18 02:43:00,
2013-05-17 22:44:00,53.2,45.5,30.21,WSW,238,0.0,0.0,75,0.00,,---,0.00,VWS V14.01,2013-05-18 02:44:00,
2013-05-17 22:45:00,53.2,45.8,30.21,WSW,238,0.0,0.0,76,0.00,,---,0.00,VWS V14.01,2013-05-18 02:45:00,
2013-05-17 22:46:00,53.1,45.8,30.21,WSW,238,0.0,0.0,76,0.00,,---,0.00,VWS V14.01,2013-05-18 02:46:00,
2013-05-17 22:47:00,53.1,45.8,30.21,WSW,238,0.0,0.0,76,0.00,,---,0.00,VWS V14.01,2013-05-18 02:47:00,
2013-05-17 22:48:00,53.1,45.8,30.21,WSW,238,0.0,0.0,76,0.00,,---,0.00,VWS V14.01,2013-05-18 02:48:00,
2013-05-17 22:49:00,52.9,45.9,30.21,WSW,238,0.0,0.0,77,0.00,,---,0.00,VWS V14.01,2013-05-18 02:49:00,
2013-05-17 22:50:00,52.9,45.9,30.21,WSW,238,0.0,0.0,77,0.00,,---,0.00,VWS V14.01,2013-05-18 02:50:00,
2013-05-17 22:51:00,52.9,45.9,30.21,WSW,238,0.0,0.0,77,0.00,,---,0.00,VWS V14.01,2013-05-18 02:51:00,
2013-05-17 22:52:00,52.9,45.9,30.21,WSW,238,0.0,0.0,77,0.00,,---,0.00,VWS V14.01,2013-05-18 02:52:00,
2013-05-17 22:53:00,52.8,45.8,30.21,WSW,238,0.0,0.0,77,0.00,,---,0.00,VWS V14.01,2013-05-18 02:53:00,
2013-05-17 22:54:00,52.8,45.8,30.21,WSW,238,0.0,0.0,77,0.00,,---,0.00,VWS V14.01,2013-05-18 02:54:00,
2013-05-17 22:55:00,52.8,45.5,30.21,WSW,238,0.0,0.0,76,0.00,,---,0.00,VWS V14.01,2013-05-18 02:55:00,
2013-05-17 22:56:00,52.8,45.5,30.21,WSW,238,0.0,0.0,76,0.00,,---,0.00,VWS V14.01,2013-05-18 02:56:00,
2013-05-17 22:57:00,52.8,45.5,30.21,WSW,238,0.0,0.0,76,0.00,,---,0.00,VWS V14.01,2013-05-18 02:57:00,
2013-05-17 22:58:00,52.8,45.8,30.21,WSW,238,0.0,0.0,77,0.00,,---,0.00,VWS V14.01,2013-05-18 02:58:00,
2013-05-17 22:59:00,52.6,45.6,30.21,WSW,238,0.0,0.0,77,0.00,,---,0.00,VWS V14.01,2013-05-18 02:59:00,
2013-05-17 23:00:00,52.6,45.6,30.22,WSW,238,0.0,0.0,77,0.00,,---,0.00,VWS V14.01,2013-05-18 03:00:00,
2013-05-17 23:01:00,52.6,45.6,30.22,WSW,238,0.0,0.0,77,0.00,,---,0.00,VWS V14.01,2013-05-18 03:01:00,
2013-05-17 23:02:00,52.6,45.6,30.22,WSW,238,0.0,0.0,77,0.00,,---,0.00,VWS V14.01,2013-05-18 03:02:00,
2013-05-17 23:03:00,52.6,45.6,30.22,WSW,238,0.0,0.0,77,0.00,,---,0.00,VWS V14.01,2013-05-18 03:03:00,
2013-05-17 23:04:00,52.5,45.5,30.22,WSW,238,0.0,0.0,77,0.00,,---,0.00,VWS V14.01,2013-05-18 03:04:00,
2013-05-17 23:05:00,52.5,45.5,30.22,WSW,238,0.0,0.0,77,0.00,,---,0.00,VWS V14.01,2013-05-18 03:05:00,
2013-05-17 23:06:00,52.5,45.5,30.22,WSW,238,0.0,0.0,77,0.00,,---,0.00,VWS V14.01,2013-05-18 03:06:00,
2013-05-17 23:07:00,52.5,45.5,30.22,WSW,238,0.0,0.0,77,0.00,,---,0.00,VWS V14.01,2013-05-18 03:07:00,
2013-05-17 23:08:00,52.3,45.7,30.22,WSW,238,0.0,0.0,78,0.00,,---,0.00,VWS V14.01,2013-05-18 03:08:00,
2013-05-17 23:09:00,52.3,45.7,30.22,WSW,238,0.0,0.0,78,0.00,,---,0.00,VWS V14.01,2013-05-18 03:09:00,
2013-05-17 23:10:00,52.3,45.7,30.22,WSW,238,0.0,0.0,78,0.00,,---,0.00,VWS V14.01,2013-05-18 03:10:00,
2013-05-17 23:11:00,52.3,45.7,30.22,WSW,238,0.0,0.0,78,0.00,,---,0.00,VWS V14.01,2013-05-18 03:11:00,
2013-05-17 23:12:00,52.2,45.6,30.22,WSW,238,0.0,0.0,78,0.00,,---,0.00,VWS V14.01,2013-05-18 03:12:00,
2013-05-17 23:13:00,52.2,45.6,30.22,WSW,238,0.0,0.0,78,0.00,,---,0.00,VWS V14.01,2013-05-18 03:13:00,
2013-05-17 23:14:00,52.2,45.6,30.22,WSW,238,0.0,0.0,78,0.00,,---,0.00,VWS V14.01,2013-05-18 03:14:00,
2013-05-17 23:15:00,52.2,45.6,30.23,WSW,238,0.0,0.0,78,0.00,,---,0.00,VWS V14.01,2013-05-18 03:15:00,
2013-05-17 23:16:00,52.2,45.6,30.23,WSW,238,0.0,0.0,78,0.00,,---,0.00,VWS V14.01,2013-05-18 03:16:00,
2013-05-17 23:17:00,52.0,45.4,30.23,WSW,238,0.0,0.0,78,0.00,,---,0.00,VWS V14.01,2013-05-18 03:17:00,
2013-05-17 23:18:00,52.0,45.4,30.23,WSW,238,0.0,0.0,78,0.00,,---,0.00,VWS V14.01,2013-05-18 03:18:00,
2013-05-17 23:19:00,52.0,45.4,30.23,WSW,238,0.0,0.0,78,0.00,,---,0.00,VWS V14.01,2013-05-18 03:19:00,
2013-05-17 23:20:00,52.0,45.4,30.23,WSW,238,0.0,0.0,78,0.00,,---,0.00,VWS V14.01,2013-05-18 03:20:00,
2013-05-17 23:21:00,52.0,45.7,30.23,WSW,238,0.0,0.0,79,0.00,,---,0.00,VWS V14.01,2013-05-18 03:21:00,
2013-05-17 23:22:00,51.9,45.6,30.23,WSW,238,0.0,0.0,79,0.00,,---,0.00,VWS V14.01,2013-05-18 03:22:00,
2013-05-17 23:23:00,51.9,45.6,30.23,WSW,238,0.0,0.0,79,0.00,,---,0.00,VWS V14.01,2013-05-18 03:23:00,
2013-05-17 23:24:00,51.9,45.6,30.23,WSW,238,0.0,0.0,79,0.00,,---,0.00,VWS V14.01,2013-05-18 03:24:00,
2013-05-17 23:25:00,51.9,45.6,30.23,WSW,238,0.0,0.0,79,0.00,,---,0.00,VWS V14.01,2013-05-18 03:25:00,
2013-05-17 23:26:00,51.7,45.4,30.23,WSW,238,0.0,0.0,79,0.00,,---,0.00,VWS V14.01,2013-05-18 03:26:00,
2013-05-17 23:27:00,51.7,45.4,30.23,WSW,238,0.0,0.0,79,0.00,,---,0.00,VWS V14.01,2013-05-18 03:27:00,
2013-05-17 23:28:00,51.7,45.7,30.23,WSW,238,0.0,0.0,80,0.00,,---,0.00,VWS V14.01,2013-05-18 03:28:00,
2013-05-17 23:29:00,51.7,45.7,30.23,WSW,238,0.0,0.0,80,0.00,,---,0.00,VWS V14.01,2013-05-18 03:29:00,
2013-05-17 23:30:00,51.7,45.7,30.23,WSW,238,0.0,0.0,80,0.00,,---,0.00,VWS V14.01,2013-05-18 03:30:00,
2013-05-17 23:31:00,51.6,45.6,30.23,WSW,238,0.0,0.0,80,0.00,,---,0.00,VWS V14.01,2013-05-18 03:31:00,
2013-05-17 23:32:00,51.6,45.6,30.23,WSW,238,0.0,0.0,80,0.00,,---,0.00,VWS V14.01,2013-05-18 03:32:00,
2013-05-17 23:33:00,51.6,45.6,30.23,WSW,238,0.0,0.0,80,0.00,,---,0.00,VWS V14.01,2013-05-18 03:33:00,
2013-05-17 23:34:00,51.6,45.6,30.23,WSW,238,0.0,0.0,80,0.00,,---,0.00,VWS V14.01,2013-05-18 03:34:00,
2013-05-17 23:35:00,51.4,45.5,30.23,WSW,238,0.0,0.0,80,0.00,,---,0.00,VWS V14.01,2013-05-18 03:35:00,
2013-05-17 23:36:00,51.4,45.5,30.23,WSW,238,0.0,0.0,80,0.00,,---,0.00,VWS V14.01,2013-05-18 03:36:00,
2013-05-17 23:37:00,51.4,45.5,30.23,WSW,238,0.0,0.0,80,0.00,,---,0.00,VWS V14.01,2013-05-18 03:37:00,
2013-05-17 23:38:00,51.4,45.8,30.23,WSW,238,0.0,0.0,81,0.00,,---,0.00,VWS V14.01,2013-05-18 03:38:00,
2013-05-17 23:39:00,51.3,45.7,30.23,WSW,238,0.0,0.0,81,0.00,,---,0.00,VWS V14.01,2013-05-18 03:39:00,
2013-05-17 23:40:00,51.3,45.7,30.23,WSW,238,0.0,0.0,81,0.00,,---,0.00,VWS V14.01,2013-05-18 03:40:00,
2013-05-17 23:41:00,51.1,45.5,30.23,WSW,238,0.0,0.0,81,0.00,,---,0.00,VWS V14.01,2013-05-18 03:41:00,
2013-05-17 23:42:00,51.1,45.5,30.23,WSW,238,0.0,0.0,81,0.00,,---,0.00,VWS V14.01,2013-05-18 03:42:00,
2013-05-17 23:43:00,51.1,45.5,30.23,WSW,238,0.0,0.0,81,0.00,,---,0.00,VWS V14.01,2013-05-18 03:43:00,
2013-05-17 23:44:00,51.0,45.4,30.23,WSW,238,0.0,0.0,81,0.00,,---,0.00,VWS V14.01,2013-05-18 03:44:00,
2013-05-17 23:45:00,51.0,45.4,30.23,WSW,238,0.0,0.0,81,0.00,,---,0.00,VWS V14.01,2013-05-18 03:45:00,
2013-05-17 23:46:00,51.0,45.4,30.23,WSW,238,0.0,0.0,81,0.00,,---,0.00,VWS V14.01,2013-05-18 03:46:00,
2013-05-17 23:47:00,51.0,45.4,30.23,WSW,238,0.0,0.0,81,0.00,,---,0.00,VWS V14.01,2013-05-18 03:47:00,
2013-05-17 23:48:00,50.8,45.2,30.23,WSW,238,0.0,0.0,81,0.00,,---,0.00,VWS V14.01,2013-05-18 03:48:00,
2013-05-17 23:49:00,50.8,45.2,30.23,WSW,238,0.0,0.0,81,0.00,,---,0.00,VWS V14.01,2013-05-18 03:49:00,
2013-05-17 23:50:00,50.8,45.2,30.23,WSW,238,0.0,0.0,81,0.00,,---,0.00,VWS V14.01,2013-05-18 03:50:00,
2013-05-17 23:51:00,50.8,45.2,30.23,WSW,238,0.0,0.0,81,0.00,,---,0.00,VWS V14.01,2013-05-18 03:51:00,
2013-05-17 23:52:00,50.8,45.2,30.23,WSW,238,0.0,0.0,81,0.00,,---,0.00,VWS V14.01,2013-05-18 03:52:00,
2013-05-17 23:53:00,50.8,45.5,30.23,WSW,238,0.0,0.0,82,0.00,,---,0.00,VWS V14.01,2013-05-18 03:53:00,
2013-05-17 23:54:00,50.7,45.4,30.23,WSW,238,0.0,0.0,82,0.00,,---,0.00,VWS V14.01,2013-05-18 03:54:00,
2013-05-17 23:55:00,50.7,45.4,30.23,WSW,238,0.0,0.0,82,0.00,,---,0.00,VWS V14.01,2013-05-18 03:55:00,
2013-05-17 23:56:00,50.7,45.4,30.23,WSW,238,0.0,0.0,82,0.00,,---,0.00,VWS V14.01,2013-05-18 03:56:00,
2013-05-17 23:57:00,50.7,45.4,30.23,WSW,238,0.0,0.0,82,0.00,,---,0.00,VWS V14.01,2013-05-18 03:57:00,
2013-05-17 23:58:00,50.7,45.4,30.23,WSW,238,0.0,0.0,82,0.00,,---,0.00,VWS V14.01,2013-05-18 03:58:00,
2013-05-17 23:59:00,50.7,45.4,30.23,WSW,238,0.0,0.0,82,0.00,,---,0.00,VWS V14.01,2013-05-18 03:59:00,